<?xml version="1.0" encoding="UTF-8" standalone="no" ?>
<gpx xmlns="http://www.topografix.com/GPX/1/1" xmlns:xsi="http://www.w3.org/2001/XMLSchema-instance" xsi:schemaLocation="http://www.topografix.com/GPX/1/1 http://www.topografix.com/GPX/1/1/gpx.xsd" version="1.1" creator="VisuGPX - https://www.visugpx.com">
  <metadata>
    <name>Créon</name>
    <desc><![CDATA[[b][i][url][img][/img][/url][/i][/b]Partie du Raid de Créon 2019 avec liaison départ de Capian]]></desc>
  </metadata>
  <wpt lat="44.71203" lon="-0.33081">
    <ele>92.9</ele>
    <name><![CDATA[Départ/Arrivée]]></name>
  </wpt>
  <trk>
    <name><![CDATA[Créon_1]]></name>
    <trkseg>
      <trkpt lat="44.74661" lon="-0.39696">
        <ele>57.22</ele>
        <time>2019-05-19T12:20:08Z</time>
      </trkpt>
      <trkpt lat="44.74669" lon="-0.39664">
        <ele>55.41</ele>
        <time>2019-05-19T12:20:16Z</time>
      </trkpt>
      <trkpt lat="44.74678" lon="-0.39632">
        <ele>53.85</ele>
        <time>2019-05-19T12:20:24Z</time>
      </trkpt>
      <trkpt lat="44.74687" lon="-0.39593">
        <ele>51.93</ele>
        <time>2019-05-19T12:20:25Z</time>
      </trkpt>
      <trkpt lat="44.74724" lon="-0.39544">
        <ele>49.4</ele>
        <time>2019-05-19T12:20:26Z</time>
      </trkpt>
      <trkpt lat="44.74739" lon="-0.39528">
        <ele>47.46</ele>
        <time>2019-05-19T12:20:27Z</time>
      </trkpt>
      <trkpt lat="44.74759" lon="-0.39499">
        <ele>46.7</ele>
        <time>2019-05-19T12:20:28Z</time>
      </trkpt>
      <trkpt lat="44.74755" lon="-0.39474">
        <ele>44.97</ele>
        <time>2019-05-19T12:20:29Z</time>
      </trkpt>
      <trkpt lat="44.74748" lon="-0.39469">
        <ele>44.03</ele>
        <time>2019-05-19T12:20:44Z</time>
      </trkpt>
      <trkpt lat="44.74739" lon="-0.39462">
        <ele>42.82</ele>
        <time>2019-05-19T12:20:45Z</time>
      </trkpt>
      <trkpt lat="44.74725" lon="-0.39454">
        <ele>40.64</ele>
        <time>2019-05-19T12:20:46Z</time>
      </trkpt>
      <trkpt lat="44.74715" lon="-0.39447">
        <ele>39.34</ele>
        <time>2019-05-19T12:20:47Z</time>
      </trkpt>
      <trkpt lat="44.74711" lon="-0.39444">
        <ele>39.34</ele>
        <time>2019-05-19T12:20:48Z</time>
      </trkpt>
      <trkpt lat="44.74701" lon="-0.39439">
        <ele>37.87</ele>
        <time>2019-05-19T12:20:49Z</time>
      </trkpt>
      <trkpt lat="44.74688" lon="-0.39434">
        <ele>35.8</ele>
        <time>2019-05-19T12:20:50Z</time>
      </trkpt>
      <trkpt lat="44.74673" lon="-0.39426">
        <ele>34.89</ele>
        <time>2019-05-19T12:20:54Z</time>
      </trkpt>
      <trkpt lat="44.74662" lon="-0.39428">
        <ele>35.08</ele>
        <time>2019-05-19T12:21:10Z</time>
      </trkpt>
      <trkpt lat="44.74652" lon="-0.39423">
        <ele>37.78</ele>
        <time>2019-05-19T12:21:22Z</time>
      </trkpt>
      <trkpt lat="44.74635" lon="-0.39418">
        <ele>40.64</ele>
        <time>2019-05-19T12:21:38Z</time>
      </trkpt>
      <trkpt lat="44.74629" lon="-0.39423">
        <ele>42.44</ele>
        <time>2019-05-19T12:21:57Z</time>
      </trkpt>
      <trkpt lat="44.74609" lon="-0.39438">
        <ele>44.97</ele>
        <time>2019-05-19T12:22:15Z</time>
      </trkpt>
      <trkpt lat="44.74606" lon="-0.3944">
        <ele>44.96</ele>
        <time>2019-05-19T12:22:30Z</time>
      </trkpt>
      <trkpt lat="44.74596" lon="-0.39445">
        <ele>45.74</ele>
        <time>2019-05-19T12:22:48Z</time>
      </trkpt>
      <trkpt lat="44.74593" lon="-0.39447">
        <ele>46.88</ele>
        <time>2019-05-19T12:23:05Z</time>
      </trkpt>
      <trkpt lat="44.74577" lon="-0.39434">
        <ele>46.75</ele>
        <time>2019-05-19T12:23:19Z</time>
      </trkpt>
      <trkpt lat="44.74555" lon="-0.39424">
        <ele>49.19</ele>
        <time>2019-05-19T12:23:30Z</time>
      </trkpt>
      <trkpt lat="44.74549" lon="-0.39423">
        <ele>50.17</ele>
        <time>2019-05-19T12:23:31Z</time>
      </trkpt>
      <trkpt lat="44.74543" lon="-0.39426">
        <ele>51.02</ele>
        <time>2019-05-19T12:23:32Z</time>
      </trkpt>
      <trkpt lat="44.74536" lon="-0.39432">
        <ele>51.85</ele>
        <time>2019-05-19T12:23:33Z</time>
      </trkpt>
      <trkpt lat="44.74528" lon="-0.39447">
        <ele>53.86</ele>
        <time>2019-05-19T12:23:34Z</time>
      </trkpt>
      <trkpt lat="44.74515" lon="-0.39467">
        <ele>55.67</ele>
        <time>2019-05-19T12:23:35Z</time>
      </trkpt>
      <trkpt lat="44.74511" lon="-0.3947">
        <ele>56.66</ele>
        <time>2019-05-19T12:23:36Z</time>
      </trkpt>
      <trkpt lat="44.74496" lon="-0.39483">
        <ele>59.47</ele>
        <time>2019-05-19T12:23:37Z</time>
      </trkpt>
      <trkpt lat="44.74479" lon="-0.39486">
        <ele>61.97</ele>
        <time>2019-05-19T12:23:38Z</time>
      </trkpt>
      <trkpt lat="44.74467" lon="-0.39499">
        <ele>62.82</ele>
        <time>2019-05-19T12:23:53Z</time>
      </trkpt>
      <trkpt lat="44.7445" lon="-0.39515">
        <ele>63.65</ele>
        <time>2019-05-19T12:23:55Z</time>
      </trkpt>
      <trkpt lat="44.74439" lon="-0.39519">
        <ele>65.31</ele>
        <time>2019-05-19T12:23:59Z</time>
      </trkpt>
      <trkpt lat="44.74414" lon="-0.39515">
        <ele>67.03</ele>
        <time>2019-05-19T12:24:00Z</time>
      </trkpt>
      <trkpt lat="44.74398" lon="-0.39508">
        <ele>68.8</ele>
        <time>2019-05-19T12:24:04Z</time>
      </trkpt>
      <trkpt lat="44.74383" lon="-0.39499">
        <ele>68.83</ele>
        <time>2019-05-19T12:24:08Z</time>
      </trkpt>
      <trkpt lat="44.74371" lon="-0.39471">
        <ele>69.64</ele>
        <time>2019-05-19T12:24:09Z</time>
      </trkpt>
      <trkpt lat="44.74364" lon="-0.39465">
        <ele>69.66</ele>
        <time>2019-05-19T12:24:10Z</time>
      </trkpt>
      <trkpt lat="44.7436" lon="-0.39456">
        <ele>69.66</ele>
        <time>2019-05-19T12:24:23Z</time>
      </trkpt>
      <trkpt lat="44.74353" lon="-0.39438">
        <ele>69.7</ele>
        <time>2019-05-19T12:24:27Z</time>
      </trkpt>
      <trkpt lat="44.74332" lon="-0.39426">
        <ele>69.71</ele>
        <time>2019-05-19T12:24:29Z</time>
      </trkpt>
      <trkpt lat="44.7433" lon="-0.39422">
        <ele>69.7</ele>
        <time>2019-05-19T12:24:30Z</time>
      </trkpt>
      <trkpt lat="44.74329" lon="-0.39418">
        <ele>69.7</ele>
        <time>2019-05-19T12:24:31Z</time>
      </trkpt>
      <trkpt lat="44.74327" lon="-0.39415">
        <ele>69.71</ele>
        <time>2019-05-19T12:24:33Z</time>
      </trkpt>
      <trkpt lat="44.74321" lon="-0.39415">
        <ele>69.76</ele>
        <time>2019-05-19T12:24:34Z</time>
      </trkpt>
      <trkpt lat="44.74317" lon="-0.39417">
        <ele>69.94</ele>
        <time>2019-05-19T12:24:35Z</time>
      </trkpt>
      <trkpt lat="44.74317" lon="-0.39418">
        <ele>70.19</ele>
        <time>2019-05-19T12:24:46Z</time>
      </trkpt>
      <trkpt lat="44.74317" lon="-0.39421">
        <ele>70.5</ele>
        <time>2019-05-19T12:24:49Z</time>
      </trkpt>
      <trkpt lat="44.74316" lon="-0.39424">
        <ele>70.82</ele>
        <time>2019-05-19T12:24:50Z</time>
      </trkpt>
      <trkpt lat="44.74314" lon="-0.39425">
        <ele>70.84</ele>
        <time>2019-05-19T12:24:56Z</time>
      </trkpt>
      <trkpt lat="44.743" lon="-0.39426">
        <ele>68.43</ele>
        <time>2019-05-19T12:25:03Z</time>
      </trkpt>
      <trkpt lat="44.74296" lon="-0.39427">
        <ele>68.44</ele>
        <time>2019-05-19T12:25:09Z</time>
      </trkpt>
      <trkpt lat="44.74267" lon="-0.39427">
        <ele>65.5</ele>
        <time>2019-05-19T12:25:16Z</time>
      </trkpt>
      <trkpt lat="44.7423" lon="-0.39435">
        <ele>64.71</ele>
        <time>2019-05-19T12:25:25Z</time>
      </trkpt>
      <trkpt lat="44.74217" lon="-0.39444">
        <ele>64.81</ele>
        <time>2019-05-19T12:25:28Z</time>
      </trkpt>
      <trkpt lat="44.74213" lon="-0.39456">
        <ele>63.54</ele>
        <time>2019-05-19T12:25:34Z</time>
      </trkpt>
      <trkpt lat="44.74213" lon="-0.39472">
        <ele>62.26</ele>
        <time>2019-05-19T12:25:41Z</time>
      </trkpt>
      <trkpt lat="44.74212" lon="-0.39488">
        <ele>60.71</ele>
        <time>2019-05-19T12:25:43Z</time>
      </trkpt>
      <trkpt lat="44.7421" lon="-0.39494">
        <ele>59.83</ele>
        <time>2019-05-19T12:25:45Z</time>
      </trkpt>
      <trkpt lat="44.74199" lon="-0.39519">
        <ele>56.25</ele>
        <time>2019-05-19T12:25:48Z</time>
      </trkpt>
      <trkpt lat="44.74193" lon="-0.39527">
        <ele>55.15</ele>
        <time>2019-05-19T12:25:50Z</time>
      </trkpt>
      <trkpt lat="44.74183" lon="-0.39525">
        <ele>53.92</ele>
        <time>2019-05-19T12:25:51Z</time>
      </trkpt>
      <trkpt lat="44.74175" lon="-0.39556">
        <ele>50.97</ele>
        <time>2019-05-19T12:25:53Z</time>
      </trkpt>
      <trkpt lat="44.74153" lon="-0.39564">
        <ele>47.01</ele>
        <time>2019-05-19T12:25:56Z</time>
      </trkpt>
      <trkpt lat="44.74137" lon="-0.39553">
        <ele>44.81</ele>
        <time>2019-05-19T12:26:03Z</time>
      </trkpt>
      <trkpt lat="44.74123" lon="-0.39544">
        <ele>43.96</ele>
        <time>2019-05-19T12:26:08Z</time>
      </trkpt>
      <trkpt lat="44.74099" lon="-0.3954">
        <ele>40.03</ele>
        <time>2019-05-19T12:26:13Z</time>
      </trkpt>
      <trkpt lat="44.74087" lon="-0.39546">
        <ele>39.06</ele>
        <time>2019-05-19T12:26:22Z</time>
      </trkpt>
      <trkpt lat="44.74079" lon="-0.39557">
        <ele>38.07</ele>
        <time>2019-05-19T12:26:28Z</time>
      </trkpt>
      <trkpt lat="44.74061" lon="-0.39591">
        <ele>33.19</ele>
        <time>2019-05-19T12:26:41Z</time>
      </trkpt>
      <trkpt lat="44.74055" lon="-0.39615">
        <ele>29.06</ele>
        <time>2019-05-19T12:26:43Z</time>
      </trkpt>
      <trkpt lat="44.7405" lon="-0.39622">
        <ele>27.91</ele>
        <time>2019-05-19T12:26:48Z</time>
      </trkpt>
      <trkpt lat="44.74047" lon="-0.39623">
        <ele>26.97</ele>
        <time>2019-05-19T12:26:50Z</time>
      </trkpt>
      <trkpt lat="44.74043" lon="-0.39602">
        <ele>26.63</ele>
        <time>2019-05-19T12:27:01Z</time>
      </trkpt>
      <trkpt lat="44.74039" lon="-0.39584">
        <ele>26.69</ele>
        <time>2019-05-19T12:27:14Z</time>
      </trkpt>
      <trkpt lat="44.74039" lon="-0.39576">
        <ele>26.73</ele>
        <time>2019-05-19T12:27:17Z</time>
      </trkpt>
      <trkpt lat="44.74039" lon="-0.3957">
        <ele>26.79</ele>
        <time>2019-05-19T12:27:21Z</time>
      </trkpt>
      <trkpt lat="44.74037" lon="-0.39565">
        <ele>26.8</ele>
        <time>2019-05-19T12:27:26Z</time>
      </trkpt>
      <trkpt lat="44.74024" lon="-0.39549">
        <ele>26.67</ele>
        <time>2019-05-19T12:27:37Z</time>
      </trkpt>
      <trkpt lat="44.74016" lon="-0.3954">
        <ele>26.68</ele>
        <time>2019-05-19T12:27:48Z</time>
      </trkpt>
      <trkpt lat="44.74013" lon="-0.3953">
        <ele>25.91</ele>
        <time>2019-05-19T12:27:51Z</time>
      </trkpt>
      <trkpt lat="44.74" lon="-0.39512">
        <ele>24.19</ele>
        <time>2019-05-19T12:28:01Z</time>
      </trkpt>
      <trkpt lat="44.73998" lon="-0.39512">
        <ele>24.18</ele>
        <time>2019-05-19T12:28:13Z</time>
      </trkpt>
      <trkpt lat="44.73987" lon="-0.3951">
        <ele>24.21</ele>
        <time>2019-05-19T12:28:24Z</time>
      </trkpt>
      <trkpt lat="44.73977" lon="-0.39495">
        <ele>24.21</ele>
        <time>2019-05-19T12:28:35Z</time>
      </trkpt>
      <trkpt lat="44.73977" lon="-0.39491">
        <ele>24.23</ele>
        <time>2019-05-19T12:28:42Z</time>
      </trkpt>
      <trkpt lat="44.73976" lon="-0.39494">
        <ele>24.19</ele>
        <time>2019-05-19T12:28:57Z</time>
      </trkpt>
      <trkpt lat="44.73975" lon="-0.39501">
        <ele>24.17</ele>
        <time>2019-05-19T12:29:07Z</time>
      </trkpt>
      <trkpt lat="44.73974" lon="-0.39513">
        <ele>24.22</ele>
        <time>2019-05-19T12:29:16Z</time>
      </trkpt>
      <trkpt lat="44.73966" lon="-0.39509">
        <ele>26.55</ele>
        <time>2019-05-19T12:29:28Z</time>
      </trkpt>
      <trkpt lat="44.73958" lon="-0.39507">
        <ele>27.36</ele>
        <time>2019-05-19T12:29:32Z</time>
      </trkpt>
      <trkpt lat="44.73941" lon="-0.39509">
        <ele>29.95</ele>
        <time>2019-05-19T12:29:35Z</time>
      </trkpt>
      <trkpt lat="44.73924" lon="-0.39511">
        <ele>32.76</ele>
        <time>2019-05-19T12:29:42Z</time>
      </trkpt>
      <trkpt lat="44.73913" lon="-0.39513">
        <ele>34.77</ele>
        <time>2019-05-19T12:29:53Z</time>
      </trkpt>
      <trkpt lat="44.73896" lon="-0.39517">
        <ele>37.29</ele>
        <time>2019-05-19T12:29:54Z</time>
      </trkpt>
      <trkpt lat="44.73893" lon="-0.39519">
        <ele>38.14</ele>
        <time>2019-05-19T12:29:55Z</time>
      </trkpt>
      <trkpt lat="44.73874" lon="-0.39524">
        <ele>39.82</ele>
        <time>2019-05-19T12:29:56Z</time>
      </trkpt>
      <trkpt lat="44.73855" lon="-0.39515">
        <ele>41.52</ele>
        <time>2019-05-19T12:30:05Z</time>
      </trkpt>
      <trkpt lat="44.73851" lon="-0.39501">
        <ele>45.34</ele>
        <time>2019-05-19T12:30:37Z</time>
      </trkpt>
      <trkpt lat="44.73851" lon="-0.395">
        <ele>46.39</ele>
        <time>2019-05-19T12:31:10Z</time>
      </trkpt>
      <trkpt lat="44.73846" lon="-0.39483">
        <ele>48.17</ele>
        <time>2019-05-19T12:31:50Z</time>
      </trkpt>
      <trkpt lat="44.73841" lon="-0.39465">
        <ele>51.18</ele>
        <time>2019-05-19T12:32:26Z</time>
      </trkpt>
      <trkpt lat="44.7384" lon="-0.39464">
        <ele>51.19</ele>
        <time>2019-05-19T12:32:28Z</time>
      </trkpt>
      <trkpt lat="44.73838" lon="-0.3946">
        <ele>52.29</ele>
        <time>2019-05-19T12:32:35Z</time>
      </trkpt>
      <trkpt lat="44.73833" lon="-0.39441">
        <ele>54.9</ele>
        <time>2019-05-19T12:32:36Z</time>
      </trkpt>
      <trkpt lat="44.73822" lon="-0.39415">
        <ele>56.53</ele>
        <time>2019-05-19T12:32:42Z</time>
      </trkpt>
      <trkpt lat="44.73816" lon="-0.39407">
        <ele>57.25</ele>
        <time>2019-05-19T12:32:53Z</time>
      </trkpt>
      <trkpt lat="44.73819" lon="-0.39398">
        <ele>57.24</ele>
        <time>2019-05-19T12:32:57Z</time>
      </trkpt>
      <trkpt lat="44.73814" lon="-0.39405">
        <ele>57.38</ele>
        <time>2019-05-19T12:32:59Z</time>
      </trkpt>
      <trkpt lat="44.73812" lon="-0.39403">
        <ele>57.64</ele>
        <time>2019-05-19T12:33:01Z</time>
      </trkpt>
      <trkpt lat="44.73808" lon="-0.39405">
        <ele>57.79</ele>
        <time>2019-05-19T12:33:03Z</time>
      </trkpt>
      <trkpt lat="44.73792" lon="-0.39415">
        <ele>58.7</ele>
        <time>2019-05-19T12:33:04Z</time>
      </trkpt>
      <trkpt lat="44.73784" lon="-0.39423">
        <ele>59.57</ele>
        <time>2019-05-19T12:33:07Z</time>
      </trkpt>
      <trkpt lat="44.73766" lon="-0.39435">
        <ele>62.04</ele>
        <time>2019-05-19T12:33:09Z</time>
      </trkpt>
      <trkpt lat="44.73745" lon="-0.39445">
        <ele>63.81</ele>
        <time>2019-05-19T12:33:12Z</time>
      </trkpt>
      <trkpt lat="44.7372" lon="-0.39454">
        <ele>65.48</ele>
        <time>2019-05-19T12:33:18Z</time>
      </trkpt>
      <trkpt lat="44.73687" lon="-0.39473">
        <ele>67.28</ele>
        <time>2019-05-19T12:33:22Z</time>
      </trkpt>
      <trkpt lat="44.7366" lon="-0.39488">
        <ele>68.17</ele>
        <time>2019-05-19T12:33:25Z</time>
      </trkpt>
      <trkpt lat="44.73633" lon="-0.39503">
        <ele>68.21</ele>
        <time>2019-05-19T12:33:28Z</time>
      </trkpt>
      <trkpt lat="44.73632" lon="-0.39505">
        <ele>68.22</ele>
        <time>2019-05-19T12:33:32Z</time>
      </trkpt>
      <trkpt lat="44.73631" lon="-0.39507">
        <ele>68.23</ele>
        <time>2019-05-19T12:33:34Z</time>
      </trkpt>
      <trkpt lat="44.73631" lon="-0.39509">
        <ele>68.22</ele>
        <time>2019-05-19T12:33:36Z</time>
      </trkpt>
      <trkpt lat="44.7363" lon="-0.39512">
        <ele>68.23</ele>
        <time>2019-05-19T12:33:41Z</time>
      </trkpt>
      <trkpt lat="44.7363" lon="-0.39554">
        <ele>68.7</ele>
        <time>2019-05-19T12:33:44Z</time>
      </trkpt>
      <trkpt lat="44.7363" lon="-0.39607">
        <ele>69.87</ele>
        <time>2019-05-19T12:33:46Z</time>
      </trkpt>
      <trkpt lat="44.73646" lon="-0.39667">
        <ele>69.92</ele>
        <time>2019-05-19T12:33:49Z</time>
      </trkpt>
      <trkpt lat="44.73671" lon="-0.3973">
        <ele>69.95</ele>
        <time>2019-05-19T12:33:58Z</time>
      </trkpt>
      <trkpt lat="44.73695" lon="-0.39799">
        <ele>69.97</ele>
        <time>2019-05-19T12:34:03Z</time>
      </trkpt>
      <trkpt lat="44.73703" lon="-0.39885">
        <ele>69.99</ele>
        <time>2019-05-19T12:34:06Z</time>
      </trkpt>
      <trkpt lat="44.73711" lon="-0.39993">
        <ele>70.05</ele>
        <time>2019-05-19T12:34:08Z</time>
      </trkpt>
      <trkpt lat="44.73713" lon="-0.40109">
        <ele>70.08</ele>
        <time>2019-05-19T12:34:11Z</time>
      </trkpt>
      <trkpt lat="44.73707" lon="-0.40194">
        <ele>70.87</ele>
        <time>2019-05-19T12:34:26Z</time>
      </trkpt>
      <trkpt lat="44.73699" lon="-0.40324">
        <ele>70.89</ele>
        <time>2019-05-19T12:34:49Z</time>
      </trkpt>
      <trkpt lat="44.73674" lon="-0.40468">
        <ele>71.74</ele>
        <time>2019-05-19T12:34:55Z</time>
      </trkpt>
      <trkpt lat="44.73654" lon="-0.40539">
        <ele>71.75</ele>
        <time>2019-05-19T12:35:05Z</time>
      </trkpt>
      <trkpt lat="44.73655" lon="-0.40544">
        <ele>71.75</ele>
        <time>2019-05-19T12:35:06Z</time>
      </trkpt>
      <trkpt lat="44.73658" lon="-0.40547">
        <ele>72.58</ele>
        <time>2019-05-19T12:35:19Z</time>
      </trkpt>
      <trkpt lat="44.73661" lon="-0.40548">
        <ele>72.59</ele>
        <time>2019-05-19T12:35:32Z</time>
      </trkpt>
      <trkpt lat="44.73665" lon="-0.40548">
        <ele>72.59</ele>
        <time>2019-05-19T12:35:38Z</time>
      </trkpt>
      <trkpt lat="44.73669" lon="-0.40548">
        <ele>72.6</ele>
        <time>2019-05-19T12:35:46Z</time>
      </trkpt>
      <trkpt lat="44.73702" lon="-0.40557">
        <ele>72.61</ele>
        <time>2019-05-19T12:35:50Z</time>
      </trkpt>
      <trkpt lat="44.73706" lon="-0.40557">
        <ele>72.61</ele>
        <time>2019-05-19T12:36:02Z</time>
      </trkpt>
      <trkpt lat="44.7371" lon="-0.40559">
        <ele>72.61</ele>
        <time>2019-05-19T12:36:14Z</time>
      </trkpt>
      <trkpt lat="44.73728" lon="-0.40561">
        <ele>72.6</ele>
        <time>2019-05-19T12:36:18Z</time>
      </trkpt>
      <trkpt lat="44.73732" lon="-0.4056">
        <ele>72.6</ele>
        <time>2019-05-19T12:36:28Z</time>
      </trkpt>
      <trkpt lat="44.73749" lon="-0.40555">
        <ele>72.59</ele>
        <time>2019-05-19T12:36:39Z</time>
      </trkpt>
      <trkpt lat="44.73787" lon="-0.40534">
        <ele>72.61</ele>
        <time>2019-05-19T12:36:47Z</time>
      </trkpt>
      <trkpt lat="44.73799" lon="-0.4051">
        <ele>72.61</ele>
        <time>2019-05-19T12:37:00Z</time>
      </trkpt>
      <trkpt lat="44.73802" lon="-0.40505">
        <ele>72.61</ele>
        <time>2019-05-19T12:37:02Z</time>
      </trkpt>
      <trkpt lat="44.73804" lon="-0.405">
        <ele>72.62</ele>
        <time>2019-05-19T12:37:15Z</time>
      </trkpt>
      <trkpt lat="44.73807" lon="-0.40495">
        <ele>72.62</ele>
        <time>2019-05-19T12:37:29Z</time>
      </trkpt>
      <trkpt lat="44.73809" lon="-0.40491">
        <ele>72.62</ele>
        <time>2019-05-19T12:37:37Z</time>
      </trkpt>
      <trkpt lat="44.73812" lon="-0.40486">
        <ele>72.62</ele>
        <time>2019-05-19T12:37:39Z</time>
      </trkpt>
      <trkpt lat="44.73816" lon="-0.40482">
        <ele>72.62</ele>
        <time>2019-05-19T12:37:59Z</time>
      </trkpt>
      <trkpt lat="44.73819" lon="-0.40479">
        <ele>72.62</ele>
        <time>2019-05-19T12:38:15Z</time>
      </trkpt>
      <trkpt lat="44.73823" lon="-0.40475">
        <ele>70.3</ele>
        <time>2019-05-19T12:38:16Z</time>
      </trkpt>
      <trkpt lat="44.73827" lon="-0.40471">
        <ele>70.3</ele>
        <time>2019-05-19T12:38:19Z</time>
      </trkpt>
      <trkpt lat="44.7383" lon="-0.40468">
        <ele>70.31</ele>
        <time>2019-05-19T12:38:32Z</time>
      </trkpt>
      <trkpt lat="44.73834" lon="-0.40463">
        <ele>70.3</ele>
        <time>2019-05-19T12:38:51Z</time>
      </trkpt>
      <trkpt lat="44.73837" lon="-0.40459">
        <ele>70.32</ele>
        <time>2019-05-19T12:39:07Z</time>
      </trkpt>
      <trkpt lat="44.73839" lon="-0.40455">
        <ele>70.32</ele>
        <time>2019-05-19T12:39:33Z</time>
      </trkpt>
      <trkpt lat="44.7387" lon="-0.40418">
        <ele>69.64</ele>
        <time>2019-05-19T12:40:14Z</time>
      </trkpt>
      <trkpt lat="44.73902" lon="-0.40406">
        <ele>69.76</ele>
        <time>2019-05-19T12:41:00Z</time>
      </trkpt>
      <trkpt lat="44.73912" lon="-0.40407">
        <ele>69.79</ele>
        <time>2019-05-19T12:41:21Z</time>
      </trkpt>
      <trkpt lat="44.73915" lon="-0.40409">
        <ele>69.8</ele>
        <time>2019-05-19T12:41:34Z</time>
      </trkpt>
      <trkpt lat="44.73917" lon="-0.40413">
        <ele>69.8</ele>
        <time>2019-05-19T12:41:42Z</time>
      </trkpt>
      <trkpt lat="44.73919" lon="-0.40416">
        <ele>69.81</ele>
        <time>2019-05-19T12:41:54Z</time>
      </trkpt>
      <trkpt lat="44.73921" lon="-0.4042">
        <ele>69.81</ele>
        <time>2019-05-19T12:42:07Z</time>
      </trkpt>
      <trkpt lat="44.73936" lon="-0.40468">
        <ele>69.87</ele>
        <time>2019-05-19T12:42:21Z</time>
      </trkpt>
      <trkpt lat="44.73941" lon="-0.40479">
        <ele>69.88</ele>
        <time>2019-05-19T12:42:39Z</time>
      </trkpt>
      <trkpt lat="44.73949" lon="-0.40493">
        <ele>69.91</ele>
        <time>2019-05-19T12:42:52Z</time>
      </trkpt>
      <trkpt lat="44.73956" lon="-0.40507">
        <ele>69.92</ele>
        <time>2019-05-19T12:43:05Z</time>
      </trkpt>
      <trkpt lat="44.73977" lon="-0.40522">
        <ele>69.11</ele>
        <time>2019-05-19T12:43:06Z</time>
      </trkpt>
      <trkpt lat="44.73989" lon="-0.40534">
        <ele>68.07</ele>
        <time>2019-05-19T12:43:07Z</time>
      </trkpt>
      <trkpt lat="44.73996" lon="-0.40526">
        <ele>68.06</ele>
        <time>2019-05-19T12:43:08Z</time>
      </trkpt>
      <trkpt lat="44.74009" lon="-0.4052">
        <ele>68.04</ele>
        <time>2019-05-19T12:43:09Z</time>
      </trkpt>
      <trkpt lat="44.74038" lon="-0.40511">
        <ele>66.21</ele>
        <time>2019-05-19T12:43:25Z</time>
      </trkpt>
      <trkpt lat="44.74045" lon="-0.40509">
        <ele>65.21</ele>
        <time>2019-05-19T12:43:44Z</time>
      </trkpt>
      <trkpt lat="44.74073" lon="-0.40496">
        <ele>63.01</ele>
        <time>2019-05-19T12:44:04Z</time>
      </trkpt>
      <trkpt lat="44.74093" lon="-0.40501">
        <ele>61.3</ele>
        <time>2019-05-19T12:44:22Z</time>
      </trkpt>
      <trkpt lat="44.74094" lon="-0.40504">
        <ele>60.37</ele>
        <time>2019-05-19T12:44:39Z</time>
      </trkpt>
      <trkpt lat="44.74101" lon="-0.4051">
        <ele>59.5</ele>
        <time>2019-05-19T12:44:57Z</time>
      </trkpt>
      <trkpt lat="44.74109" lon="-0.40525">
        <ele>55.9</ele>
        <time>2019-05-19T12:45:19Z</time>
      </trkpt>
      <trkpt lat="44.7411" lon="-0.40528">
        <ele>55.89</ele>
        <time>2019-05-19T12:45:41Z</time>
      </trkpt>
      <trkpt lat="44.74125" lon="-0.40522">
        <ele>52.98</ele>
        <time>2019-05-19T12:45:58Z</time>
      </trkpt>
      <trkpt lat="44.74147" lon="-0.40513">
        <ele>49.22</ele>
        <time>2019-05-19T12:46:21Z</time>
      </trkpt>
      <trkpt lat="44.74165" lon="-0.40495">
        <ele>46.55</ele>
        <time>2019-05-19T12:46:46Z</time>
      </trkpt>
      <trkpt lat="44.74167" lon="-0.4049">
        <ele>46.23</ele>
        <time>2019-05-19T12:46:59Z</time>
      </trkpt>
      <trkpt lat="44.74175" lon="-0.40477">
        <ele>46.55</ele>
        <time>2019-05-19T12:47:00Z</time>
      </trkpt>
      <trkpt lat="44.74178" lon="-0.4047">
        <ele>45.6</ele>
        <time>2019-05-19T12:47:01Z</time>
      </trkpt>
      <trkpt lat="44.74174" lon="-0.40458">
        <ele>47.88</ele>
        <time>2019-05-19T12:47:02Z</time>
      </trkpt>
      <trkpt lat="44.74171" lon="-0.40457">
        <ele>48.66</ele>
        <time>2019-05-19T12:47:03Z</time>
      </trkpt>
      <trkpt lat="44.74165" lon="-0.40462">
        <ele>51.68</ele>
        <time>2019-05-19T12:47:04Z</time>
      </trkpt>
      <trkpt lat="44.7415" lon="-0.40471">
        <ele>54.25</ele>
        <time>2019-05-19T12:47:12Z</time>
      </trkpt>
      <trkpt lat="44.74134" lon="-0.40477">
        <ele>56.88</ele>
        <time>2019-05-19T12:47:13Z</time>
      </trkpt>
      <trkpt lat="44.74127" lon="-0.40466">
        <ele>57.65</ele>
        <time>2019-05-19T12:47:14Z</time>
      </trkpt>
      <trkpt lat="44.74117" lon="-0.40455">
        <ele>58.46</ele>
        <time>2019-05-19T12:47:18Z</time>
      </trkpt>
      <trkpt lat="44.74108" lon="-0.40446">
        <ele>59.21</ele>
        <time>2019-05-19T12:47:19Z</time>
      </trkpt>
      <trkpt lat="44.74104" lon="-0.40434">
        <ele>59.2</ele>
        <time>2019-05-19T12:47:23Z</time>
      </trkpt>
      <trkpt lat="44.74086" lon="-0.40418">
        <ele>59.15</ele>
        <time>2019-05-19T12:47:33Z</time>
      </trkpt>
      <trkpt lat="44.74078" lon="-0.40406">
        <ele>59.12</ele>
        <time>2019-05-19T12:47:38Z</time>
      </trkpt>
      <trkpt lat="44.74059" lon="-0.40389">
        <ele>60.59</ele>
        <time>2019-05-19T12:47:39Z</time>
      </trkpt>
      <trkpt lat="44.74041" lon="-0.40383">
        <ele>63.14</ele>
        <time>2019-05-19T12:47:40Z</time>
      </trkpt>
      <trkpt lat="44.74038" lon="-0.40368">
        <ele>63.69</ele>
        <time>2019-05-19T12:47:41Z</time>
      </trkpt>
      <trkpt lat="44.74039" lon="-0.40351">
        <ele>63.61</ele>
        <time>2019-05-19T12:47:42Z</time>
      </trkpt>
      <trkpt lat="44.74037" lon="-0.40343">
        <ele>64.35</ele>
        <time>2019-05-19T12:47:43Z</time>
      </trkpt>
      <trkpt lat="44.74036" lon="-0.40335">
        <ele>64.1</ele>
        <time>2019-05-19T12:47:44Z</time>
      </trkpt>
      <trkpt lat="44.7404" lon="-0.40324">
        <ele>64.14</ele>
        <time>2019-05-19T12:47:45Z</time>
      </trkpt>
      <trkpt lat="44.74035" lon="-0.40326">
        <ele>64.3</ele>
        <time>2019-05-19T12:47:46Z</time>
      </trkpt>
      <trkpt lat="44.74029" lon="-0.40313">
        <ele>64.32</ele>
        <time>2019-05-19T12:47:47Z</time>
      </trkpt>
      <trkpt lat="44.7402" lon="-0.40291">
        <ele>64.33</ele>
        <time>2019-05-19T12:47:48Z</time>
      </trkpt>
      <trkpt lat="44.74014" lon="-0.4028">
        <ele>64.3</ele>
        <time>2019-05-19T12:47:49Z</time>
      </trkpt>
      <trkpt lat="44.74017" lon="-0.40279">
        <ele>64.27</ele>
        <time>2019-05-19T12:47:50Z</time>
      </trkpt>
      <trkpt lat="44.74028" lon="-0.40272">
        <ele>64.24</ele>
        <time>2019-05-19T12:47:51Z</time>
      </trkpt>
      <trkpt lat="44.74031" lon="-0.40259">
        <ele>61.77</ele>
        <time>2019-05-19T12:48:01Z</time>
      </trkpt>
      <trkpt lat="44.74036" lon="-0.40216">
        <ele>59.04</ele>
        <time>2019-05-19T12:48:13Z</time>
      </trkpt>
      <trkpt lat="44.74038" lon="-0.40204">
        <ele>58.24</ele>
        <time>2019-05-19T12:48:17Z</time>
      </trkpt>
      <trkpt lat="44.7404" lon="-0.40187">
        <ele>57.28</ele>
        <time>2019-05-19T12:48:18Z</time>
      </trkpt>
      <trkpt lat="44.74041" lon="-0.4018">
        <ele>56.2</ele>
        <time>2019-05-19T12:48:19Z</time>
      </trkpt>
      <trkpt lat="44.74054" lon="-0.40141">
        <ele>52.38</ele>
        <time>2019-05-19T12:48:20Z</time>
      </trkpt>
      <trkpt lat="44.74058" lon="-0.40127">
        <ele>51.23</ele>
        <time>2019-05-19T12:48:21Z</time>
      </trkpt>
      <trkpt lat="44.7407" lon="-0.40107">
        <ele>47.73</ele>
        <time>2019-05-19T12:48:33Z</time>
      </trkpt>
      <trkpt lat="44.74071" lon="-0.40104">
        <ele>47.77</ele>
        <time>2019-05-19T12:48:36Z</time>
      </trkpt>
      <trkpt lat="44.74073" lon="-0.40099">
        <ele>46.91</ele>
        <time>2019-05-19T12:48:41Z</time>
      </trkpt>
      <trkpt lat="44.74078" lon="-0.40086">
        <ele>44.69</ele>
        <time>2019-05-19T12:48:45Z</time>
      </trkpt>
      <trkpt lat="44.74079" lon="-0.40078">
        <ele>43.31</ele>
        <time>2019-05-19T12:48:54Z</time>
      </trkpt>
      <trkpt lat="44.7408" lon="-0.4007">
        <ele>41.57</ele>
        <time>2019-05-19T12:49:00Z</time>
      </trkpt>
      <trkpt lat="44.74081" lon="-0.4006">
        <ele>40.24</ele>
        <time>2019-05-19T12:49:05Z</time>
      </trkpt>
      <trkpt lat="44.74081" lon="-0.40056">
        <ele>38.84</ele>
        <time>2019-05-19T12:49:10Z</time>
      </trkpt>
      <trkpt lat="44.74077" lon="-0.40036">
        <ele>36.61</ele>
        <time>2019-05-19T12:49:21Z</time>
      </trkpt>
      <trkpt lat="44.74073" lon="-0.4002">
        <ele>34.73</ele>
        <time>2019-05-19T12:49:23Z</time>
      </trkpt>
      <trkpt lat="44.74074" lon="-0.40005">
        <ele>33.85</ele>
        <time>2019-05-19T12:49:33Z</time>
      </trkpt>
      <trkpt lat="44.74078" lon="-0.39971">
        <ele>31.08</ele>
        <time>2019-05-19T12:49:41Z</time>
      </trkpt>
      <trkpt lat="44.74074" lon="-0.39951">
        <ele>29.04</ele>
        <time>2019-05-19T12:49:42Z</time>
      </trkpt>
      <trkpt lat="44.74076" lon="-0.39938">
        <ele>28.95</ele>
        <time>2019-05-19T12:49:45Z</time>
      </trkpt>
      <trkpt lat="44.74069" lon="-0.39919">
        <ele>28.82</ele>
        <time>2019-05-19T12:49:50Z</time>
      </trkpt>
      <trkpt lat="44.74057" lon="-0.39901">
        <ele>28.69</ele>
        <time>2019-05-19T12:49:51Z</time>
      </trkpt>
      <trkpt lat="44.74055" lon="-0.399">
        <ele>28.68</ele>
        <time>2019-05-19T12:49:59Z</time>
      </trkpt>
      <trkpt lat="44.7405" lon="-0.39892">
        <ele>27.86</ele>
        <time>2019-05-19T12:50:08Z</time>
      </trkpt>
      <trkpt lat="44.74045" lon="-0.39869">
        <ele>27.75</ele>
        <time>2019-05-19T12:50:18Z</time>
      </trkpt>
      <trkpt lat="44.74044" lon="-0.39861">
        <ele>27.67</ele>
        <time>2019-05-19T12:50:20Z</time>
      </trkpt>
      <trkpt lat="44.74038" lon="-0.39832">
        <ele>26.73</ele>
        <time>2019-05-19T12:50:25Z</time>
      </trkpt>
      <trkpt lat="44.74044" lon="-0.39817">
        <ele>26.57</ele>
        <time>2019-05-19T12:50:27Z</time>
      </trkpt>
      <trkpt lat="44.74039" lon="-0.3982">
        <ele>26.43</ele>
        <time>2019-05-19T12:50:35Z</time>
      </trkpt>
      <trkpt lat="44.74034" lon="-0.39818">
        <ele>24.56</ele>
        <time>2019-05-19T12:50:38Z</time>
      </trkpt>
      <trkpt lat="44.74026" lon="-0.39813">
        <ele>24.55</ele>
        <time>2019-05-19T12:50:46Z</time>
      </trkpt>
      <trkpt lat="44.74025" lon="-0.39797">
        <ele>24.66</ele>
        <time>2019-05-19T12:51:00Z</time>
      </trkpt>
      <trkpt lat="44.74024" lon="-0.39793">
        <ele>24.57</ele>
        <time>2019-05-19T12:51:12Z</time>
      </trkpt>
      <trkpt lat="44.74024" lon="-0.39787">
        <ele>24.55</ele>
        <time>2019-05-19T12:51:20Z</time>
      </trkpt>
      <trkpt lat="44.74021" lon="-0.39778">
        <ele>24.54</ele>
        <time>2019-05-19T12:51:29Z</time>
      </trkpt>
      <trkpt lat="44.74018" lon="-0.39768">
        <ele>24.57</ele>
        <time>2019-05-19T12:51:37Z</time>
      </trkpt>
      <trkpt lat="44.74015" lon="-0.39768">
        <ele>24.59</ele>
        <time>2019-05-19T12:51:42Z</time>
      </trkpt>
      <trkpt lat="44.7401" lon="-0.39769">
        <ele>26.97</ele>
        <time>2019-05-19T12:51:53Z</time>
      </trkpt>
      <trkpt lat="44.74007" lon="-0.39769">
        <ele>26.92</ele>
        <time>2019-05-19T12:51:59Z</time>
      </trkpt>
      <trkpt lat="44.73997" lon="-0.39772">
        <ele>27.91</ele>
        <time>2019-05-19T12:52:12Z</time>
      </trkpt>
      <trkpt lat="44.73989" lon="-0.39772">
        <ele>30.53</ele>
        <time>2019-05-19T12:52:24Z</time>
      </trkpt>
      <trkpt lat="44.73979" lon="-0.39771">
        <ele>32.36</ele>
        <time>2019-05-19T12:52:32Z</time>
      </trkpt>
      <trkpt lat="44.73966" lon="-0.39775">
        <ele>35.02</ele>
        <time>2019-05-19T12:52:40Z</time>
      </trkpt>
      <trkpt lat="44.73967" lon="-0.39778">
        <ele>35.01</ele>
        <time>2019-05-19T12:52:44Z</time>
      </trkpt>
      <trkpt lat="44.73967" lon="-0.3979">
        <ele>36.09</ele>
        <time>2019-05-19T12:53:18Z</time>
      </trkpt>
      <trkpt lat="44.73967" lon="-0.39798">
        <ele>38.42</ele>
        <time>2019-05-19T12:54:03Z</time>
      </trkpt>
      <trkpt lat="44.73968" lon="-0.39802">
        <ele>39.47</ele>
        <time>2019-05-19T12:54:45Z</time>
      </trkpt>
      <trkpt lat="44.73971" lon="-0.39815">
        <ele>42.24</ele>
        <time>2019-05-19T12:54:53Z</time>
      </trkpt>
      <trkpt lat="44.73973" lon="-0.39839">
        <ele>45.42</ele>
        <time>2019-05-19T12:55:05Z</time>
      </trkpt>
      <trkpt lat="44.73973" lon="-0.39846">
        <ele>45.4</ele>
        <time>2019-05-19T12:55:15Z</time>
      </trkpt>
      <trkpt lat="44.73975" lon="-0.39859">
        <ele>46.13</ele>
        <time>2019-05-19T12:55:25Z</time>
      </trkpt>
      <trkpt lat="44.73985" lon="-0.39885">
        <ele>46.76</ele>
        <time>2019-05-19T12:55:33Z</time>
      </trkpt>
      <trkpt lat="44.73987" lon="-0.39889">
        <ele>46.71</ele>
        <time>2019-05-19T12:55:38Z</time>
      </trkpt>
      <trkpt lat="44.73991" lon="-0.39889">
        <ele>46.67</ele>
        <time>2019-05-19T12:55:49Z</time>
      </trkpt>
      <trkpt lat="44.73986" lon="-0.39896">
        <ele>46.74</ele>
        <time>2019-05-19T12:55:52Z</time>
      </trkpt>
      <trkpt lat="44.73987" lon="-0.39895">
        <ele>46.85</ele>
        <time>2019-05-19T12:55:56Z</time>
      </trkpt>
      <trkpt lat="44.73987" lon="-0.39901">
        <ele>46.9</ele>
        <time>2019-05-19T12:55:58Z</time>
      </trkpt>
      <trkpt lat="44.73988" lon="-0.39908">
        <ele>46.92</ele>
        <time>2019-05-19T12:56:07Z</time>
      </trkpt>
      <trkpt lat="44.73994" lon="-0.39919">
        <ele>46.91</ele>
        <time>2019-05-19T12:56:10Z</time>
      </trkpt>
      <trkpt lat="44.74" lon="-0.39934">
        <ele>46.95</ele>
        <time>2019-05-19T12:56:15Z</time>
      </trkpt>
      <trkpt lat="44.7401" lon="-0.39971">
        <ele>47.71</ele>
        <time>2019-05-19T12:56:16Z</time>
      </trkpt>
      <trkpt lat="44.74018" lon="-0.39983">
        <ele>44.41</ele>
        <time>2019-05-19T12:56:18Z</time>
      </trkpt>
      <trkpt lat="44.74026" lon="-0.39993">
        <ele>40.59</ele>
        <time>2019-05-19T12:56:23Z</time>
      </trkpt>
      <trkpt lat="44.74029" lon="-0.40003">
        <ele>37.13</ele>
        <time>2019-05-19T12:56:25Z</time>
      </trkpt>
      <trkpt lat="44.74034" lon="-0.40001">
        <ele>35.76</ele>
        <time>2019-05-19T12:56:27Z</time>
      </trkpt>
      <trkpt lat="44.74041" lon="-0.39996">
        <ele>33.99</ele>
        <time>2019-05-19T12:56:29Z</time>
      </trkpt>
      <trkpt lat="44.74046" lon="-0.39992">
        <ele>32.62</ele>
        <time>2019-05-19T12:56:30Z</time>
      </trkpt>
      <trkpt lat="44.74062" lon="-0.3999">
        <ele>30.9</ele>
        <time>2019-05-19T12:56:34Z</time>
      </trkpt>
      <trkpt lat="44.74071" lon="-0.39999">
        <ele>31.24</ele>
        <time>2019-05-19T12:56:37Z</time>
      </trkpt>
      <trkpt lat="44.74074" lon="-0.40007">
        <ele>33.77</ele>
        <time>2019-05-19T12:56:43Z</time>
      </trkpt>
      <trkpt lat="44.74081" lon="-0.40029">
        <ele>36.85</ele>
        <time>2019-05-19T12:56:55Z</time>
      </trkpt>
      <trkpt lat="44.74083" lon="-0.40036">
        <ele>37.69</ele>
        <time>2019-05-19T12:57:03Z</time>
      </trkpt>
      <trkpt lat="44.74083" lon="-0.40041">
        <ele>37.66</ele>
        <time>2019-05-19T12:57:11Z</time>
      </trkpt>
      <trkpt lat="44.74087" lon="-0.40059">
        <ele>41.14</ele>
        <time>2019-05-19T12:57:20Z</time>
      </trkpt>
      <trkpt lat="44.74086" lon="-0.40068">
        <ele>41.94</ele>
        <time>2019-05-19T12:57:30Z</time>
      </trkpt>
      <trkpt lat="44.74082" lon="-0.40076">
        <ele>43.11</ele>
        <time>2019-05-19T12:57:31Z</time>
      </trkpt>
      <trkpt lat="44.74078" lon="-0.40085">
        <ele>43.92</ele>
        <time>2019-05-19T12:57:35Z</time>
      </trkpt>
      <trkpt lat="44.74064" lon="-0.40106">
        <ele>48.65</ele>
        <time>2019-05-19T12:57:45Z</time>
      </trkpt>
      <trkpt lat="44.74061" lon="-0.40112">
        <ele>49.44</ele>
        <time>2019-05-19T12:57:49Z</time>
      </trkpt>
      <trkpt lat="44.74049" lon="-0.40134">
        <ele>51.9</ele>
        <time>2019-05-19T12:57:59Z</time>
      </trkpt>
      <trkpt lat="44.74045" lon="-0.40148">
        <ele>52.66</ele>
        <time>2019-05-19T12:58:15Z</time>
      </trkpt>
      <trkpt lat="44.74042" lon="-0.40178">
        <ele>54.39</ele>
        <time>2019-05-19T12:58:30Z</time>
      </trkpt>
      <trkpt lat="44.74039" lon="-0.40208">
        <ele>57.1</ele>
        <time>2019-05-19T12:58:50Z</time>
      </trkpt>
      <trkpt lat="44.74037" lon="-0.40219">
        <ele>57.13</ele>
        <time>2019-05-19T12:59:09Z</time>
      </trkpt>
      <trkpt lat="44.74036" lon="-0.40229">
        <ele>57.12</ele>
        <time>2019-05-19T12:59:23Z</time>
      </trkpt>
      <trkpt lat="44.74036" lon="-0.4024">
        <ele>58.04</ele>
        <time>2019-05-19T12:59:25Z</time>
      </trkpt>
      <trkpt lat="44.74038" lon="-0.4026">
        <ele>59.72</ele>
        <time>2019-05-19T12:59:28Z</time>
      </trkpt>
      <trkpt lat="44.7404" lon="-0.40271">
        <ele>60.53</ele>
        <time>2019-05-19T12:59:32Z</time>
      </trkpt>
      <trkpt lat="44.74042" lon="-0.40296">
        <ele>61.36</ele>
        <time>2019-05-19T12:59:37Z</time>
      </trkpt>
      <trkpt lat="44.74044" lon="-0.40306">
        <ele>61.33</ele>
        <time>2019-05-19T12:59:40Z</time>
      </trkpt>
      <trkpt lat="44.74045" lon="-0.4031">
        <ele>61.34</ele>
        <time>2019-05-19T12:59:43Z</time>
      </trkpt>
      <trkpt lat="44.74046" lon="-0.40317">
        <ele>61.35</ele>
        <time>2019-05-19T12:59:45Z</time>
      </trkpt>
      <trkpt lat="44.74048" lon="-0.40341">
        <ele>61.41</ele>
        <time>2019-05-19T12:59:50Z</time>
      </trkpt>
      <trkpt lat="44.74046" lon="-0.40356">
        <ele>61.46</ele>
        <time>2019-05-19T12:59:55Z</time>
      </trkpt>
      <trkpt lat="44.7404" lon="-0.40364">
        <ele>61.49</ele>
        <time>2019-05-19T13:00:00Z</time>
      </trkpt>
      <trkpt lat="44.74027" lon="-0.40375">
        <ele>61.62</ele>
        <time>2019-05-19T13:00:11Z</time>
      </trkpt>
      <trkpt lat="44.74005" lon="-0.40382">
        <ele>62.69</ele>
        <time>2019-05-19T13:00:13Z</time>
      </trkpt>
      <trkpt lat="44.73988" lon="-0.40393">
        <ele>62.69</ele>
        <time>2019-05-19T13:00:18Z</time>
      </trkpt>
      <trkpt lat="44.73986" lon="-0.40394">
        <ele>63.51</ele>
        <time>2019-05-19T13:00:22Z</time>
      </trkpt>
      <trkpt lat="44.73985" lon="-0.40395">
        <ele>63.51</ele>
        <time>2019-05-19T13:00:24Z</time>
      </trkpt>
      <trkpt lat="44.73983" lon="-0.40396">
        <ele>63.52</ele>
        <time>2019-05-19T13:00:30Z</time>
      </trkpt>
      <trkpt lat="44.73981" lon="-0.40397">
        <ele>63.53</ele>
        <time>2019-05-19T13:00:41Z</time>
      </trkpt>
      <trkpt lat="44.73979" lon="-0.40397">
        <ele>63.54</ele>
        <time>2019-05-19T13:00:44Z</time>
      </trkpt>
      <trkpt lat="44.73977" lon="-0.40398">
        <ele>64.3</ele>
        <time>2019-05-19T13:00:50Z</time>
      </trkpt>
      <trkpt lat="44.73975" lon="-0.40399">
        <ele>64.31</ele>
        <time>2019-05-19T13:01:04Z</time>
      </trkpt>
      <trkpt lat="44.73973" lon="-0.404">
        <ele>64.32</ele>
        <time>2019-05-19T13:01:06Z</time>
      </trkpt>
      <trkpt lat="44.73971" lon="-0.40401">
        <ele>64.33</ele>
        <time>2019-05-19T13:01:41Z</time>
      </trkpt>
      <trkpt lat="44.73969" lon="-0.40401">
        <ele>64.35</ele>
        <time>2019-05-19T13:02:21Z</time>
      </trkpt>
      <trkpt lat="44.73966" lon="-0.40402">
        <ele>64.35</ele>
        <time>2019-05-19T13:03:01Z</time>
      </trkpt>
      <trkpt lat="44.73934" lon="-0.40402">
        <ele>66.08</ele>
        <time>2019-05-19T13:03:12Z</time>
      </trkpt>
      <trkpt lat="44.73908" lon="-0.40405">
        <ele>66.08</ele>
        <time>2019-05-19T13:03:16Z</time>
      </trkpt>
      <trkpt lat="44.73896" lon="-0.40407">
        <ele>66.1</ele>
        <time>2019-05-19T13:03:21Z</time>
      </trkpt>
      <trkpt lat="44.73894" lon="-0.40407">
        <ele>66.1</ele>
        <time>2019-05-19T13:03:27Z</time>
      </trkpt>
      <trkpt lat="44.73892" lon="-0.40407">
        <ele>66.11</ele>
        <time>2019-05-19T13:03:39Z</time>
      </trkpt>
      <trkpt lat="44.73867" lon="-0.40423">
        <ele>66.18</ele>
        <time>2019-05-19T13:03:43Z</time>
      </trkpt>
      <trkpt lat="44.73852" lon="-0.40439">
        <ele>66.23</ele>
        <time>2019-05-19T13:03:46Z</time>
      </trkpt>
      <trkpt lat="44.73831" lon="-0.40468">
        <ele>67.15</ele>
        <time>2019-05-19T13:03:50Z</time>
      </trkpt>
      <trkpt lat="44.7381" lon="-0.40495">
        <ele>67.25</ele>
        <time>2019-05-19T13:03:52Z</time>
      </trkpt>
      <trkpt lat="44.73801" lon="-0.40518">
        <ele>68.13</ele>
        <time>2019-05-19T13:03:54Z</time>
      </trkpt>
      <trkpt lat="44.738" lon="-0.4052">
        <ele>68.15</ele>
        <time>2019-05-19T13:03:56Z</time>
      </trkpt>
      <trkpt lat="44.73794" lon="-0.40532">
        <ele>68.2</ele>
        <time>2019-05-19T13:04:03Z</time>
      </trkpt>
      <trkpt lat="44.73792" lon="-0.40534">
        <ele>68.2</ele>
        <time>2019-05-19T13:04:08Z</time>
      </trkpt>
      <trkpt lat="44.7379" lon="-0.40536">
        <ele>68.21</ele>
        <time>2019-05-19T13:04:11Z</time>
      </trkpt>
      <trkpt lat="44.73788" lon="-0.40538">
        <ele>68.22</ele>
        <time>2019-05-19T13:04:21Z</time>
      </trkpt>
      <trkpt lat="44.73786" lon="-0.4054">
        <ele>68.24</ele>
        <time>2019-05-19T13:04:25Z</time>
      </trkpt>
      <trkpt lat="44.73785" lon="-0.40541">
        <ele>68.25</ele>
        <time>2019-05-19T13:04:27Z</time>
      </trkpt>
      <trkpt lat="44.73783" lon="-0.40543">
        <ele>68.25</ele>
        <time>2019-05-19T13:04:36Z</time>
      </trkpt>
      <trkpt lat="44.73781" lon="-0.40544">
        <ele>68.26</ele>
        <time>2019-05-19T13:04:41Z</time>
      </trkpt>
      <trkpt lat="44.73779" lon="-0.40545">
        <ele>68.27</ele>
        <time>2019-05-19T13:04:45Z</time>
      </trkpt>
      <trkpt lat="44.73756" lon="-0.40555">
        <ele>68.36</ele>
        <time>2019-05-19T13:04:49Z</time>
      </trkpt>
      <trkpt lat="44.73754" lon="-0.40556">
        <ele>68.37</ele>
        <time>2019-05-19T13:05:03Z</time>
      </trkpt>
      <trkpt lat="44.73752" lon="-0.40558">
        <ele>68.38</ele>
        <time>2019-05-19T13:05:08Z</time>
      </trkpt>
      <trkpt lat="44.7375" lon="-0.40559">
        <ele>68.39</ele>
        <time>2019-05-19T13:05:22Z</time>
      </trkpt>
      <trkpt lat="44.73748" lon="-0.4056">
        <ele>68.38</ele>
        <time>2019-05-19T13:05:30Z</time>
      </trkpt>
      <trkpt lat="44.73745" lon="-0.40561">
        <ele>68.39</ele>
        <time>2019-05-19T13:05:45Z</time>
      </trkpt>
      <trkpt lat="44.73743" lon="-0.40562">
        <ele>69.21</ele>
        <time>2019-05-19T13:05:58Z</time>
      </trkpt>
      <trkpt lat="44.7374" lon="-0.40562">
        <ele>69.22</ele>
        <time>2019-05-19T13:06:02Z</time>
      </trkpt>
      <trkpt lat="44.73738" lon="-0.40563">
        <ele>69.24</ele>
        <time>2019-05-19T13:06:06Z</time>
      </trkpt>
      <trkpt lat="44.73735" lon="-0.40563">
        <ele>69.24</ele>
        <time>2019-05-19T13:06:12Z</time>
      </trkpt>
      <trkpt lat="44.737" lon="-0.40558">
        <ele>70.13</ele>
        <time>2019-05-19T13:06:20Z</time>
      </trkpt>
      <trkpt lat="44.73687" lon="-0.40555">
        <ele>71</ele>
        <time>2019-05-19T13:06:26Z</time>
      </trkpt>
      <trkpt lat="44.73684" lon="-0.40552">
        <ele>71.26</ele>
        <time>2019-05-19T13:06:41Z</time>
      </trkpt>
      <trkpt lat="44.73684" lon="-0.40551">
        <ele>71.62</ele>
        <time>2019-05-19T13:06:47Z</time>
      </trkpt>
      <trkpt lat="44.73671" lon="-0.40547">
        <ele>71.9</ele>
        <time>2019-05-19T13:06:49Z</time>
      </trkpt>
      <trkpt lat="44.73654" lon="-0.40541">
        <ele>71.93</ele>
        <time>2019-05-19T13:06:52Z</time>
      </trkpt>
      <trkpt lat="44.73652" lon="-0.40538">
        <ele>71.93</ele>
        <time>2019-05-19T13:07:05Z</time>
      </trkpt>
      <trkpt lat="44.73652" lon="-0.40534">
        <ele>71.94</ele>
        <time>2019-05-19T13:07:13Z</time>
      </trkpt>
      <trkpt lat="44.73653" lon="-0.4053">
        <ele>71.96</ele>
        <time>2019-05-19T13:07:19Z</time>
      </trkpt>
      <trkpt lat="44.73654" lon="-0.40526">
        <ele>71.97</ele>
        <time>2019-05-19T13:07:28Z</time>
      </trkpt>
      <trkpt lat="44.73677" lon="-0.40453">
        <ele>72.1</ele>
        <time>2019-05-19T13:07:41Z</time>
      </trkpt>
      <trkpt lat="44.73696" lon="-0.40356">
        <ele>69.87</ele>
        <time>2019-05-19T13:07:50Z</time>
      </trkpt>
      <trkpt lat="44.73696" lon="-0.40349">
        <ele>69.87</ele>
        <time>2019-05-19T13:07:51Z</time>
      </trkpt>
      <trkpt lat="44.73704" lon="-0.40255">
        <ele>69.97</ele>
        <time>2019-05-19T13:07:52Z</time>
      </trkpt>
      <trkpt lat="44.73709" lon="-0.40121">
        <ele>70.08</ele>
        <time>2019-05-19T13:07:53Z</time>
      </trkpt>
      <trkpt lat="44.73709" lon="-0.40114">
        <ele>70.08</ele>
        <time>2019-05-19T13:07:54Z</time>
      </trkpt>
      <trkpt lat="44.73708" lon="-0.39993">
        <ele>69.23</ele>
        <time>2019-05-19T13:07:55Z</time>
      </trkpt>
      <trkpt lat="44.73701" lon="-0.39884">
        <ele>62.4</ele>
        <time>2019-05-19T13:07:56Z</time>
      </trkpt>
      <trkpt lat="44.737" lon="-0.39877">
        <ele>66.98</ele>
        <time>2019-05-19T13:07:57Z</time>
      </trkpt>
      <trkpt lat="44.73699" lon="-0.39863">
        <ele>69.2</ele>
        <time>2019-05-19T13:07:58Z</time>
      </trkpt>
      <trkpt lat="44.73679" lon="-0.39755">
        <ele>69.25</ele>
        <time>2019-05-19T13:07:59Z</time>
      </trkpt>
      <trkpt lat="44.73641" lon="-0.3966">
        <ele>69.38</ele>
        <time>2019-05-19T13:08:00Z</time>
      </trkpt>
      <trkpt lat="44.73632" lon="-0.39638">
        <ele>69.41</ele>
        <time>2019-05-19T13:08:01Z</time>
      </trkpt>
      <trkpt lat="44.7363" lon="-0.39636">
        <ele>69.42</ele>
        <time>2019-05-19T13:08:16Z</time>
      </trkpt>
      <trkpt lat="44.73621" lon="-0.39636">
        <ele>67.14</ele>
        <time>2019-05-19T13:08:28Z</time>
      </trkpt>
      <trkpt lat="44.73591" lon="-0.39637">
        <ele>64.19</ele>
        <time>2019-05-19T13:08:33Z</time>
      </trkpt>
      <trkpt lat="44.73555" lon="-0.39638">
        <ele>60.35</ele>
        <time>2019-05-19T13:08:34Z</time>
      </trkpt>
      <trkpt lat="44.73551" lon="-0.39639">
        <ele>60.34</ele>
        <time>2019-05-19T13:08:35Z</time>
      </trkpt>
      <trkpt lat="44.73542" lon="-0.3964">
        <ele>58.98</ele>
        <time>2019-05-19T13:08:46Z</time>
      </trkpt>
      <trkpt lat="44.73524" lon="-0.39639">
        <ele>55.41</ele>
        <time>2019-05-19T13:08:54Z</time>
      </trkpt>
      <trkpt lat="44.73519" lon="-0.39639">
        <ele>55.38</ele>
        <time>2019-05-19T13:09:06Z</time>
      </trkpt>
      <trkpt lat="44.73503" lon="-0.39639">
        <ele>51.98</ele>
        <time>2019-05-19T13:09:18Z</time>
      </trkpt>
      <trkpt lat="44.73493" lon="-0.39637">
        <ele>50.6</ele>
        <time>2019-05-19T13:09:28Z</time>
      </trkpt>
      <trkpt lat="44.73458" lon="-0.39639">
        <ele>46.58</ele>
        <time>2019-05-19T13:09:29Z</time>
      </trkpt>
      <trkpt lat="44.73432" lon="-0.39642">
        <ele>42.34</ele>
        <time>2019-05-19T13:09:33Z</time>
      </trkpt>
      <trkpt lat="44.73406" lon="-0.39647">
        <ele>38.64</ele>
        <time>2019-05-19T13:09:34Z</time>
      </trkpt>
      <trkpt lat="44.73398" lon="-0.3965">
        <ele>37.73</ele>
        <time>2019-05-19T13:09:35Z</time>
      </trkpt>
      <trkpt lat="44.73382" lon="-0.39652">
        <ele>36.8</ele>
        <time>2019-05-19T13:09:36Z</time>
      </trkpt>
      <trkpt lat="44.73374" lon="-0.39652">
        <ele>35</ele>
        <time>2019-05-19T13:09:37Z</time>
      </trkpt>
      <trkpt lat="44.73339" lon="-0.39664">
        <ele>31.34</ele>
        <time>2019-05-19T13:09:38Z</time>
      </trkpt>
      <trkpt lat="44.73329" lon="-0.39668">
        <ele>30.42</ele>
        <time>2019-05-19T13:09:39Z</time>
      </trkpt>
      <trkpt lat="44.73307" lon="-0.39676">
        <ele>29.65</ele>
        <time>2019-05-19T13:09:40Z</time>
      </trkpt>
      <trkpt lat="44.73286" lon="-0.39672">
        <ele>30.04</ele>
        <time>2019-05-19T13:09:41Z</time>
      </trkpt>
      <trkpt lat="44.73283" lon="-0.39671">
        <ele>30.05</ele>
        <time>2019-05-19T13:09:52Z</time>
      </trkpt>
      <trkpt lat="44.73273" lon="-0.39676">
        <ele>32.86</ele>
        <time>2019-05-19T13:09:53Z</time>
      </trkpt>
      <trkpt lat="44.73251" lon="-0.39687">
        <ele>32.78</ele>
        <time>2019-05-19T13:09:54Z</time>
      </trkpt>
      <trkpt lat="44.73246" lon="-0.3969">
        <ele>32.77</ele>
        <time>2019-05-19T13:09:55Z</time>
      </trkpt>
      <trkpt lat="44.73244" lon="-0.39692">
        <ele>32.73</ele>
        <time>2019-05-19T13:09:56Z</time>
      </trkpt>
      <trkpt lat="44.73232" lon="-0.39698">
        <ele>33.44</ele>
        <time>2019-05-19T13:09:57Z</time>
      </trkpt>
      <trkpt lat="44.73219" lon="-0.39697">
        <ele>33.37</ele>
        <time>2019-05-19T13:09:58Z</time>
      </trkpt>
      <trkpt lat="44.73203" lon="-0.39687">
        <ele>36.02</ele>
        <time>2019-05-19T13:09:59Z</time>
      </trkpt>
      <trkpt lat="44.73195" lon="-0.39674">
        <ele>37.76</ele>
        <time>2019-05-19T13:10:00Z</time>
      </trkpt>
      <trkpt lat="44.73191" lon="-0.39669">
        <ele>38.76</ele>
        <time>2019-05-19T13:10:01Z</time>
      </trkpt>
      <trkpt lat="44.73183" lon="-0.39653">
        <ele>41.71</ele>
        <time>2019-05-19T13:10:15Z</time>
      </trkpt>
      <trkpt lat="44.73173" lon="-0.39635">
        <ele>44.24</ele>
        <time>2019-05-19T13:10:28Z</time>
      </trkpt>
      <trkpt lat="44.73161" lon="-0.39616">
        <ele>45.75</ele>
        <time>2019-05-19T13:11:12Z</time>
      </trkpt>
      <trkpt lat="44.73159" lon="-0.39613">
        <ele>45.74</ele>
        <time>2019-05-19T13:11:55Z</time>
      </trkpt>
      <trkpt lat="44.73149" lon="-0.39597">
        <ele>45.7</ele>
        <time>2019-05-19T13:12:29Z</time>
      </trkpt>
      <trkpt lat="44.73138" lon="-0.39587">
        <ele>45.69</ele>
        <time>2019-05-19T13:12:35Z</time>
      </trkpt>
      <trkpt lat="44.73136" lon="-0.39583">
        <ele>45.74</ele>
        <time>2019-05-19T13:12:36Z</time>
      </trkpt>
      <trkpt lat="44.73136" lon="-0.39572">
        <ele>43.35</ele>
        <time>2019-05-19T13:12:37Z</time>
      </trkpt>
      <trkpt lat="44.73134" lon="-0.39563">
        <ele>42.48</ele>
        <time>2019-05-19T13:12:38Z</time>
      </trkpt>
      <trkpt lat="44.73134" lon="-0.39561">
        <ele>42.5</ele>
        <time>2019-05-19T13:12:39Z</time>
      </trkpt>
      <trkpt lat="44.73139" lon="-0.39552">
        <ele>41.75</ele>
        <time>2019-05-19T13:12:53Z</time>
      </trkpt>
      <trkpt lat="44.7314" lon="-0.3955">
        <ele>41.79</ele>
        <time>2019-05-19T13:13:10Z</time>
      </trkpt>
      <trkpt lat="44.73142" lon="-0.39551">
        <ele>41.79</ele>
        <time>2019-05-19T13:13:11Z</time>
      </trkpt>
      <trkpt lat="44.73142" lon="-0.39552">
        <ele>41.81</ele>
        <time>2019-05-19T13:13:27Z</time>
      </trkpt>
      <trkpt lat="44.73143" lon="-0.39553">
        <ele>41.82</ele>
        <time>2019-05-19T13:13:47Z</time>
      </trkpt>
      <trkpt lat="44.73143" lon="-0.39554">
        <ele>41.83</ele>
        <time>2019-05-19T13:13:48Z</time>
      </trkpt>
      <trkpt lat="44.73143" lon="-0.39566">
        <ele>41.93</ele>
        <time>2019-05-19T13:14:05Z</time>
      </trkpt>
      <trkpt lat="44.7314" lon="-0.39567">
        <ele>42.03</ele>
        <time>2019-05-19T13:14:20Z</time>
      </trkpt>
      <trkpt lat="44.73137" lon="-0.39565">
        <ele>42.38</ele>
        <time>2019-05-19T13:14:21Z</time>
      </trkpt>
      <trkpt lat="44.73135" lon="-0.3956">
        <ele>42.7</ele>
        <time>2019-05-19T13:14:23Z</time>
      </trkpt>
      <trkpt lat="44.73136" lon="-0.39557">
        <ele>41.63</ele>
        <time>2019-05-19T13:14:39Z</time>
      </trkpt>
      <trkpt lat="44.73136" lon="-0.39557">
        <ele>44.94</ele>
        <time>2019-05-19T13:14:55Z</time>
      </trkpt>
      <trkpt lat="44.73135" lon="-0.39557">
        <ele>44.96</ele>
        <time>2019-05-19T13:14:59Z</time>
      </trkpt>
      <trkpt lat="44.73127" lon="-0.39555">
        <ele>45.5</ele>
        <time>2019-05-19T13:15:00Z</time>
      </trkpt>
      <trkpt lat="44.7313" lon="-0.39561">
        <ele>45.88</ele>
        <time>2019-05-19T13:15:03Z</time>
      </trkpt>
      <trkpt lat="44.73131" lon="-0.39559">
        <ele>47.25</ele>
        <time>2019-05-19T13:15:10Z</time>
      </trkpt>
      <trkpt lat="44.73131" lon="-0.39556">
        <ele>47.25</ele>
        <time>2019-05-19T13:15:17Z</time>
      </trkpt>
      <trkpt lat="44.73133" lon="-0.39542">
        <ele>44.82</ele>
        <time>2019-05-19T13:15:18Z</time>
      </trkpt>
      <trkpt lat="44.73141" lon="-0.39501">
        <ele>41.02</ele>
        <time>2019-05-19T13:15:20Z</time>
      </trkpt>
      <trkpt lat="44.73147" lon="-0.39477">
        <ele>39.01</ele>
        <time>2019-05-19T13:15:24Z</time>
      </trkpt>
      <trkpt lat="44.73153" lon="-0.39448">
        <ele>35.77</ele>
        <time>2019-05-19T13:15:25Z</time>
      </trkpt>
      <trkpt lat="44.73156" lon="-0.39426">
        <ele>33.4</ele>
        <time>2019-05-19T13:15:28Z</time>
      </trkpt>
      <trkpt lat="44.73156" lon="-0.3942">
        <ele>33.38</ele>
        <time>2019-05-19T13:15:30Z</time>
      </trkpt>
      <trkpt lat="44.73156" lon="-0.39413">
        <ele>32.35</ele>
        <time>2019-05-19T13:15:35Z</time>
      </trkpt>
      <trkpt lat="44.73156" lon="-0.39407">
        <ele>32.39</ele>
        <time>2019-05-19T13:15:38Z</time>
      </trkpt>
      <trkpt lat="44.73157" lon="-0.39401">
        <ele>31.4</ele>
        <time>2019-05-19T13:15:41Z</time>
      </trkpt>
      <trkpt lat="44.73158" lon="-0.39395">
        <ele>31.38</ele>
        <time>2019-05-19T13:15:42Z</time>
      </trkpt>
      <trkpt lat="44.7316" lon="-0.39389">
        <ele>30.71</ele>
        <time>2019-05-19T13:15:44Z</time>
      </trkpt>
      <trkpt lat="44.73164" lon="-0.39384">
        <ele>30.68</ele>
        <time>2019-05-19T13:15:45Z</time>
      </trkpt>
      <trkpt lat="44.73167" lon="-0.39382">
        <ele>30.73</ele>
        <time>2019-05-19T13:15:50Z</time>
      </trkpt>
      <trkpt lat="44.73172" lon="-0.39382">
        <ele>30.75</ele>
        <time>2019-05-19T13:15:52Z</time>
      </trkpt>
      <trkpt lat="44.73177" lon="-0.39384">
        <ele>29.49</ele>
        <time>2019-05-19T13:15:58Z</time>
      </trkpt>
      <trkpt lat="44.73182" lon="-0.39387">
        <ele>29.59</ele>
        <time>2019-05-19T13:16:08Z</time>
      </trkpt>
      <trkpt lat="44.73188" lon="-0.39389">
        <ele>28.51</ele>
        <time>2019-05-19T13:16:09Z</time>
      </trkpt>
      <trkpt lat="44.732" lon="-0.39392">
        <ele>27.42</ele>
        <time>2019-05-19T13:16:16Z</time>
      </trkpt>
      <trkpt lat="44.73205" lon="-0.39393">
        <ele>27.41</ele>
        <time>2019-05-19T13:16:27Z</time>
      </trkpt>
      <trkpt lat="44.7321" lon="-0.39393">
        <ele>27.4</ele>
        <time>2019-05-19T13:16:30Z</time>
      </trkpt>
      <trkpt lat="44.73228" lon="-0.39392">
        <ele>29.97</ele>
        <time>2019-05-19T13:16:32Z</time>
      </trkpt>
      <trkpt lat="44.73239" lon="-0.39387">
        <ele>33.03</ele>
        <time>2019-05-19T13:16:42Z</time>
      </trkpt>
      <trkpt lat="44.73251" lon="-0.39385">
        <ele>34.61</ele>
        <time>2019-05-19T13:16:48Z</time>
      </trkpt>
      <trkpt lat="44.73246" lon="-0.39379">
        <ele>34.55</ele>
        <time>2019-05-19T13:17:00Z</time>
      </trkpt>
      <trkpt lat="44.73234" lon="-0.39365">
        <ele>34.36</ele>
        <time>2019-05-19T13:17:07Z</time>
      </trkpt>
      <trkpt lat="44.7323" lon="-0.39364">
        <ele>31.99</ele>
        <time>2019-05-19T13:17:10Z</time>
      </trkpt>
      <trkpt lat="44.73225" lon="-0.39361">
        <ele>31</ele>
        <time>2019-05-19T13:17:18Z</time>
      </trkpt>
      <trkpt lat="44.73223" lon="-0.39356">
        <ele>30.99</ele>
        <time>2019-05-19T13:17:29Z</time>
      </trkpt>
      <trkpt lat="44.73216" lon="-0.39344">
        <ele>30.05</ele>
        <time>2019-05-19T13:17:40Z</time>
      </trkpt>
      <trkpt lat="44.73213" lon="-0.39337">
        <ele>30.08</ele>
        <time>2019-05-19T13:17:42Z</time>
      </trkpt>
      <trkpt lat="44.73202" lon="-0.39319">
        <ele>30</ele>
        <time>2019-05-19T13:17:53Z</time>
      </trkpt>
      <trkpt lat="44.73202" lon="-0.39318">
        <ele>30</ele>
        <time>2019-05-19T13:18:03Z</time>
      </trkpt>
      <trkpt lat="44.73199" lon="-0.39315">
        <ele>28.84</ele>
        <time>2019-05-19T13:18:05Z</time>
      </trkpt>
      <trkpt lat="44.73193" lon="-0.39302">
        <ele>27.99</ele>
        <time>2019-05-19T13:18:08Z</time>
      </trkpt>
      <trkpt lat="44.73192" lon="-0.39295">
        <ele>27.93</ele>
        <time>2019-05-19T13:18:11Z</time>
      </trkpt>
      <trkpt lat="44.73182" lon="-0.39278">
        <ele>27.91</ele>
        <time>2019-05-19T13:18:12Z</time>
      </trkpt>
      <trkpt lat="44.73174" lon="-0.39255">
        <ele>27.84</ele>
        <time>2019-05-19T13:18:31Z</time>
      </trkpt>
      <trkpt lat="44.73169" lon="-0.39241">
        <ele>27.77</ele>
        <time>2019-05-19T13:18:34Z</time>
      </trkpt>
      <trkpt lat="44.73163" lon="-0.39208">
        <ele>27.74</ele>
        <time>2019-05-19T13:18:35Z</time>
      </trkpt>
      <trkpt lat="44.73164" lon="-0.39186">
        <ele>27.68</ele>
        <time>2019-05-19T13:18:36Z</time>
      </trkpt>
      <trkpt lat="44.7316" lon="-0.39184">
        <ele>26.38</ele>
        <time>2019-05-19T13:18:37Z</time>
      </trkpt>
      <trkpt lat="44.73157" lon="-0.39183">
        <ele>25.09</ele>
        <time>2019-05-19T13:18:38Z</time>
      </trkpt>
      <trkpt lat="44.73148" lon="-0.39174">
        <ele>24.15</ele>
        <time>2019-05-19T13:18:46Z</time>
      </trkpt>
      <trkpt lat="44.73134" lon="-0.39138">
        <ele>23.25</ele>
        <time>2019-05-19T13:18:55Z</time>
      </trkpt>
      <trkpt lat="44.73131" lon="-0.39129">
        <ele>23.27</ele>
        <time>2019-05-19T13:19:36Z</time>
      </trkpt>
      <trkpt lat="44.73127" lon="-0.39124">
        <ele>23.26</ele>
        <time>2019-05-19T13:20:08Z</time>
      </trkpt>
      <trkpt lat="44.73118" lon="-0.39107">
        <ele>23.26</ele>
        <time>2019-05-19T13:20:42Z</time>
      </trkpt>
      <trkpt lat="44.73115" lon="-0.39091">
        <ele>23.26</ele>
        <time>2019-05-19T13:20:43Z</time>
      </trkpt>
      <trkpt lat="44.7311" lon="-0.39078">
        <ele>23.26</ele>
        <time>2019-05-19T13:20:44Z</time>
      </trkpt>
      <trkpt lat="44.73106" lon="-0.39064">
        <ele>23.25</ele>
        <time>2019-05-19T13:21:25Z</time>
      </trkpt>
      <trkpt lat="44.73103" lon="-0.39056">
        <ele>23.24</ele>
        <time>2019-05-19T13:21:54Z</time>
      </trkpt>
      <trkpt lat="44.73098" lon="-0.39039">
        <ele>22.4</ele>
        <time>2019-05-19T13:22:23Z</time>
      </trkpt>
      <trkpt lat="44.73097" lon="-0.39033">
        <ele>22.4</ele>
        <time>2019-05-19T13:22:24Z</time>
      </trkpt>
      <trkpt lat="44.73094" lon="-0.39019">
        <ele>22.39</ele>
        <time>2019-05-19T13:22:29Z</time>
      </trkpt>
      <trkpt lat="44.7309" lon="-0.38988">
        <ele>21.37</ele>
        <time>2019-05-19T13:22:40Z</time>
      </trkpt>
      <trkpt lat="44.73089" lon="-0.38982">
        <ele>21.37</ele>
        <time>2019-05-19T13:22:44Z</time>
      </trkpt>
      <trkpt lat="44.73088" lon="-0.38973">
        <ele>21.36</ele>
        <time>2019-05-19T13:22:49Z</time>
      </trkpt>
      <trkpt lat="44.73087" lon="-0.38964">
        <ele>21.33</ele>
        <time>2019-05-19T13:22:53Z</time>
      </trkpt>
      <trkpt lat="44.73075" lon="-0.38939">
        <ele>20.18</ele>
        <time>2019-05-19T13:22:54Z</time>
      </trkpt>
      <trkpt lat="44.7307" lon="-0.38897">
        <ele>19.3</ele>
        <time>2019-05-19T13:22:55Z</time>
      </trkpt>
      <trkpt lat="44.73068" lon="-0.38881">
        <ele>19.28</ele>
        <time>2019-05-19T13:22:56Z</time>
      </trkpt>
      <trkpt lat="44.73065" lon="-0.38861">
        <ele>19.23</ele>
        <time>2019-05-19T13:22:57Z</time>
      </trkpt>
      <trkpt lat="44.73062" lon="-0.38815">
        <ele>17.36</ele>
        <time>2019-05-19T13:22:58Z</time>
      </trkpt>
      <trkpt lat="44.73064" lon="-0.38783">
        <ele>16.23</ele>
        <time>2019-05-19T13:22:59Z</time>
      </trkpt>
      <trkpt lat="44.73068" lon="-0.38777">
        <ele>16.23</ele>
        <time>2019-05-19T13:23:00Z</time>
      </trkpt>
      <trkpt lat="44.73074" lon="-0.38774">
        <ele>18.81</ele>
        <time>2019-05-19T13:23:01Z</time>
      </trkpt>
      <trkpt lat="44.73082" lon="-0.38763">
        <ele>20.54</ele>
        <time>2019-05-19T13:23:02Z</time>
      </trkpt>
      <trkpt lat="44.73082" lon="-0.38744">
        <ele>20.42</ele>
        <time>2019-05-19T13:23:03Z</time>
      </trkpt>
      <trkpt lat="44.73081" lon="-0.38737">
        <ele>20.53</ele>
        <time>2019-05-19T13:23:04Z</time>
      </trkpt>
      <trkpt lat="44.73082" lon="-0.38725">
        <ele>18.44</ele>
        <time>2019-05-19T13:23:05Z</time>
      </trkpt>
      <trkpt lat="44.73081" lon="-0.3872">
        <ele>18.43</ele>
        <time>2019-05-19T13:23:07Z</time>
      </trkpt>
      <trkpt lat="44.73083" lon="-0.38698">
        <ele>18.5</ele>
        <time>2019-05-19T13:23:08Z</time>
      </trkpt>
      <trkpt lat="44.73082" lon="-0.38689">
        <ele>18.51</ele>
        <time>2019-05-19T13:23:09Z</time>
      </trkpt>
      <trkpt lat="44.73079" lon="-0.38681">
        <ele>16.72</ele>
        <time>2019-05-19T13:23:16Z</time>
      </trkpt>
      <trkpt lat="44.73079" lon="-0.38675">
        <ele>15.63</ele>
        <time>2019-05-19T13:23:23Z</time>
      </trkpt>
      <trkpt lat="44.7308" lon="-0.3867">
        <ele>15.62</ele>
        <time>2019-05-19T13:23:29Z</time>
      </trkpt>
      <trkpt lat="44.73081" lon="-0.38647">
        <ele>15.67</ele>
        <time>2019-05-19T13:23:35Z</time>
      </trkpt>
      <trkpt lat="44.73079" lon="-0.38633">
        <ele>14.65</ele>
        <time>2019-05-19T13:23:44Z</time>
      </trkpt>
      <trkpt lat="44.73075" lon="-0.38616">
        <ele>13.7</ele>
        <time>2019-05-19T13:23:46Z</time>
      </trkpt>
      <trkpt lat="44.73072" lon="-0.38581">
        <ele>13.64</ele>
        <time>2019-05-19T13:23:50Z</time>
      </trkpt>
      <trkpt lat="44.73072" lon="-0.38558">
        <ele>15.99</ele>
        <time>2019-05-19T13:23:52Z</time>
      </trkpt>
      <trkpt lat="44.73068" lon="-0.38536">
        <ele>19.07</ele>
        <time>2019-05-19T13:23:58Z</time>
      </trkpt>
      <trkpt lat="44.7306" lon="-0.38515">
        <ele>19.83</ele>
        <time>2019-05-19T13:24:03Z</time>
      </trkpt>
      <trkpt lat="44.73058" lon="-0.38512">
        <ele>20.72</ele>
        <time>2019-05-19T13:24:15Z</time>
      </trkpt>
      <trkpt lat="44.73047" lon="-0.38508">
        <ele>20.6</ele>
        <time>2019-05-19T13:24:16Z</time>
      </trkpt>
      <trkpt lat="44.7304" lon="-0.38502">
        <ele>20.59</ele>
        <time>2019-05-19T13:24:18Z</time>
      </trkpt>
      <trkpt lat="44.73036" lon="-0.38498">
        <ele>18.18</ele>
        <time>2019-05-19T13:24:24Z</time>
      </trkpt>
      <trkpt lat="44.73034" lon="-0.38495">
        <ele>18.18</ele>
        <time>2019-05-19T13:24:31Z</time>
      </trkpt>
      <trkpt lat="44.73019" lon="-0.38475">
        <ele>18.16</ele>
        <time>2019-05-19T13:24:38Z</time>
      </trkpt>
      <trkpt lat="44.7301" lon="-0.38461">
        <ele>18.14</ele>
        <time>2019-05-19T13:24:49Z</time>
      </trkpt>
      <trkpt lat="44.72994" lon="-0.38448">
        <ele>18.11</ele>
        <time>2019-05-19T13:24:55Z</time>
      </trkpt>
      <trkpt lat="44.72988" lon="-0.38439">
        <ele>18.09</ele>
        <time>2019-05-19T13:25:04Z</time>
      </trkpt>
      <trkpt lat="44.72972" lon="-0.38421">
        <ele>18.1</ele>
        <time>2019-05-19T13:25:13Z</time>
      </trkpt>
      <trkpt lat="44.72971" lon="-0.38419">
        <ele>18.11</ele>
        <time>2019-05-19T13:25:16Z</time>
      </trkpt>
      <trkpt lat="44.72966" lon="-0.38405">
        <ele>18.13</ele>
        <time>2019-05-19T13:25:18Z</time>
      </trkpt>
      <trkpt lat="44.72955" lon="-0.38392">
        <ele>18.17</ele>
        <time>2019-05-19T13:25:22Z</time>
      </trkpt>
      <trkpt lat="44.72954" lon="-0.38389">
        <ele>18.17</ele>
        <time>2019-05-19T13:25:33Z</time>
      </trkpt>
      <trkpt lat="44.72952" lon="-0.3838">
        <ele>18.18</ele>
        <time>2019-05-19T13:25:36Z</time>
      </trkpt>
      <trkpt lat="44.72945" lon="-0.38368">
        <ele>18.2</ele>
        <time>2019-05-19T13:25:40Z</time>
      </trkpt>
      <trkpt lat="44.72945" lon="-0.38353">
        <ele>18.24</ele>
        <time>2019-05-19T13:25:50Z</time>
      </trkpt>
      <trkpt lat="44.7295" lon="-0.38332">
        <ele>18.27</ele>
        <time>2019-05-19T13:25:56Z</time>
      </trkpt>
      <trkpt lat="44.72954" lon="-0.38321">
        <ele>18.28</ele>
        <time>2019-05-19T13:26:02Z</time>
      </trkpt>
      <trkpt lat="44.72959" lon="-0.38311">
        <ele>18.28</ele>
        <time>2019-05-19T13:26:07Z</time>
      </trkpt>
      <trkpt lat="44.72968" lon="-0.38303">
        <ele>18.31</ele>
        <time>2019-05-19T13:26:11Z</time>
      </trkpt>
      <trkpt lat="44.72984" lon="-0.38294">
        <ele>18.33</ele>
        <time>2019-05-19T13:26:17Z</time>
      </trkpt>
      <trkpt lat="44.72988" lon="-0.38293">
        <ele>20.59</ele>
        <time>2019-05-19T13:26:19Z</time>
      </trkpt>
      <trkpt lat="44.73002" lon="-0.38286">
        <ele>20.58</ele>
        <time>2019-05-19T13:26:23Z</time>
      </trkpt>
      <trkpt lat="44.73012" lon="-0.38276">
        <ele>20.58</ele>
        <time>2019-05-19T13:26:31Z</time>
      </trkpt>
      <trkpt lat="44.73034" lon="-0.38266">
        <ele>20.58</ele>
        <time>2019-05-19T13:26:33Z</time>
      </trkpt>
      <trkpt lat="44.7304" lon="-0.38267">
        <ele>20.59</ele>
        <time>2019-05-19T13:26:36Z</time>
      </trkpt>
      <trkpt lat="44.73043" lon="-0.38267">
        <ele>20.6</ele>
        <time>2019-05-19T13:26:40Z</time>
      </trkpt>
      <trkpt lat="44.73047" lon="-0.38262">
        <ele>18.18</ele>
        <time>2019-05-19T13:26:49Z</time>
      </trkpt>
      <trkpt lat="44.73047" lon="-0.38259">
        <ele>16.61</ele>
        <time>2019-05-19T13:27:00Z</time>
      </trkpt>
      <trkpt lat="44.73048" lon="-0.38252">
        <ele>13.09</ele>
        <time>2019-05-19T13:27:04Z</time>
      </trkpt>
      <trkpt lat="44.73048" lon="-0.38248">
        <ele>12.17</ele>
        <time>2019-05-19T13:27:09Z</time>
      </trkpt>
      <trkpt lat="44.73048" lon="-0.38244">
        <ele>11.25</ele>
        <time>2019-05-19T13:27:21Z</time>
      </trkpt>
      <trkpt lat="44.73048" lon="-0.3824">
        <ele>11.2</ele>
        <time>2019-05-19T13:27:29Z</time>
      </trkpt>
      <trkpt lat="44.73048" lon="-0.38237">
        <ele>11.25</ele>
        <time>2019-05-19T13:27:32Z</time>
      </trkpt>
      <trkpt lat="44.73047" lon="-0.38222">
        <ele>9.57</ele>
        <time>2019-05-19T13:27:36Z</time>
      </trkpt>
      <trkpt lat="44.73048" lon="-0.38213">
        <ele>9.77</ele>
        <time>2019-05-19T13:27:50Z</time>
      </trkpt>
      <trkpt lat="44.73047" lon="-0.38214">
        <ele>7.67</ele>
        <time>2019-05-19T13:28:29Z</time>
      </trkpt>
      <trkpt lat="44.73046" lon="-0.38211">
        <ele>10.25</ele>
        <time>2019-05-19T13:28:53Z</time>
      </trkpt>
      <trkpt lat="44.73044" lon="-0.38207">
        <ele>6.42</ele>
        <time>2019-05-19T13:29:26Z</time>
      </trkpt>
      <trkpt lat="44.73044" lon="-0.38207">
        <ele>8.96</ele>
        <time>2019-05-19T13:29:28Z</time>
      </trkpt>
      <trkpt lat="44.73044" lon="-0.38207">
        <ele>9.96</ele>
        <time>2019-05-19T13:29:41Z</time>
      </trkpt>
      <trkpt lat="44.73045" lon="-0.382">
        <ele>10.43</ele>
        <time>2019-05-19T13:29:47Z</time>
      </trkpt>
      <trkpt lat="44.73047" lon="-0.382">
        <ele>10.95</ele>
        <time>2019-05-19T13:29:52Z</time>
      </trkpt>
      <trkpt lat="44.73047" lon="-0.38202">
        <ele>11.38</ele>
        <time>2019-05-19T13:29:54Z</time>
      </trkpt>
      <trkpt lat="44.73046" lon="-0.38179">
        <ele>9.27</ele>
        <time>2019-05-19T13:29:56Z</time>
      </trkpt>
      <trkpt lat="44.73045" lon="-0.38173">
        <ele>9.27</ele>
        <time>2019-05-19T13:30:04Z</time>
      </trkpt>
      <trkpt lat="44.73029" lon="-0.38125">
        <ele>2.32</ele>
        <time>2019-05-19T13:30:09Z</time>
      </trkpt>
      <trkpt lat="44.73027" lon="-0.38121">
        <ele>2.33</ele>
        <time>2019-05-19T13:30:14Z</time>
      </trkpt>
      <trkpt lat="44.73024" lon="-0.38118">
        <ele>8.36</ele>
        <time>2019-05-19T13:30:25Z</time>
      </trkpt>
      <trkpt lat="44.73022" lon="-0.38112">
        <ele>10.66</ele>
        <time>2019-05-19T13:30:33Z</time>
      </trkpt>
      <trkpt lat="44.73018" lon="-0.38104">
        <ele>7.96</ele>
        <time>2019-05-19T13:30:43Z</time>
      </trkpt>
      <trkpt lat="44.73003" lon="-0.38058">
        <ele>6.88</ele>
        <time>2019-05-19T13:30:51Z</time>
      </trkpt>
      <trkpt lat="44.72995" lon="-0.38042">
        <ele>6.19</ele>
        <time>2019-05-19T13:30:53Z</time>
      </trkpt>
      <trkpt lat="44.72995" lon="-0.38026">
        <ele>6.26</ele>
        <time>2019-05-19T13:31:10Z</time>
      </trkpt>
      <trkpt lat="44.72997" lon="-0.38024">
        <ele>6.27</ele>
        <time>2019-05-19T13:31:15Z</time>
      </trkpt>
      <trkpt lat="44.72998" lon="-0.38023">
        <ele>6.34</ele>
        <time>2019-05-19T13:31:17Z</time>
      </trkpt>
      <trkpt lat="44.73008" lon="-0.38017">
        <ele>6.34</ele>
        <time>2019-05-19T13:31:19Z</time>
      </trkpt>
      <trkpt lat="44.73012" lon="-0.38017">
        <ele>6.34</ele>
        <time>2019-05-19T13:31:32Z</time>
      </trkpt>
      <trkpt lat="44.73011" lon="-0.38023">
        <ele>6.34</ele>
        <time>2019-05-19T13:31:41Z</time>
      </trkpt>
      <trkpt lat="44.73002" lon="-0.38026">
        <ele>6.32</ele>
        <time>2019-05-19T13:31:54Z</time>
      </trkpt>
      <trkpt lat="44.72996" lon="-0.38033">
        <ele>6.34</ele>
        <time>2019-05-19T13:31:59Z</time>
      </trkpt>
      <trkpt lat="44.72997" lon="-0.38034">
        <ele>6.47</ele>
        <time>2019-05-19T13:32:09Z</time>
      </trkpt>
      <trkpt lat="44.72998" lon="-0.38031">
        <ele>6.59</ele>
        <time>2019-05-19T13:32:10Z</time>
      </trkpt>
      <trkpt lat="44.72996" lon="-0.38029">
        <ele>6.6</ele>
        <time>2019-05-19T13:32:18Z</time>
      </trkpt>
      <trkpt lat="44.72999" lon="-0.38022">
        <ele>6.6</ele>
        <time>2019-05-19T13:32:28Z</time>
      </trkpt>
      <trkpt lat="44.73001" lon="-0.3802">
        <ele>6.6</ele>
        <time>2019-05-19T13:32:29Z</time>
      </trkpt>
      <trkpt lat="44.73003" lon="-0.38019">
        <ele>6.61</ele>
        <time>2019-05-19T13:32:33Z</time>
      </trkpt>
      <trkpt lat="44.73005" lon="-0.38018">
        <ele>6.61</ele>
        <time>2019-05-19T13:32:39Z</time>
      </trkpt>
      <trkpt lat="44.73007" lon="-0.38017">
        <ele>6.61</ele>
        <time>2019-05-19T13:32:45Z</time>
      </trkpt>
      <trkpt lat="44.73041" lon="-0.38">
        <ele>6.61</ele>
        <time>2019-05-19T13:32:53Z</time>
      </trkpt>
      <trkpt lat="44.73074" lon="-0.37983">
        <ele>6.58</ele>
        <time>2019-05-19T13:32:57Z</time>
      </trkpt>
      <trkpt lat="44.7312" lon="-0.3796">
        <ele>6.57</ele>
        <time>2019-05-19T13:33:00Z</time>
      </trkpt>
      <trkpt lat="44.73175" lon="-0.37939">
        <ele>6.54</ele>
        <time>2019-05-19T13:33:05Z</time>
      </trkpt>
      <trkpt lat="44.73215" lon="-0.37917">
        <ele>6.56</ele>
        <time>2019-05-19T13:33:16Z</time>
      </trkpt>
      <trkpt lat="44.73233" lon="-0.37907">
        <ele>10.51</ele>
        <time>2019-05-19T13:33:18Z</time>
      </trkpt>
      <trkpt lat="44.73237" lon="-0.37905">
        <ele>10.49</ele>
        <time>2019-05-19T13:33:24Z</time>
      </trkpt>
      <trkpt lat="44.7325" lon="-0.37901">
        <ele>10.47</ele>
        <time>2019-05-19T13:33:29Z</time>
      </trkpt>
      <trkpt lat="44.73265" lon="-0.37894">
        <ele>10.5</ele>
        <time>2019-05-19T13:33:39Z</time>
      </trkpt>
      <trkpt lat="44.73266" lon="-0.3789">
        <ele>10.53</ele>
        <time>2019-05-19T13:33:43Z</time>
      </trkpt>
      <trkpt lat="44.73268" lon="-0.37877">
        <ele>10.57</ele>
        <time>2019-05-19T13:33:45Z</time>
      </trkpt>
      <trkpt lat="44.73267" lon="-0.37875">
        <ele>11.39</ele>
        <time>2019-05-19T13:33:49Z</time>
      </trkpt>
      <trkpt lat="44.73266" lon="-0.37873">
        <ele>11.41</ele>
        <time>2019-05-19T13:33:51Z</time>
      </trkpt>
      <trkpt lat="44.73265" lon="-0.37871">
        <ele>11.43</ele>
        <time>2019-05-19T13:33:54Z</time>
      </trkpt>
      <trkpt lat="44.73264" lon="-0.3787">
        <ele>11.42</ele>
        <time>2019-05-19T13:33:55Z</time>
      </trkpt>
      <trkpt lat="44.73251" lon="-0.3786">
        <ele>12.2</ele>
        <time>2019-05-19T13:33:56Z</time>
      </trkpt>
      <trkpt lat="44.73233" lon="-0.37846">
        <ele>13.02</ele>
        <time>2019-05-19T13:33:57Z</time>
      </trkpt>
      <trkpt lat="44.73212" lon="-0.37835">
        <ele>15.81</ele>
        <time>2019-05-19T13:33:58Z</time>
      </trkpt>
      <trkpt lat="44.73203" lon="-0.3784">
        <ele>16.72</ele>
        <time>2019-05-19T13:34:09Z</time>
      </trkpt>
      <trkpt lat="44.73189" lon="-0.37845">
        <ele>20.73</ele>
        <time>2019-05-19T13:34:46Z</time>
      </trkpt>
      <trkpt lat="44.73185" lon="-0.37847">
        <ele>20.74</ele>
        <time>2019-05-19T13:34:54Z</time>
      </trkpt>
      <trkpt lat="44.73173" lon="-0.37851">
        <ele>22.34</ele>
        <time>2019-05-19T13:35:16Z</time>
      </trkpt>
      <trkpt lat="44.7317" lon="-0.37854">
        <ele>23.1</ele>
        <time>2019-05-19T13:35:42Z</time>
      </trkpt>
      <trkpt lat="44.73153" lon="-0.3786">
        <ele>23.7</ele>
        <time>2019-05-19T13:35:43Z</time>
      </trkpt>
      <trkpt lat="44.73141" lon="-0.37868">
        <ele>24.4</ele>
        <time>2019-05-19T13:35:45Z</time>
      </trkpt>
      <trkpt lat="44.73122" lon="-0.37875">
        <ele>25.3</ele>
        <time>2019-05-19T13:36:22Z</time>
      </trkpt>
      <trkpt lat="44.731" lon="-0.37873">
        <ele>27.79</ele>
        <time>2019-05-19T13:37:02Z</time>
      </trkpt>
      <trkpt lat="44.73074" lon="-0.37868">
        <ele>30.38</ele>
        <time>2019-05-19T13:37:39Z</time>
      </trkpt>
      <trkpt lat="44.73056" lon="-0.37861">
        <ele>32.13</ele>
        <time>2019-05-19T13:38:00Z</time>
      </trkpt>
      <trkpt lat="44.73049" lon="-0.37843">
        <ele>33.97</ele>
        <time>2019-05-19T13:38:01Z</time>
      </trkpt>
      <trkpt lat="44.73041" lon="-0.37812">
        <ele>37.61</ele>
        <time>2019-05-19T13:38:11Z</time>
      </trkpt>
      <trkpt lat="44.73029" lon="-0.37764">
        <ele>40.23</ele>
        <time>2019-05-19T13:38:12Z</time>
      </trkpt>
      <trkpt lat="44.73014" lon="-0.37732">
        <ele>43</ele>
        <time>2019-05-19T13:38:13Z</time>
      </trkpt>
      <trkpt lat="44.72989" lon="-0.37713">
        <ele>46.25</ele>
        <time>2019-05-19T13:38:15Z</time>
      </trkpt>
      <trkpt lat="44.72967" lon="-0.37717">
        <ele>49.93</ele>
        <time>2019-05-19T13:38:18Z</time>
      </trkpt>
      <trkpt lat="44.72941" lon="-0.37723">
        <ele>53.51</ele>
        <time>2019-05-19T13:38:30Z</time>
      </trkpt>
      <trkpt lat="44.72927" lon="-0.37703">
        <ele>56.81</ele>
        <time>2019-05-19T13:38:36Z</time>
      </trkpt>
      <trkpt lat="44.72917" lon="-0.37666">
        <ele>59.54</ele>
        <time>2019-05-19T13:38:45Z</time>
      </trkpt>
      <trkpt lat="44.729" lon="-0.37619">
        <ele>61.16</ele>
        <time>2019-05-19T13:38:46Z</time>
      </trkpt>
      <trkpt lat="44.72883" lon="-0.37567">
        <ele>64.41</ele>
        <time>2019-05-19T13:38:47Z</time>
      </trkpt>
      <trkpt lat="44.72865" lon="-0.37523">
        <ele>65.94</ele>
        <time>2019-05-19T13:39:00Z</time>
      </trkpt>
      <trkpt lat="44.72863" lon="-0.37518">
        <ele>65.94</ele>
        <time>2019-05-19T13:39:02Z</time>
      </trkpt>
      <trkpt lat="44.72863" lon="-0.37516">
        <ele>65.94</ele>
        <time>2019-05-19T13:39:06Z</time>
      </trkpt>
      <trkpt lat="44.72861" lon="-0.37514">
        <ele>65.88</ele>
        <time>2019-05-19T13:39:11Z</time>
      </trkpt>
      <trkpt lat="44.72862" lon="-0.37515">
        <ele>65.88</ele>
        <time>2019-05-19T13:39:24Z</time>
      </trkpt>
      <trkpt lat="44.72869" lon="-0.37522">
        <ele>65.83</ele>
        <time>2019-05-19T13:40:29Z</time>
      </trkpt>
      <trkpt lat="44.7287" lon="-0.37524">
        <ele>66.58</ele>
        <time>2019-05-19T13:40:57Z</time>
      </trkpt>
      <trkpt lat="44.72872" lon="-0.37523">
        <ele>66.61</ele>
        <time>2019-05-19T13:41:07Z</time>
      </trkpt>
      <trkpt lat="44.72872" lon="-0.37524">
        <ele>64.92</ele>
        <time>2019-05-19T13:41:11Z</time>
      </trkpt>
      <trkpt lat="44.72873" lon="-0.37523">
        <ele>64.94</ele>
        <time>2019-05-19T13:41:12Z</time>
      </trkpt>
      <trkpt lat="44.72872" lon="-0.37522">
        <ele>64.96</ele>
        <time>2019-05-19T13:41:13Z</time>
      </trkpt>
      <trkpt lat="44.72871" lon="-0.37524">
        <ele>65.03</ele>
        <time>2019-05-19T13:41:14Z</time>
      </trkpt>
      <trkpt lat="44.72872" lon="-0.37524">
        <ele>67.25</ele>
        <time>2019-05-19T13:41:15Z</time>
      </trkpt>
      <trkpt lat="44.72872" lon="-0.37524">
        <ele>62.6</ele>
        <time>2019-05-19T13:41:28Z</time>
      </trkpt>
      <trkpt lat="44.72872" lon="-0.37524">
        <ele>65.08</ele>
        <time>2019-05-19T13:41:39Z</time>
      </trkpt>
      <trkpt lat="44.72872" lon="-0.37524">
        <ele>69.33</ele>
        <time>2019-05-19T13:41:52Z</time>
      </trkpt>
      <trkpt lat="44.72872" lon="-0.37524">
        <ele>69.33</ele>
        <time>2019-05-19T13:42:06Z</time>
      </trkpt>
      <trkpt lat="44.72871" lon="-0.37522">
        <ele>67.01</ele>
        <time>2019-05-19T13:42:17Z</time>
      </trkpt>
      <trkpt lat="44.7287" lon="-0.37519">
        <ele>66.97</ele>
        <time>2019-05-19T13:42:22Z</time>
      </trkpt>
      <trkpt lat="44.72868" lon="-0.37518">
        <ele>66.96</ele>
        <time>2019-05-19T13:42:23Z</time>
      </trkpt>
      <trkpt lat="44.72866" lon="-0.37518">
        <ele>66.97</ele>
        <time>2019-05-19T13:42:26Z</time>
      </trkpt>
      <trkpt lat="44.72864" lon="-0.37517">
        <ele>66.98</ele>
        <time>2019-05-19T13:42:31Z</time>
      </trkpt>
      <trkpt lat="44.72862" lon="-0.37515">
        <ele>67.01</ele>
        <time>2019-05-19T13:42:32Z</time>
      </trkpt>
      <trkpt lat="44.7286" lon="-0.37513">
        <ele>67</ele>
        <time>2019-05-19T13:42:36Z</time>
      </trkpt>
      <trkpt lat="44.72858" lon="-0.3751">
        <ele>67.01</ele>
        <time>2019-05-19T13:42:37Z</time>
      </trkpt>
      <trkpt lat="44.72857" lon="-0.37507">
        <ele>67.02</ele>
        <time>2019-05-19T13:42:38Z</time>
      </trkpt>
      <trkpt lat="44.72826" lon="-0.37467">
        <ele>65.35</ele>
        <time>2019-05-19T13:42:39Z</time>
      </trkpt>
      <trkpt lat="44.72823" lon="-0.37467">
        <ele>65.35</ele>
        <time>2019-05-19T13:42:40Z</time>
      </trkpt>
      <trkpt lat="44.7282" lon="-0.37469">
        <ele>65.35</ele>
        <time>2019-05-19T13:42:51Z</time>
      </trkpt>
      <trkpt lat="44.72817" lon="-0.37471">
        <ele>65.35</ele>
        <time>2019-05-19T13:43:01Z</time>
      </trkpt>
      <trkpt lat="44.72815" lon="-0.37473">
        <ele>65.35</ele>
        <time>2019-05-19T13:43:12Z</time>
      </trkpt>
      <trkpt lat="44.72804" lon="-0.37483">
        <ele>61.26</ele>
        <time>2019-05-19T13:43:18Z</time>
      </trkpt>
      <trkpt lat="44.72802" lon="-0.37485">
        <ele>67.98</ele>
        <time>2019-05-19T13:43:29Z</time>
      </trkpt>
      <trkpt lat="44.728" lon="-0.37487">
        <ele>62.81</ele>
        <time>2019-05-19T13:43:32Z</time>
      </trkpt>
      <trkpt lat="44.72798" lon="-0.37488">
        <ele>68.19</ele>
        <time>2019-05-19T13:43:41Z</time>
      </trkpt>
      <trkpt lat="44.72794" lon="-0.37492">
        <ele>69.35</ele>
        <time>2019-05-19T13:43:43Z</time>
      </trkpt>
      <trkpt lat="44.72775" lon="-0.37508">
        <ele>70.68</ele>
        <time>2019-05-19T13:43:52Z</time>
      </trkpt>
      <trkpt lat="44.7275" lon="-0.375">
        <ele>70.62</ele>
        <time>2019-05-19T13:43:59Z</time>
      </trkpt>
      <trkpt lat="44.7273" lon="-0.3743">
        <ele>70.59</ele>
        <time>2019-05-19T13:44:09Z</time>
      </trkpt>
      <trkpt lat="44.72686" lon="-0.37331">
        <ele>70.62</ele>
        <time>2019-05-19T13:44:22Z</time>
      </trkpt>
      <trkpt lat="44.72681" lon="-0.37319">
        <ele>70.61</ele>
        <time>2019-05-19T13:44:37Z</time>
      </trkpt>
      <trkpt lat="44.72671" lon="-0.37278">
        <ele>68.24</ele>
        <time>2019-05-19T13:44:48Z</time>
      </trkpt>
      <trkpt lat="44.72659" lon="-0.37167">
        <ele>67.51</ele>
        <time>2019-05-19T13:44:56Z</time>
      </trkpt>
      <trkpt lat="44.72655" lon="-0.37121">
        <ele>70</ele>
        <time>2019-05-19T13:45:09Z</time>
      </trkpt>
      <trkpt lat="44.72636" lon="-0.36973">
        <ele>70.77</ele>
        <time>2019-05-19T13:45:29Z</time>
      </trkpt>
      <trkpt lat="44.72634" lon="-0.36862">
        <ele>70.86</ele>
        <time>2019-05-19T13:45:44Z</time>
      </trkpt>
      <trkpt lat="44.72633" lon="-0.36855">
        <ele>70.86</ele>
        <time>2019-05-19T13:46:00Z</time>
      </trkpt>
      <trkpt lat="44.72632" lon="-0.36849">
        <ele>70.86</ele>
        <time>2019-05-19T13:46:13Z</time>
      </trkpt>
      <trkpt lat="44.72618" lon="-0.36743">
        <ele>70.93</ele>
        <time>2019-05-19T13:46:27Z</time>
      </trkpt>
      <trkpt lat="44.72614" lon="-0.36721">
        <ele>70.92</ele>
        <time>2019-05-19T13:46:37Z</time>
      </trkpt>
      <trkpt lat="44.7261" lon="-0.36726">
        <ele>70.91</ele>
        <time>2019-05-19T13:46:51Z</time>
      </trkpt>
      <trkpt lat="44.72609" lon="-0.3673">
        <ele>70.89</ele>
        <time>2019-05-19T13:47:06Z</time>
      </trkpt>
      <trkpt lat="44.72607" lon="-0.36735">
        <ele>70.89</ele>
        <time>2019-05-19T13:47:21Z</time>
      </trkpt>
      <trkpt lat="44.72605" lon="-0.36741">
        <ele>68.43</ele>
        <time>2019-05-19T13:47:38Z</time>
      </trkpt>
      <trkpt lat="44.72603" lon="-0.36746">
        <ele>68.42</ele>
        <time>2019-05-19T13:47:41Z</time>
      </trkpt>
      <trkpt lat="44.726" lon="-0.36751">
        <ele>68.42</ele>
        <time>2019-05-19T13:47:42Z</time>
      </trkpt>
      <trkpt lat="44.72593" lon="-0.36762">
        <ele>67.41</ele>
        <time>2019-05-19T13:47:44Z</time>
      </trkpt>
      <trkpt lat="44.72561" lon="-0.36797">
        <ele>64.51</ele>
        <time>2019-05-19T13:47:45Z</time>
      </trkpt>
      <trkpt lat="44.72556" lon="-0.36801">
        <ele>63.52</ele>
        <time>2019-05-19T13:47:54Z</time>
      </trkpt>
      <trkpt lat="44.72549" lon="-0.36802">
        <ele>63.51</ele>
        <time>2019-05-19T13:48:09Z</time>
      </trkpt>
      <trkpt lat="44.72522" lon="-0.36804">
        <ele>66.42</ele>
        <time>2019-05-19T13:48:42Z</time>
      </trkpt>
      <trkpt lat="44.72514" lon="-0.36806">
        <ele>67.73</ele>
        <time>2019-05-19T13:49:02Z</time>
      </trkpt>
      <trkpt lat="44.72507" lon="-0.36807">
        <ele>69.08</ele>
        <time>2019-05-19T13:49:16Z</time>
      </trkpt>
      <trkpt lat="44.72478" lon="-0.36833">
        <ele>70.2</ele>
        <time>2019-05-19T13:50:05Z</time>
      </trkpt>
      <trkpt lat="44.72454" lon="-0.36857">
        <ele>69.98</ele>
        <time>2019-05-19T13:51:12Z</time>
      </trkpt>
      <trkpt lat="44.72416" lon="-0.36906">
        <ele>70.79</ele>
        <time>2019-05-19T13:51:19Z</time>
      </trkpt>
      <trkpt lat="44.72371" lon="-0.36945">
        <ele>70.7</ele>
        <time>2019-05-19T13:51:21Z</time>
      </trkpt>
      <trkpt lat="44.72352" lon="-0.36958">
        <ele>68.28</ele>
        <time>2019-05-19T13:51:22Z</time>
      </trkpt>
      <trkpt lat="44.72313" lon="-0.36989">
        <ele>68.38</ele>
        <time>2019-05-19T13:51:24Z</time>
      </trkpt>
      <trkpt lat="44.72311" lon="-0.36984">
        <ele>68.4</ele>
        <time>2019-05-19T13:51:25Z</time>
      </trkpt>
      <trkpt lat="44.72305" lon="-0.3692">
        <ele>68.35</ele>
        <time>2019-05-19T13:51:29Z</time>
      </trkpt>
      <trkpt lat="44.72304" lon="-0.36915">
        <ele>67.22</ele>
        <time>2019-05-19T13:51:32Z</time>
      </trkpt>
      <trkpt lat="44.72292" lon="-0.36895">
        <ele>64.87</ele>
        <time>2019-05-19T13:51:33Z</time>
      </trkpt>
      <trkpt lat="44.72227" lon="-0.36864">
        <ele>60.99</ele>
        <time>2019-05-19T13:51:34Z</time>
      </trkpt>
      <trkpt lat="44.72203" lon="-0.36862">
        <ele>59.04</ele>
        <time>2019-05-19T13:51:35Z</time>
      </trkpt>
      <trkpt lat="44.72189" lon="-0.36863">
        <ele>56.02</ele>
        <time>2019-05-19T13:51:36Z</time>
      </trkpt>
      <trkpt lat="44.72173" lon="-0.36865">
        <ele>52.41</ele>
        <time>2019-05-19T13:51:37Z</time>
      </trkpt>
      <trkpt lat="44.72145" lon="-0.36867">
        <ele>47.89</ele>
        <time>2019-05-19T13:51:38Z</time>
      </trkpt>
      <trkpt lat="44.72124" lon="-0.3687">
        <ele>43.51</ele>
        <time>2019-05-19T13:51:39Z</time>
      </trkpt>
      <trkpt lat="44.72102" lon="-0.36872">
        <ele>39.49</ele>
        <time>2019-05-19T13:51:52Z</time>
      </trkpt>
      <trkpt lat="44.72073" lon="-0.36876">
        <ele>35.58</ele>
        <time>2019-05-19T13:51:53Z</time>
      </trkpt>
      <trkpt lat="44.72064" lon="-0.36877">
        <ele>35.76</ele>
        <time>2019-05-19T13:51:54Z</time>
      </trkpt>
      <trkpt lat="44.72046" lon="-0.36881">
        <ele>33.55</ele>
        <time>2019-05-19T13:51:55Z</time>
      </trkpt>
      <trkpt lat="44.72015" lon="-0.369">
        <ele>29.53</ele>
        <time>2019-05-19T13:51:56Z</time>
      </trkpt>
      <trkpt lat="44.72007" lon="-0.36916">
        <ele>28.62</ele>
        <time>2019-05-19T13:52:01Z</time>
      </trkpt>
      <trkpt lat="44.71997" lon="-0.36993">
        <ele>31.89</ele>
        <time>2019-05-19T13:52:02Z</time>
      </trkpt>
      <trkpt lat="44.71997" lon="-0.36998">
        <ele>31.89</ele>
        <time>2019-05-19T13:52:03Z</time>
      </trkpt>
      <trkpt lat="44.72007" lon="-0.37068">
        <ele>31.83</ele>
        <time>2019-05-19T13:52:04Z</time>
      </trkpt>
      <trkpt lat="44.72014" lon="-0.37128">
        <ele>31.8</ele>
        <time>2019-05-19T13:52:06Z</time>
      </trkpt>
      <trkpt lat="44.72016" lon="-0.37145">
        <ele>29.44</ele>
        <time>2019-05-19T13:52:16Z</time>
      </trkpt>
      <trkpt lat="44.72015" lon="-0.3715">
        <ele>29.44</ele>
        <time>2019-05-19T13:52:27Z</time>
      </trkpt>
      <trkpt lat="44.7201" lon="-0.37149">
        <ele>28.51</ele>
        <time>2019-05-19T13:52:42Z</time>
      </trkpt>
      <trkpt lat="44.72005" lon="-0.37143">
        <ele>27.77</ele>
        <time>2019-05-19T13:53:01Z</time>
      </trkpt>
      <trkpt lat="44.71993" lon="-0.37136">
        <ele>26.12</ele>
        <time>2019-05-19T13:53:03Z</time>
      </trkpt>
      <trkpt lat="44.71989" lon="-0.37111">
        <ele>23.49</ele>
        <time>2019-05-19T13:53:09Z</time>
      </trkpt>
      <trkpt lat="44.71987" lon="-0.37088">
        <ele>21.67</ele>
        <time>2019-05-19T13:53:24Z</time>
      </trkpt>
      <trkpt lat="44.71985" lon="-0.37072">
        <ele>21.67</ele>
        <time>2019-05-19T13:53:31Z</time>
      </trkpt>
      <trkpt lat="44.71982" lon="-0.37057">
        <ele>21.69</ele>
        <time>2019-05-19T13:53:53Z</time>
      </trkpt>
      <trkpt lat="44.7198" lon="-0.37044">
        <ele>21.72</ele>
        <time>2019-05-19T13:54:09Z</time>
      </trkpt>
      <trkpt lat="44.71977" lon="-0.37026">
        <ele>21.64</ele>
        <time>2019-05-19T13:54:10Z</time>
      </trkpt>
      <trkpt lat="44.71978" lon="-0.37015">
        <ele>21.59</ele>
        <time>2019-05-19T13:54:11Z</time>
      </trkpt>
      <trkpt lat="44.71981" lon="-0.37009">
        <ele>23.82</ele>
        <time>2019-05-19T13:54:28Z</time>
      </trkpt>
      <trkpt lat="44.71985" lon="-0.36993">
        <ele>23.73</ele>
        <time>2019-05-19T13:54:32Z</time>
      </trkpt>
      <trkpt lat="44.71987" lon="-0.36982">
        <ele>23.65</ele>
        <time>2019-05-19T13:54:34Z</time>
      </trkpt>
      <trkpt lat="44.71991" lon="-0.36965">
        <ele>23.57</ele>
        <time>2019-05-19T13:54:35Z</time>
      </trkpt>
      <trkpt lat="44.71993" lon="-0.36947">
        <ele>23.47</ele>
        <time>2019-05-19T13:54:36Z</time>
      </trkpt>
      <trkpt lat="44.71992" lon="-0.36937">
        <ele>21.06</ele>
        <time>2019-05-19T13:54:37Z</time>
      </trkpt>
      <trkpt lat="44.71993" lon="-0.36904">
        <ele>20.12</ele>
        <time>2019-05-19T13:54:38Z</time>
      </trkpt>
      <trkpt lat="44.72004" lon="-0.36886">
        <ele>22.75</ele>
        <time>2019-05-19T13:54:39Z</time>
      </trkpt>
      <trkpt lat="44.72005" lon="-0.36883">
        <ele>23.64</ele>
        <time>2019-05-19T13:54:41Z</time>
      </trkpt>
      <trkpt lat="44.72013" lon="-0.36864">
        <ele>27.09</ele>
        <time>2019-05-19T13:54:48Z</time>
      </trkpt>
      <trkpt lat="44.72032" lon="-0.36838">
        <ele>29.38</ele>
        <time>2019-05-19T13:54:49Z</time>
      </trkpt>
      <trkpt lat="44.72034" lon="-0.36836">
        <ele>29.33</ele>
        <time>2019-05-19T13:54:50Z</time>
      </trkpt>
      <trkpt lat="44.72036" lon="-0.36808">
        <ele>29.08</ele>
        <time>2019-05-19T13:54:56Z</time>
      </trkpt>
      <trkpt lat="44.72036" lon="-0.36799">
        <ele>26.67</ele>
        <time>2019-05-19T13:54:58Z</time>
      </trkpt>
      <trkpt lat="44.7204" lon="-0.36775">
        <ele>25.61</ele>
        <time>2019-05-19T13:55:00Z</time>
      </trkpt>
      <trkpt lat="44.7204" lon="-0.36754">
        <ele>24.83</ele>
        <time>2019-05-19T13:55:10Z</time>
      </trkpt>
      <trkpt lat="44.72041" lon="-0.36738">
        <ele>24.03</ele>
        <time>2019-05-19T13:55:17Z</time>
      </trkpt>
      <trkpt lat="44.72043" lon="-0.36723">
        <ele>24.01</ele>
        <time>2019-05-19T13:55:31Z</time>
      </trkpt>
      <trkpt lat="44.72048" lon="-0.36696">
        <ele>23.95</ele>
        <time>2019-05-19T13:55:45Z</time>
      </trkpt>
      <trkpt lat="44.72049" lon="-0.36662">
        <ele>20.91</ele>
        <time>2019-05-19T13:55:50Z</time>
      </trkpt>
      <trkpt lat="44.72057" lon="-0.36608">
        <ele>19.93</ele>
        <time>2019-05-19T13:56:03Z</time>
      </trkpt>
      <trkpt lat="44.72061" lon="-0.36557">
        <ele>19.86</ele>
        <time>2019-05-19T13:56:05Z</time>
      </trkpt>
      <trkpt lat="44.72064" lon="-0.36501">
        <ele>19.75</ele>
        <time>2019-05-19T13:56:20Z</time>
      </trkpt>
      <trkpt lat="44.72074" lon="-0.36452">
        <ele>16.04</ele>
        <time>2019-05-19T13:56:21Z</time>
      </trkpt>
      <trkpt lat="44.72073" lon="-0.36448">
        <ele>16.04</ele>
        <time>2019-05-19T13:56:25Z</time>
      </trkpt>
      <trkpt lat="44.72072" lon="-0.36446">
        <ele>15.18</ele>
        <time>2019-05-19T13:56:39Z</time>
      </trkpt>
      <trkpt lat="44.7207" lon="-0.36445">
        <ele>15.18</ele>
        <time>2019-05-19T13:56:43Z</time>
      </trkpt>
      <trkpt lat="44.72067" lon="-0.36444">
        <ele>15.15</ele>
        <time>2019-05-19T13:56:45Z</time>
      </trkpt>
      <trkpt lat="44.72064" lon="-0.36443">
        <ele>14.24</ele>
        <time>2019-05-19T13:56:47Z</time>
      </trkpt>
      <trkpt lat="44.72038" lon="-0.36435">
        <ele>10.66</ele>
        <time>2019-05-19T13:56:50Z</time>
      </trkpt>
      <trkpt lat="44.72033" lon="-0.3643">
        <ele>10.16</ele>
        <time>2019-05-19T13:56:52Z</time>
      </trkpt>
      <trkpt lat="44.72033" lon="-0.36425">
        <ele>10.22</ele>
        <time>2019-05-19T13:56:54Z</time>
      </trkpt>
      <trkpt lat="44.72033" lon="-0.36421">
        <ele>10.24</ele>
        <time>2019-05-19T13:56:57Z</time>
      </trkpt>
      <trkpt lat="44.72033" lon="-0.36419">
        <ele>10.24</ele>
        <time>2019-05-19T13:56:58Z</time>
      </trkpt>
      <trkpt lat="44.72047" lon="-0.3639">
        <ele>10.34</ele>
        <time>2019-05-19T13:57:00Z</time>
      </trkpt>
      <trkpt lat="44.72049" lon="-0.36383">
        <ele>12.74</ele>
        <time>2019-05-19T13:57:04Z</time>
      </trkpt>
      <trkpt lat="44.72064" lon="-0.36349">
        <ele>14.55</ele>
        <time>2019-05-19T13:57:06Z</time>
      </trkpt>
      <trkpt lat="44.72084" lon="-0.3632">
        <ele>16.98</ele>
        <time>2019-05-19T13:57:18Z</time>
      </trkpt>
      <trkpt lat="44.72096" lon="-0.36274">
        <ele>16.89</ele>
        <time>2019-05-19T13:57:19Z</time>
      </trkpt>
      <trkpt lat="44.7209" lon="-0.36227">
        <ele>17.58</ele>
        <time>2019-05-19T13:57:34Z</time>
      </trkpt>
      <trkpt lat="44.7207" lon="-0.36182">
        <ele>17.51</ele>
        <time>2019-05-19T13:57:45Z</time>
      </trkpt>
      <trkpt lat="44.72054" lon="-0.36124">
        <ele>17.51</ele>
        <time>2019-05-19T13:57:48Z</time>
      </trkpt>
      <trkpt lat="44.72054" lon="-0.36089">
        <ele>17.51</ele>
        <time>2019-05-19T13:57:50Z</time>
      </trkpt>
      <trkpt lat="44.72055" lon="-0.36083">
        <ele>14.9</ele>
        <time>2019-05-19T13:57:54Z</time>
      </trkpt>
      <trkpt lat="44.72056" lon="-0.36077">
        <ele>14.89</ele>
        <time>2019-05-19T13:57:59Z</time>
      </trkpt>
      <trkpt lat="44.72058" lon="-0.3607">
        <ele>14.05</ele>
        <time>2019-05-19T13:58:05Z</time>
      </trkpt>
      <trkpt lat="44.72059" lon="-0.36063">
        <ele>14.03</ele>
        <time>2019-05-19T13:58:13Z</time>
      </trkpt>
      <trkpt lat="44.72061" lon="-0.36056">
        <ele>14.03</ele>
        <time>2019-05-19T13:58:19Z</time>
      </trkpt>
      <trkpt lat="44.72072" lon="-0.35961">
        <ele>10.22</ele>
        <time>2019-05-19T13:58:23Z</time>
      </trkpt>
      <trkpt lat="44.7207" lon="-0.3593">
        <ele>9.45</ele>
        <time>2019-05-19T13:58:28Z</time>
      </trkpt>
      <trkpt lat="44.7205" lon="-0.35842">
        <ele>9.64</ele>
        <time>2019-05-19T13:58:33Z</time>
      </trkpt>
      <trkpt lat="44.72056" lon="-0.358">
        <ele>9.66</ele>
        <time>2019-05-19T13:58:39Z</time>
      </trkpt>
      <trkpt lat="44.72059" lon="-0.35799">
        <ele>11.97</ele>
        <time>2019-05-19T13:58:42Z</time>
      </trkpt>
      <trkpt lat="44.72061" lon="-0.35799">
        <ele>11.98</ele>
        <time>2019-05-19T13:58:45Z</time>
      </trkpt>
      <trkpt lat="44.72063" lon="-0.35801">
        <ele>11.98</ele>
        <time>2019-05-19T13:58:49Z</time>
      </trkpt>
      <trkpt lat="44.72066" lon="-0.35803">
        <ele>11.99</ele>
        <time>2019-05-19T13:58:52Z</time>
      </trkpt>
      <trkpt lat="44.72107" lon="-0.35822">
        <ele>14.83</ele>
        <time>2019-05-19T13:58:57Z</time>
      </trkpt>
      <trkpt lat="44.72155" lon="-0.35845">
        <ele>16.79</ele>
        <time>2019-05-19T13:59:02Z</time>
      </trkpt>
      <trkpt lat="44.72187" lon="-0.3587">
        <ele>19.47</ele>
        <time>2019-05-19T13:59:04Z</time>
      </trkpt>
      <trkpt lat="44.72189" lon="-0.35869">
        <ele>19.47</ele>
        <time>2019-05-19T13:59:12Z</time>
      </trkpt>
      <trkpt lat="44.72195" lon="-0.35854">
        <ele>21.6</ele>
        <time>2019-05-19T13:59:20Z</time>
      </trkpt>
      <trkpt lat="44.72196" lon="-0.35853">
        <ele>22.51</ele>
        <time>2019-05-19T13:59:21Z</time>
      </trkpt>
      <trkpt lat="44.72215" lon="-0.35801">
        <ele>22.45</ele>
        <time>2019-05-19T13:59:29Z</time>
      </trkpt>
      <trkpt lat="44.7223" lon="-0.35755">
        <ele>25.23</ele>
        <time>2019-05-19T13:59:44Z</time>
      </trkpt>
      <trkpt lat="44.72241" lon="-0.357">
        <ele>25.95</ele>
        <time>2019-05-19T13:59:46Z</time>
      </trkpt>
      <trkpt lat="44.7223" lon="-0.35666">
        <ele>25.92</ele>
        <time>2019-05-19T13:59:57Z</time>
      </trkpt>
      <trkpt lat="44.72213" lon="-0.35621">
        <ele>25.88</ele>
        <time>2019-05-19T14:00:00Z</time>
      </trkpt>
      <trkpt lat="44.7221" lon="-0.35569">
        <ele>25.84</ele>
        <time>2019-05-19T14:00:05Z</time>
      </trkpt>
      <trkpt lat="44.72204" lon="-0.35515">
        <ele>25.79</ele>
        <time>2019-05-19T14:00:10Z</time>
      </trkpt>
      <trkpt lat="44.722" lon="-0.35482">
        <ele>25.77</ele>
        <time>2019-05-19T14:00:14Z</time>
      </trkpt>
      <trkpt lat="44.72192" lon="-0.35478">
        <ele>25.74</ele>
        <time>2019-05-19T14:00:18Z</time>
      </trkpt>
      <trkpt lat="44.72189" lon="-0.35475">
        <ele>25.74</ele>
        <time>2019-05-19T14:00:25Z</time>
      </trkpt>
      <trkpt lat="44.7219" lon="-0.35468">
        <ele>23.22</ele>
        <time>2019-05-19T14:00:32Z</time>
      </trkpt>
      <trkpt lat="44.72188" lon="-0.35453">
        <ele>22.43</ele>
        <time>2019-05-19T14:00:43Z</time>
      </trkpt>
      <trkpt lat="44.72187" lon="-0.35431">
        <ele>22.45</ele>
        <time>2019-05-19T14:00:55Z</time>
      </trkpt>
      <trkpt lat="44.72192" lon="-0.35401">
        <ele>24.73</ele>
        <time>2019-05-19T14:01:08Z</time>
      </trkpt>
      <trkpt lat="44.72201" lon="-0.35379">
        <ele>24.65</ele>
        <time>2019-05-19T14:01:20Z</time>
      </trkpt>
      <trkpt lat="44.72222" lon="-0.35352">
        <ele>25.5</ele>
        <time>2019-05-19T14:01:21Z</time>
      </trkpt>
      <trkpt lat="44.72244" lon="-0.35336">
        <ele>25.39</ele>
        <time>2019-05-19T14:01:22Z</time>
      </trkpt>
      <trkpt lat="44.72249" lon="-0.35335">
        <ele>25.35</ele>
        <time>2019-05-19T14:01:23Z</time>
      </trkpt>
      <trkpt lat="44.72258" lon="-0.35333">
        <ele>25.3</ele>
        <time>2019-05-19T14:01:24Z</time>
      </trkpt>
      <trkpt lat="44.72282" lon="-0.35332">
        <ele>26.96</ele>
        <time>2019-05-19T14:01:25Z</time>
      </trkpt>
      <trkpt lat="44.72308" lon="-0.35334">
        <ele>27.72</ele>
        <time>2019-05-19T14:01:34Z</time>
      </trkpt>
      <trkpt lat="44.72337" lon="-0.35334">
        <ele>29.05</ele>
        <time>2019-05-19T14:01:46Z</time>
      </trkpt>
      <trkpt lat="44.72339" lon="-0.35334">
        <ele>29.86</ele>
        <time>2019-05-19T14:01:58Z</time>
      </trkpt>
      <trkpt lat="44.72357" lon="-0.35329">
        <ele>29.79</ele>
        <time>2019-05-19T14:02:00Z</time>
      </trkpt>
      <trkpt lat="44.72366" lon="-0.35319">
        <ele>29.73</ele>
        <time>2019-05-19T14:02:01Z</time>
      </trkpt>
      <trkpt lat="44.72401" lon="-0.35317">
        <ele>29.63</ele>
        <time>2019-05-19T14:02:13Z</time>
      </trkpt>
      <trkpt lat="44.72416" lon="-0.35321">
        <ele>29.59</ele>
        <time>2019-05-19T14:02:16Z</time>
      </trkpt>
      <trkpt lat="44.72423" lon="-0.35324">
        <ele>29.41</ele>
        <time>2019-05-19T14:02:28Z</time>
      </trkpt>
      <trkpt lat="44.72429" lon="-0.35326">
        <ele>29.24</ele>
        <time>2019-05-19T14:02:40Z</time>
      </trkpt>
      <trkpt lat="44.72429" lon="-0.35326">
        <ele>29.17</ele>
        <time>2019-05-19T14:02:52Z</time>
      </trkpt>
      <trkpt lat="44.72428" lon="-0.35325">
        <ele>29.03</ele>
        <time>2019-05-19T14:03:05Z</time>
      </trkpt>
      <trkpt lat="44.72424" lon="-0.35324">
        <ele>28.85</ele>
        <time>2019-05-19T14:03:17Z</time>
      </trkpt>
      <trkpt lat="44.72426" lon="-0.35326">
        <ele>28.65</ele>
        <time>2019-05-19T14:03:29Z</time>
      </trkpt>
      <trkpt lat="44.72424" lon="-0.35332">
        <ele>28.48</ele>
        <time>2019-05-19T14:03:35Z</time>
      </trkpt>
      <trkpt lat="44.72423" lon="-0.3533">
        <ele>28.41</ele>
        <time>2019-05-19T14:03:36Z</time>
      </trkpt>
      <trkpt lat="44.72426" lon="-0.3533">
        <ele>28.31</ele>
        <time>2019-05-19T14:03:37Z</time>
      </trkpt>
      <trkpt lat="44.72425" lon="-0.35329">
        <ele>28.23</ele>
        <time>2019-05-19T14:03:38Z</time>
      </trkpt>
      <trkpt lat="44.72425" lon="-0.35328">
        <ele>28.1</ele>
        <time>2019-05-19T14:03:39Z</time>
      </trkpt>
      <trkpt lat="44.72429" lon="-0.3533">
        <ele>28.02</ele>
        <time>2019-05-19T14:03:40Z</time>
      </trkpt>
      <trkpt lat="44.72428" lon="-0.35331">
        <ele>28.03</ele>
        <time>2019-05-19T14:03:53Z</time>
      </trkpt>
      <trkpt lat="44.72432" lon="-0.35326">
        <ele>28.07</ele>
        <time>2019-05-19T14:03:57Z</time>
      </trkpt>
      <trkpt lat="44.72439" lon="-0.35316">
        <ele>28.1</ele>
        <time>2019-05-19T14:04:12Z</time>
      </trkpt>
      <trkpt lat="44.72435" lon="-0.35318">
        <ele>28.11</ele>
        <time>2019-05-19T14:04:21Z</time>
      </trkpt>
      <trkpt lat="44.7243" lon="-0.35321">
        <ele>28.08</ele>
        <time>2019-05-19T14:04:22Z</time>
      </trkpt>
      <trkpt lat="44.72435" lon="-0.3532">
        <ele>28.11</ele>
        <time>2019-05-19T14:04:23Z</time>
      </trkpt>
      <trkpt lat="44.72435" lon="-0.3532">
        <ele>28.1</ele>
        <time>2019-05-19T14:04:24Z</time>
      </trkpt>
      <trkpt lat="44.72439" lon="-0.35315">
        <ele>25.68</ele>
        <time>2019-05-19T14:04:25Z</time>
      </trkpt>
      <trkpt lat="44.72444" lon="-0.35311">
        <ele>23.81</ele>
        <time>2019-05-19T14:04:40Z</time>
      </trkpt>
      <trkpt lat="44.72449" lon="-0.35303">
        <ele>19.68</ele>
        <time>2019-05-19T14:04:57Z</time>
      </trkpt>
      <trkpt lat="44.72451" lon="-0.35301">
        <ele>18.84</ele>
        <time>2019-05-19T14:05:09Z</time>
      </trkpt>
      <trkpt lat="44.72455" lon="-0.35298">
        <ele>17.91</ele>
        <time>2019-05-19T14:05:10Z</time>
      </trkpt>
      <trkpt lat="44.72458" lon="-0.35296">
        <ele>16.47</ele>
        <time>2019-05-19T14:05:18Z</time>
      </trkpt>
      <trkpt lat="44.72459" lon="-0.35292">
        <ele>16.49</ele>
        <time>2019-05-19T14:05:19Z</time>
      </trkpt>
      <trkpt lat="44.72459" lon="-0.35289">
        <ele>15.65</ele>
        <time>2019-05-19T14:05:35Z</time>
      </trkpt>
      <trkpt lat="44.72442" lon="-0.35229">
        <ele>13.83</ele>
        <time>2019-05-19T14:05:51Z</time>
      </trkpt>
      <trkpt lat="44.72427" lon="-0.35193">
        <ele>12.19</ele>
        <time>2019-05-19T14:06:08Z</time>
      </trkpt>
      <trkpt lat="44.72426" lon="-0.3519">
        <ele>12.2</ele>
        <time>2019-05-19T14:06:20Z</time>
      </trkpt>
      <trkpt lat="44.72422" lon="-0.35181">
        <ele>12.22</ele>
        <time>2019-05-19T14:06:31Z</time>
      </trkpt>
      <trkpt lat="44.72425" lon="-0.35172">
        <ele>12.09</ele>
        <time>2019-05-19T14:06:43Z</time>
      </trkpt>
      <trkpt lat="44.72431" lon="-0.35169">
        <ele>12.06</ele>
        <time>2019-05-19T14:06:57Z</time>
      </trkpt>
      <trkpt lat="44.72439" lon="-0.35166">
        <ele>11.99</ele>
        <time>2019-05-19T14:07:06Z</time>
      </trkpt>
      <trkpt lat="44.7246" lon="-0.35163">
        <ele>11.84</ele>
        <time>2019-05-19T14:07:12Z</time>
      </trkpt>
      <trkpt lat="44.72473" lon="-0.3516">
        <ele>11.78</ele>
        <time>2019-05-19T14:07:15Z</time>
      </trkpt>
      <trkpt lat="44.72485" lon="-0.35157">
        <ele>14</ele>
        <time>2019-05-19T14:07:18Z</time>
      </trkpt>
      <trkpt lat="44.72487" lon="-0.35156">
        <ele>13.99</ele>
        <time>2019-05-19T14:07:26Z</time>
      </trkpt>
      <trkpt lat="44.72496" lon="-0.35149">
        <ele>14.87</ele>
        <time>2019-05-19T14:07:35Z</time>
      </trkpt>
      <trkpt lat="44.72505" lon="-0.35143">
        <ele>14.81</ele>
        <time>2019-05-19T14:07:46Z</time>
      </trkpt>
      <trkpt lat="44.72516" lon="-0.35141">
        <ele>14.77</ele>
        <time>2019-05-19T14:07:55Z</time>
      </trkpt>
      <trkpt lat="44.72546" lon="-0.35123">
        <ele>15.46</ele>
        <time>2019-05-19T14:08:06Z</time>
      </trkpt>
      <trkpt lat="44.72572" lon="-0.3511">
        <ele>15.24</ele>
        <time>2019-05-19T14:08:17Z</time>
      </trkpt>
      <trkpt lat="44.72577" lon="-0.35107">
        <ele>16.02</ele>
        <time>2019-05-19T14:08:19Z</time>
      </trkpt>
      <trkpt lat="44.72579" lon="-0.35103">
        <ele>15.98</ele>
        <time>2019-05-19T14:08:23Z</time>
      </trkpt>
      <trkpt lat="44.72593" lon="-0.3509">
        <ele>16.6</ele>
        <time>2019-05-19T14:08:36Z</time>
      </trkpt>
      <trkpt lat="44.7261" lon="-0.35086">
        <ele>16.42</ele>
        <time>2019-05-19T14:08:48Z</time>
      </trkpt>
      <trkpt lat="44.72624" lon="-0.3508">
        <ele>16.26</ele>
        <time>2019-05-19T14:08:59Z</time>
      </trkpt>
      <trkpt lat="44.7263" lon="-0.35078">
        <ele>16.23</ele>
        <time>2019-05-19T14:09:00Z</time>
      </trkpt>
      <trkpt lat="44.72642" lon="-0.35071">
        <ele>16.12</ele>
        <time>2019-05-19T14:09:09Z</time>
      </trkpt>
      <trkpt lat="44.72667" lon="-0.35055">
        <ele>16.74</ele>
        <time>2019-05-19T14:09:15Z</time>
      </trkpt>
      <trkpt lat="44.72671" lon="-0.35052">
        <ele>16.69</ele>
        <time>2019-05-19T14:09:28Z</time>
      </trkpt>
      <trkpt lat="44.72702" lon="-0.3504">
        <ele>17.4</ele>
        <time>2019-05-19T14:09:37Z</time>
      </trkpt>
      <trkpt lat="44.72718" lon="-0.3504">
        <ele>20.83</ele>
        <time>2019-05-19T14:10:10Z</time>
      </trkpt>
      <trkpt lat="44.72738" lon="-0.3504">
        <ele>24.32</ele>
        <time>2019-05-19T14:10:50Z</time>
      </trkpt>
      <trkpt lat="44.72761" lon="-0.35027">
        <ele>26.7</ele>
        <time>2019-05-19T14:11:18Z</time>
      </trkpt>
      <trkpt lat="44.72788" lon="-0.35017">
        <ele>27.31</ele>
        <time>2019-05-19T14:12:10Z</time>
      </trkpt>
      <trkpt lat="44.72794" lon="-0.35017">
        <ele>27.26</ele>
        <time>2019-05-19T14:13:08Z</time>
      </trkpt>
      <trkpt lat="44.72802" lon="-0.35016">
        <ele>27.21</ele>
        <time>2019-05-19T14:14:04Z</time>
      </trkpt>
      <trkpt lat="44.72813" lon="-0.35014">
        <ele>24.39</ele>
        <time>2019-05-19T14:14:54Z</time>
      </trkpt>
      <trkpt lat="44.72819" lon="-0.3501">
        <ele>23.46</ele>
        <time>2019-05-19T14:15:45Z</time>
      </trkpt>
      <trkpt lat="44.72843" lon="-0.34985">
        <ele>22.17</ele>
        <time>2019-05-19T14:16:35Z</time>
      </trkpt>
      <trkpt lat="44.72873" lon="-0.34969">
        <ele>22.31</ele>
        <time>2019-05-19T14:17:24Z</time>
      </trkpt>
      <trkpt lat="44.72875" lon="-0.34968">
        <ele>22.33</ele>
        <time>2019-05-19T14:18:18Z</time>
      </trkpt>
      <trkpt lat="44.72905" lon="-0.3495">
        <ele>24.72</ele>
        <time>2019-05-19T14:19:03Z</time>
      </trkpt>
      <trkpt lat="44.72941" lon="-0.34937">
        <ele>25.42</ele>
        <time>2019-05-19T14:19:36Z</time>
      </trkpt>
      <trkpt lat="44.7298" lon="-0.34914">
        <ele>25.31</ele>
        <time>2019-05-19T14:20:08Z</time>
      </trkpt>
      <trkpt lat="44.73017" lon="-0.3489">
        <ele>25.23</ele>
        <time>2019-05-19T14:20:49Z</time>
      </trkpt>
      <trkpt lat="44.73049" lon="-0.34867">
        <ele>25.22</ele>
        <time>2019-05-19T14:21:28Z</time>
      </trkpt>
      <trkpt lat="44.73072" lon="-0.3486">
        <ele>25.23</ele>
        <time>2019-05-19T14:22:05Z</time>
      </trkpt>
      <trkpt lat="44.73082" lon="-0.34856">
        <ele>25.25</ele>
        <time>2019-05-19T14:22:27Z</time>
      </trkpt>
      <trkpt lat="44.7311" lon="-0.34835">
        <ele>28.84</ele>
        <time>2019-05-19T14:22:29Z</time>
      </trkpt>
      <trkpt lat="44.7313" lon="-0.34822">
        <ele>31.47</ele>
        <time>2019-05-19T14:22:34Z</time>
      </trkpt>
      <trkpt lat="44.73141" lon="-0.34817">
        <ele>33</ele>
        <time>2019-05-19T14:22:38Z</time>
      </trkpt>
      <trkpt lat="44.7314" lon="-0.34819">
        <ele>32.98</ele>
        <time>2019-05-19T14:22:43Z</time>
      </trkpt>
      <trkpt lat="44.73136" lon="-0.34822">
        <ele>34.39</ele>
        <time>2019-05-19T14:22:44Z</time>
      </trkpt>
      <trkpt lat="44.73136" lon="-0.34822">
        <ele>30.23</ele>
        <time>2019-05-19T14:22:46Z</time>
      </trkpt>
      <trkpt lat="44.73136" lon="-0.34822">
        <ele>33.9</ele>
        <time>2019-05-19T14:22:47Z</time>
      </trkpt>
      <trkpt lat="44.73137" lon="-0.3482">
        <ele>33.88</ele>
        <time>2019-05-19T14:22:48Z</time>
      </trkpt>
      <trkpt lat="44.73139" lon="-0.34819">
        <ele>33.9</ele>
        <time>2019-05-19T14:22:49Z</time>
      </trkpt>
      <trkpt lat="44.73141" lon="-0.34818">
        <ele>33.92</ele>
        <time>2019-05-19T14:23:01Z</time>
      </trkpt>
      <trkpt lat="44.73154" lon="-0.34815">
        <ele>33.96</ele>
        <time>2019-05-19T14:23:11Z</time>
      </trkpt>
      <trkpt lat="44.73155" lon="-0.34813">
        <ele>33.98</ele>
        <time>2019-05-19T14:23:13Z</time>
      </trkpt>
      <trkpt lat="44.73155" lon="-0.34811">
        <ele>34.03</ele>
        <time>2019-05-19T14:23:27Z</time>
      </trkpt>
      <trkpt lat="44.73155" lon="-0.34808">
        <ele>35.05</ele>
        <time>2019-05-19T14:23:45Z</time>
      </trkpt>
      <trkpt lat="44.73155" lon="-0.34806">
        <ele>35.07</ele>
        <time>2019-05-19T14:23:57Z</time>
      </trkpt>
      <trkpt lat="44.73154" lon="-0.34804">
        <ele>35.07</ele>
        <time>2019-05-19T14:24:04Z</time>
      </trkpt>
      <trkpt lat="44.73147" lon="-0.34756">
        <ele>35.04</ele>
        <time>2019-05-19T14:24:17Z</time>
      </trkpt>
      <trkpt lat="44.7315" lon="-0.34703">
        <ele>35.04</ele>
        <time>2019-05-19T14:24:23Z</time>
      </trkpt>
      <trkpt lat="44.73152" lon="-0.34653">
        <ele>36.02</ele>
        <time>2019-05-19T14:24:29Z</time>
      </trkpt>
      <trkpt lat="44.73154" lon="-0.34596">
        <ele>37.04</ele>
        <time>2019-05-19T14:24:30Z</time>
      </trkpt>
      <trkpt lat="44.73153" lon="-0.34545">
        <ele>37.93</ele>
        <time>2019-05-19T14:24:34Z</time>
      </trkpt>
      <trkpt lat="44.7315" lon="-0.34515">
        <ele>39.38</ele>
        <time>2019-05-19T14:24:38Z</time>
      </trkpt>
      <trkpt lat="44.73148" lon="-0.34465">
        <ele>42.22</ele>
        <time>2019-05-19T14:24:42Z</time>
      </trkpt>
      <trkpt lat="44.73143" lon="-0.34407">
        <ele>42.97</ele>
        <time>2019-05-19T14:24:53Z</time>
      </trkpt>
      <trkpt lat="44.73134" lon="-0.34376">
        <ele>39.56</ele>
        <time>2019-05-19T14:25:03Z</time>
      </trkpt>
      <trkpt lat="44.73131" lon="-0.34369">
        <ele>39.55</ele>
        <time>2019-05-19T14:25:06Z</time>
      </trkpt>
      <trkpt lat="44.73121" lon="-0.34339">
        <ele>37.15</ele>
        <time>2019-05-19T14:25:08Z</time>
      </trkpt>
      <trkpt lat="44.731" lon="-0.34304">
        <ele>41.3</ele>
        <time>2019-05-19T14:25:16Z</time>
      </trkpt>
      <trkpt lat="44.73098" lon="-0.34302">
        <ele>41.21</ele>
        <time>2019-05-19T14:25:23Z</time>
      </trkpt>
      <trkpt lat="44.73088" lon="-0.34283">
        <ele>41.55</ele>
        <time>2019-05-19T14:25:28Z</time>
      </trkpt>
      <trkpt lat="44.73088" lon="-0.34281">
        <ele>41.57</ele>
        <time>2019-05-19T14:25:30Z</time>
      </trkpt>
      <trkpt lat="44.73092" lon="-0.34275">
        <ele>41.56</ele>
        <time>2019-05-19T14:25:35Z</time>
      </trkpt>
      <trkpt lat="44.73092" lon="-0.34234">
        <ele>42.5</ele>
        <time>2019-05-19T14:25:47Z</time>
      </trkpt>
      <trkpt lat="44.73092" lon="-0.34218">
        <ele>43.35</ele>
        <time>2019-05-19T14:25:49Z</time>
      </trkpt>
      <trkpt lat="44.73092" lon="-0.34211">
        <ele>44.13</ele>
        <time>2019-05-19T14:26:02Z</time>
      </trkpt>
      <trkpt lat="44.73095" lon="-0.34185">
        <ele>45.76</ele>
        <time>2019-05-19T14:26:11Z</time>
      </trkpt>
      <trkpt lat="44.73092" lon="-0.34152">
        <ele>47.48</ele>
        <time>2019-05-19T14:26:22Z</time>
      </trkpt>
      <trkpt lat="44.73092" lon="-0.34139">
        <ele>48.24</ele>
        <time>2019-05-19T14:26:37Z</time>
      </trkpt>
      <trkpt lat="44.73093" lon="-0.34104">
        <ele>51.11</ele>
        <time>2019-05-19T14:26:48Z</time>
      </trkpt>
      <trkpt lat="44.73086" lon="-0.34075">
        <ele>52.65</ele>
        <time>2019-05-19T14:26:50Z</time>
      </trkpt>
      <trkpt lat="44.73085" lon="-0.34069">
        <ele>53.44</ele>
        <time>2019-05-19T14:26:53Z</time>
      </trkpt>
      <trkpt lat="44.73077" lon="-0.34046">
        <ele>57.02</ele>
        <time>2019-05-19T14:26:56Z</time>
      </trkpt>
      <trkpt lat="44.73069" lon="-0.34026">
        <ele>60.03</ele>
        <time>2019-05-19T14:26:58Z</time>
      </trkpt>
      <trkpt lat="44.73066" lon="-0.34017">
        <ele>60.81</ele>
        <time>2019-05-19T14:27:07Z</time>
      </trkpt>
      <trkpt lat="44.73057" lon="-0.33998">
        <ele>64.19</ele>
        <time>2019-05-19T14:27:17Z</time>
      </trkpt>
      <trkpt lat="44.73048" lon="-0.33975">
        <ele>67.98</ele>
        <time>2019-05-19T14:27:18Z</time>
      </trkpt>
      <trkpt lat="44.73052" lon="-0.3395">
        <ele>69.98</ele>
        <time>2019-05-19T14:27:28Z</time>
      </trkpt>
      <trkpt lat="44.73068" lon="-0.33936">
        <ele>69.86</ele>
        <time>2019-05-19T14:27:40Z</time>
      </trkpt>
      <trkpt lat="44.73086" lon="-0.33921">
        <ele>70.63</ele>
        <time>2019-05-19T14:27:51Z</time>
      </trkpt>
      <trkpt lat="44.73092" lon="-0.33916">
        <ele>70.64</ele>
        <time>2019-05-19T14:28:01Z</time>
      </trkpt>
      <trkpt lat="44.73096" lon="-0.3391">
        <ele>70.66</ele>
        <time>2019-05-19T14:28:12Z</time>
      </trkpt>
      <trkpt lat="44.73107" lon="-0.33901">
        <ele>70.7</ele>
        <time>2019-05-19T14:28:20Z</time>
      </trkpt>
      <trkpt lat="44.73126" lon="-0.33886">
        <ele>70.78</ele>
        <time>2019-05-19T14:28:25Z</time>
      </trkpt>
      <trkpt lat="44.73144" lon="-0.33871">
        <ele>70.83</ele>
        <time>2019-05-19T14:28:40Z</time>
      </trkpt>
      <trkpt lat="44.73166" lon="-0.33853">
        <ele>70.9</ele>
        <time>2019-05-19T14:28:51Z</time>
      </trkpt>
      <trkpt lat="44.73185" lon="-0.33838">
        <ele>71.79</ele>
        <time>2019-05-19T14:29:05Z</time>
      </trkpt>
      <trkpt lat="44.73204" lon="-0.33823">
        <ele>72.68</ele>
        <time>2019-05-19T14:29:07Z</time>
      </trkpt>
      <trkpt lat="44.73229" lon="-0.33805">
        <ele>73.57</ele>
        <time>2019-05-19T14:29:22Z</time>
      </trkpt>
      <trkpt lat="44.73257" lon="-0.33783">
        <ele>73.59</ele>
        <time>2019-05-19T14:29:46Z</time>
      </trkpt>
      <trkpt lat="44.73267" lon="-0.33774">
        <ele>68.83</ele>
        <time>2019-05-19T14:29:47Z</time>
      </trkpt>
      <trkpt lat="44.7327" lon="-0.33772">
        <ele>74.65</ele>
        <time>2019-05-19T14:29:57Z</time>
      </trkpt>
      <trkpt lat="44.73303" lon="-0.33751">
        <ele>74.71</ele>
        <time>2019-05-19T14:29:58Z</time>
      </trkpt>
      <trkpt lat="44.73326" lon="-0.33736">
        <ele>74.78</ele>
        <time>2019-05-19T14:29:59Z</time>
      </trkpt>
      <trkpt lat="44.73326" lon="-0.33733">
        <ele>74.79</ele>
        <time>2019-05-19T14:30:06Z</time>
      </trkpt>
      <trkpt lat="44.73325" lon="-0.3373">
        <ele>74.79</ele>
        <time>2019-05-19T14:30:07Z</time>
      </trkpt>
      <trkpt lat="44.73324" lon="-0.33727">
        <ele>74.81</ele>
        <time>2019-05-19T14:30:08Z</time>
      </trkpt>
      <trkpt lat="44.73324" lon="-0.33724">
        <ele>75.56</ele>
        <time>2019-05-19T14:30:09Z</time>
      </trkpt>
      <trkpt lat="44.73323" lon="-0.33721">
        <ele>75.56</ele>
        <time>2019-05-19T14:30:10Z</time>
      </trkpt>
      <trkpt lat="44.73325" lon="-0.33667">
        <ele>77.6</ele>
        <time>2019-05-19T14:30:11Z</time>
      </trkpt>
      <trkpt lat="44.73328" lon="-0.33638">
        <ele>78.42</ele>
        <time>2019-05-19T14:30:26Z</time>
      </trkpt>
      <trkpt lat="44.7333" lon="-0.33636">
        <ele>78.42</ele>
        <time>2019-05-19T14:30:38Z</time>
      </trkpt>
      <trkpt lat="44.73372" lon="-0.33616">
        <ele>79.2</ele>
        <time>2019-05-19T14:30:53Z</time>
      </trkpt>
      <trkpt lat="44.73394" lon="-0.33594">
        <ele>79.18</ele>
        <time>2019-05-19T14:31:10Z</time>
      </trkpt>
      <trkpt lat="44.73396" lon="-0.33589">
        <ele>79.17</ele>
        <time>2019-05-19T14:31:24Z</time>
      </trkpt>
      <trkpt lat="44.73397" lon="-0.33584">
        <ele>76.86</ele>
        <time>2019-05-19T14:31:33Z</time>
      </trkpt>
      <trkpt lat="44.73397" lon="-0.33579">
        <ele>76.87</ele>
        <time>2019-05-19T14:31:49Z</time>
      </trkpt>
      <trkpt lat="44.73395" lon="-0.33574">
        <ele>76.87</ele>
        <time>2019-05-19T14:32:07Z</time>
      </trkpt>
      <trkpt lat="44.73393" lon="-0.33571">
        <ele>76.88</ele>
        <time>2019-05-19T14:32:12Z</time>
      </trkpt>
      <trkpt lat="44.7339" lon="-0.33567">
        <ele>76.87</ele>
        <time>2019-05-19T14:32:13Z</time>
      </trkpt>
      <trkpt lat="44.73387" lon="-0.33564">
        <ele>76.87</ele>
        <time>2019-05-19T14:32:17Z</time>
      </trkpt>
      <trkpt lat="44.7338" lon="-0.33553">
        <ele>76.9</ele>
        <time>2019-05-19T14:32:26Z</time>
      </trkpt>
      <trkpt lat="44.73379" lon="-0.33547">
        <ele>76.91</ele>
        <time>2019-05-19T14:32:27Z</time>
      </trkpt>
      <trkpt lat="44.7338" lon="-0.33541">
        <ele>76.91</ele>
        <time>2019-05-19T14:32:35Z</time>
      </trkpt>
      <trkpt lat="44.73382" lon="-0.33534">
        <ele>76.9</ele>
        <time>2019-05-19T14:32:36Z</time>
      </trkpt>
      <trkpt lat="44.73385" lon="-0.33528">
        <ele>75.72</ele>
        <time>2019-05-19T14:32:39Z</time>
      </trkpt>
      <trkpt lat="44.73389" lon="-0.33521">
        <ele>75.71</ele>
        <time>2019-05-19T14:32:54Z</time>
      </trkpt>
      <trkpt lat="44.73393" lon="-0.33514">
        <ele>74.5</ele>
        <time>2019-05-19T14:33:00Z</time>
      </trkpt>
      <trkpt lat="44.73397" lon="-0.33508">
        <ele>74.49</ele>
        <time>2019-05-19T14:33:03Z</time>
      </trkpt>
      <trkpt lat="44.73401" lon="-0.33502">
        <ele>74.5</ele>
        <time>2019-05-19T14:33:14Z</time>
      </trkpt>
      <trkpt lat="44.7343" lon="-0.33465">
        <ele>73.59</ele>
        <time>2019-05-19T14:33:26Z</time>
      </trkpt>
      <trkpt lat="44.73434" lon="-0.33459">
        <ele>72.79</ele>
        <time>2019-05-19T14:33:30Z</time>
      </trkpt>
      <trkpt lat="44.7345" lon="-0.33433">
        <ele>70.47</ele>
        <time>2019-05-19T14:33:42Z</time>
      </trkpt>
      <trkpt lat="44.73465" lon="-0.3341">
        <ele>67.88</ele>
        <time>2019-05-19T14:33:53Z</time>
      </trkpt>
      <trkpt lat="44.73469" lon="-0.334">
        <ele>66.92</ele>
        <time>2019-05-19T14:33:56Z</time>
      </trkpt>
      <trkpt lat="44.73472" lon="-0.33389">
        <ele>66.02</ele>
        <time>2019-05-19T14:34:07Z</time>
      </trkpt>
      <trkpt lat="44.73475" lon="-0.33377">
        <ele>64.95</ele>
        <time>2019-05-19T14:34:16Z</time>
      </trkpt>
      <trkpt lat="44.73476" lon="-0.33363">
        <ele>63.8</ele>
        <time>2019-05-19T14:34:20Z</time>
      </trkpt>
      <trkpt lat="44.73476" lon="-0.33347">
        <ele>61.89</ele>
        <time>2019-05-19T14:34:31Z</time>
      </trkpt>
      <trkpt lat="44.73476" lon="-0.33332">
        <ele>60.44</ele>
        <time>2019-05-19T14:34:43Z</time>
      </trkpt>
      <trkpt lat="44.73473" lon="-0.33284">
        <ele>56.78</ele>
        <time>2019-05-19T14:34:55Z</time>
      </trkpt>
      <trkpt lat="44.7347" lon="-0.33236">
        <ele>53.17</ele>
        <time>2019-05-19T14:35:07Z</time>
      </trkpt>
      <trkpt lat="44.73465" lon="-0.33192">
        <ele>51.61</ele>
        <time>2019-05-19T14:35:23Z</time>
      </trkpt>
      <trkpt lat="44.73459" lon="-0.33181">
        <ele>51.62</ele>
        <time>2019-05-19T14:35:30Z</time>
      </trkpt>
      <trkpt lat="44.73451" lon="-0.33173">
        <ele>50.17</ele>
        <time>2019-05-19T14:35:35Z</time>
      </trkpt>
      <trkpt lat="44.73442" lon="-0.33167">
        <ele>48.83</ele>
        <time>2019-05-19T14:35:49Z</time>
      </trkpt>
      <trkpt lat="44.73433" lon="-0.33162">
        <ele>47.96</ele>
        <time>2019-05-19T14:36:07Z</time>
      </trkpt>
      <trkpt lat="44.73403" lon="-0.33144">
        <ele>43.79</ele>
        <time>2019-05-19T14:36:24Z</time>
      </trkpt>
      <trkpt lat="44.73382" lon="-0.33135">
        <ele>42.99</ele>
        <time>2019-05-19T14:36:40Z</time>
      </trkpt>
      <trkpt lat="44.73361" lon="-0.33129">
        <ele>41.41</ele>
        <time>2019-05-19T14:36:53Z</time>
      </trkpt>
      <trkpt lat="44.73341" lon="-0.33121">
        <ele>41.39</ele>
        <time>2019-05-19T14:37:07Z</time>
      </trkpt>
      <trkpt lat="44.73338" lon="-0.33116">
        <ele>41.5</ele>
        <time>2019-05-19T14:37:23Z</time>
      </trkpt>
      <trkpt lat="44.73338" lon="-0.3311">
        <ele>41.46</ele>
        <time>2019-05-19T14:37:35Z</time>
      </trkpt>
      <trkpt lat="44.7334" lon="-0.33104">
        <ele>41.49</ele>
        <time>2019-05-19T14:37:39Z</time>
      </trkpt>
      <trkpt lat="44.73341" lon="-0.33097">
        <ele>41.59</ele>
        <time>2019-05-19T14:37:40Z</time>
      </trkpt>
      <trkpt lat="44.73346" lon="-0.33076">
        <ele>41.63</ele>
        <time>2019-05-19T14:37:51Z</time>
      </trkpt>
      <trkpt lat="44.73347" lon="-0.3307">
        <ele>41.65</ele>
        <time>2019-05-19T14:38:00Z</time>
      </trkpt>
      <trkpt lat="44.73347" lon="-0.33064">
        <ele>41.68</ele>
        <time>2019-05-19T14:38:01Z</time>
      </trkpt>
      <trkpt lat="44.73347" lon="-0.33059">
        <ele>41.7</ele>
        <time>2019-05-19T14:38:02Z</time>
      </trkpt>
      <trkpt lat="44.73347" lon="-0.33054">
        <ele>41.71</ele>
        <time>2019-05-19T14:38:03Z</time>
      </trkpt>
      <trkpt lat="44.73348" lon="-0.3305">
        <ele>41.73</ele>
        <time>2019-05-19T14:38:04Z</time>
      </trkpt>
      <trkpt lat="44.73349" lon="-0.33045">
        <ele>41.73</ele>
        <time>2019-05-19T14:38:05Z</time>
      </trkpt>
      <trkpt lat="44.73351" lon="-0.33042">
        <ele>41.74</ele>
        <time>2019-05-19T14:38:20Z</time>
      </trkpt>
      <trkpt lat="44.73355" lon="-0.3304">
        <ele>41.75</ele>
        <time>2019-05-19T14:38:28Z</time>
      </trkpt>
      <trkpt lat="44.73359" lon="-0.33037">
        <ele>41.75</ele>
        <time>2019-05-19T14:38:29Z</time>
      </trkpt>
      <trkpt lat="44.73363" lon="-0.33035">
        <ele>41.75</ele>
        <time>2019-05-19T14:38:43Z</time>
      </trkpt>
      <trkpt lat="44.73367" lon="-0.33033">
        <ele>40.77</ele>
        <time>2019-05-19T14:38:50Z</time>
      </trkpt>
      <trkpt lat="44.73373" lon="-0.33031">
        <ele>40</ele>
        <time>2019-05-19T14:38:51Z</time>
      </trkpt>
      <trkpt lat="44.73384" lon="-0.33029">
        <ele>38.79</ele>
        <time>2019-05-19T14:38:52Z</time>
      </trkpt>
      <trkpt lat="44.73389" lon="-0.33027">
        <ele>37.61</ele>
        <time>2019-05-19T14:38:53Z</time>
      </trkpt>
      <trkpt lat="44.73394" lon="-0.33024">
        <ele>37.57</ele>
        <time>2019-05-19T14:38:54Z</time>
      </trkpt>
      <trkpt lat="44.73405" lon="-0.33015">
        <ele>36.36</ele>
        <time>2019-05-19T14:38:55Z</time>
      </trkpt>
      <trkpt lat="44.73436" lon="-0.32995">
        <ele>35.31</ele>
        <time>2019-05-19T14:38:56Z</time>
      </trkpt>
      <trkpt lat="44.73443" lon="-0.32989">
        <ele>35.31</ele>
        <time>2019-05-19T14:38:57Z</time>
      </trkpt>
      <trkpt lat="44.73488" lon="-0.32975">
        <ele>34.48</ele>
        <time>2019-05-19T14:39:00Z</time>
      </trkpt>
      <trkpt lat="44.73515" lon="-0.32972">
        <ele>34.54</ele>
        <time>2019-05-19T14:39:01Z</time>
      </trkpt>
      <trkpt lat="44.73538" lon="-0.32965">
        <ele>34.61</ele>
        <time>2019-05-19T14:39:02Z</time>
      </trkpt>
      <trkpt lat="44.73569" lon="-0.32954">
        <ele>37.04</ele>
        <time>2019-05-19T14:39:03Z</time>
      </trkpt>
      <trkpt lat="44.7359" lon="-0.32955">
        <ele>37.08</ele>
        <time>2019-05-19T14:39:04Z</time>
      </trkpt>
      <trkpt lat="44.7361" lon="-0.3296">
        <ele>37.07</ele>
        <time>2019-05-19T14:39:05Z</time>
      </trkpt>
      <trkpt lat="44.73621" lon="-0.32966">
        <ele>34.61</ele>
        <time>2019-05-19T14:39:06Z</time>
      </trkpt>
      <trkpt lat="44.73649" lon="-0.32985">
        <ele>34.66</ele>
        <time>2019-05-19T14:39:07Z</time>
      </trkpt>
      <trkpt lat="44.73652" lon="-0.32986">
        <ele>34.68</ele>
        <time>2019-05-19T14:39:08Z</time>
      </trkpt>
      <trkpt lat="44.7366" lon="-0.32984">
        <ele>37.53</ele>
        <time>2019-05-19T14:39:15Z</time>
      </trkpt>
      <trkpt lat="44.73694" lon="-0.32976">
        <ele>41.35</ele>
        <time>2019-05-19T14:39:16Z</time>
      </trkpt>
      <trkpt lat="44.7372" lon="-0.32964">
        <ele>44.78</ele>
        <time>2019-05-19T14:39:20Z</time>
      </trkpt>
      <trkpt lat="44.73724" lon="-0.32962">
        <ele>44.8</ele>
        <time>2019-05-19T14:39:23Z</time>
      </trkpt>
      <trkpt lat="44.73733" lon="-0.3296">
        <ele>45.63</ele>
        <time>2019-05-19T14:39:24Z</time>
      </trkpt>
      <trkpt lat="44.73762" lon="-0.32952">
        <ele>47.2</ele>
        <time>2019-05-19T14:39:25Z</time>
      </trkpt>
      <trkpt lat="44.73773" lon="-0.32945">
        <ele>48.85</ele>
        <time>2019-05-19T14:39:26Z</time>
      </trkpt>
      <trkpt lat="44.73784" lon="-0.32944">
        <ele>48.82</ele>
        <time>2019-05-19T14:39:27Z</time>
      </trkpt>
      <trkpt lat="44.73796" lon="-0.32944">
        <ele>49.66</ele>
        <time>2019-05-19T14:39:28Z</time>
      </trkpt>
      <trkpt lat="44.7381" lon="-0.32939">
        <ele>51.27</ele>
        <time>2019-05-19T14:39:29Z</time>
      </trkpt>
      <trkpt lat="44.73831" lon="-0.3293">
        <ele>54.13</ele>
        <time>2019-05-19T14:39:32Z</time>
      </trkpt>
      <trkpt lat="44.73838" lon="-0.32931">
        <ele>55.06</ele>
        <time>2019-05-19T14:39:35Z</time>
      </trkpt>
      <trkpt lat="44.73847" lon="-0.32946">
        <ele>57.1</ele>
        <time>2019-05-19T14:39:38Z</time>
      </trkpt>
      <trkpt lat="44.73867" lon="-0.3298">
        <ele>59.57</ele>
        <time>2019-05-19T14:39:39Z</time>
      </trkpt>
      <trkpt lat="44.73885" lon="-0.33005">
        <ele>61.3</ele>
        <time>2019-05-19T14:39:40Z</time>
      </trkpt>
      <trkpt lat="44.73902" lon="-0.33032">
        <ele>62.98</ele>
        <time>2019-05-19T14:39:41Z</time>
      </trkpt>
      <trkpt lat="44.73922" lon="-0.33052">
        <ele>63.72</ele>
        <time>2019-05-19T14:39:42Z</time>
      </trkpt>
      <trkpt lat="44.73923" lon="-0.33054">
        <ele>63.7</ele>
        <time>2019-05-19T14:39:45Z</time>
      </trkpt>
      <trkpt lat="44.73945" lon="-0.33087">
        <ele>65.78</ele>
        <time>2019-05-19T14:39:47Z</time>
      </trkpt>
      <trkpt lat="44.73967" lon="-0.33125">
        <ele>68.21</ele>
        <time>2019-05-19T14:39:49Z</time>
      </trkpt>
      <trkpt lat="44.73968" lon="-0.33127">
        <ele>68.2</ele>
        <time>2019-05-19T14:39:52Z</time>
      </trkpt>
      <trkpt lat="44.7397" lon="-0.33129">
        <ele>68.19</ele>
        <time>2019-05-19T14:39:53Z</time>
      </trkpt>
      <trkpt lat="44.73972" lon="-0.33131">
        <ele>68.2</ele>
        <time>2019-05-19T14:39:54Z</time>
      </trkpt>
      <trkpt lat="44.73974" lon="-0.33134">
        <ele>68.19</ele>
        <time>2019-05-19T14:39:55Z</time>
      </trkpt>
      <trkpt lat="44.73994" lon="-0.33164">
        <ele>69.73</ele>
        <time>2019-05-19T14:39:56Z</time>
      </trkpt>
      <trkpt lat="44.74015" lon="-0.33192">
        <ele>71.3</ele>
        <time>2019-05-19T14:39:59Z</time>
      </trkpt>
      <trkpt lat="44.74042" lon="-0.33222">
        <ele>72.06</ele>
        <time>2019-05-19T14:40:00Z</time>
      </trkpt>
      <trkpt lat="44.74062" lon="-0.33243">
        <ele>72.84</ele>
        <time>2019-05-19T14:40:01Z</time>
      </trkpt>
      <trkpt lat="44.74062" lon="-0.33247">
        <ele>73.62</ele>
        <time>2019-05-19T14:40:02Z</time>
      </trkpt>
      <trkpt lat="44.74061" lon="-0.3325">
        <ele>73.79</ele>
        <time>2019-05-19T14:40:03Z</time>
      </trkpt>
      <trkpt lat="44.74061" lon="-0.3325">
        <ele>73.96</ele>
        <time>2019-05-19T14:40:04Z</time>
      </trkpt>
      <trkpt lat="44.74069" lon="-0.33257">
        <ele>74.04</ele>
        <time>2019-05-19T14:40:05Z</time>
      </trkpt>
      <trkpt lat="44.74093" lon="-0.33284">
        <ele>75.82</ele>
        <time>2019-05-19T14:40:06Z</time>
      </trkpt>
      <trkpt lat="44.74119" lon="-0.33312">
        <ele>77.7</ele>
        <time>2019-05-19T14:40:07Z</time>
      </trkpt>
      <trkpt lat="44.74155" lon="-0.3334">
        <ele>79.34</ele>
        <time>2019-05-19T14:40:08Z</time>
      </trkpt>
      <trkpt lat="44.7419" lon="-0.33366">
        <ele>82.91</ele>
        <time>2019-05-19T14:40:09Z</time>
      </trkpt>
      <trkpt lat="44.74218" lon="-0.3339">
        <ele>84.52</ele>
        <time>2019-05-19T14:40:10Z</time>
      </trkpt>
      <trkpt lat="44.74231" lon="-0.33414">
        <ele>86.11</ele>
        <time>2019-05-19T14:40:11Z</time>
      </trkpt>
      <trkpt lat="44.74233" lon="-0.33416">
        <ele>86.1</ele>
        <time>2019-05-19T14:40:13Z</time>
      </trkpt>
      <trkpt lat="44.74235" lon="-0.33417">
        <ele>86.22</ele>
        <time>2019-05-19T14:40:14Z</time>
      </trkpt>
      <trkpt lat="44.74238" lon="-0.33418">
        <ele>87.07</ele>
        <time>2019-05-19T14:40:15Z</time>
      </trkpt>
      <trkpt lat="44.7424" lon="-0.33418">
        <ele>87.07</ele>
        <time>2019-05-19T14:40:17Z</time>
      </trkpt>
      <trkpt lat="44.74243" lon="-0.33417">
        <ele>87.09</ele>
        <time>2019-05-19T14:40:23Z</time>
      </trkpt>
      <trkpt lat="44.74245" lon="-0.33416">
        <ele>87.1</ele>
        <time>2019-05-19T14:40:25Z</time>
      </trkpt>
      <trkpt lat="44.74248" lon="-0.33415">
        <ele>87.11</ele>
        <time>2019-05-19T14:40:35Z</time>
      </trkpt>
      <trkpt lat="44.74292" lon="-0.33397">
        <ele>88.02</ele>
        <time>2019-05-19T14:40:40Z</time>
      </trkpt>
      <trkpt lat="44.74352" lon="-0.33388">
        <ele>88.01</ele>
        <time>2019-05-19T14:40:45Z</time>
      </trkpt>
      <trkpt lat="44.74354" lon="-0.33393">
        <ele>88.01</ele>
        <time>2019-05-19T14:40:52Z</time>
      </trkpt>
      <trkpt lat="44.74356" lon="-0.33397">
        <ele>88.01</ele>
        <time>2019-05-19T14:40:57Z</time>
      </trkpt>
      <trkpt lat="44.74358" lon="-0.33402">
        <ele>88.01</ele>
        <time>2019-05-19T14:41:01Z</time>
      </trkpt>
      <trkpt lat="44.74359" lon="-0.33407">
        <ele>88.01</ele>
        <time>2019-05-19T14:41:04Z</time>
      </trkpt>
      <trkpt lat="44.7436" lon="-0.33412">
        <ele>88.02</ele>
        <time>2019-05-19T14:41:13Z</time>
      </trkpt>
      <trkpt lat="44.74366" lon="-0.33448">
        <ele>83.62</ele>
        <time>2019-05-19T14:41:14Z</time>
      </trkpt>
      <trkpt lat="44.74367" lon="-0.33454">
        <ele>87.06</ele>
        <time>2019-05-19T14:41:16Z</time>
      </trkpt>
      <trkpt lat="44.74369" lon="-0.3347">
        <ele>84.44</ele>
        <time>2019-05-19T14:41:27Z</time>
      </trkpt>
      <trkpt lat="44.74372" lon="-0.33483">
        <ele>86.84</ele>
        <time>2019-05-19T14:41:37Z</time>
      </trkpt>
      <trkpt lat="44.74376" lon="-0.33507">
        <ele>83.45</ele>
        <time>2019-05-19T14:41:39Z</time>
      </trkpt>
      <trkpt lat="44.74377" lon="-0.33511">
        <ele>86.43</ele>
        <time>2019-05-19T14:41:43Z</time>
      </trkpt>
      <trkpt lat="44.7438" lon="-0.33518">
        <ele>87.32</ele>
        <time>2019-05-19T14:41:56Z</time>
      </trkpt>
      <trkpt lat="44.74383" lon="-0.33522">
        <ele>88.04</ele>
        <time>2019-05-19T14:42:03Z</time>
      </trkpt>
      <trkpt lat="44.74386" lon="-0.33522">
        <ele>88.07</ele>
        <time>2019-05-19T14:42:09Z</time>
      </trkpt>
      <trkpt lat="44.74387" lon="-0.33522">
        <ele>88.08</ele>
        <time>2019-05-19T14:42:14Z</time>
      </trkpt>
      <trkpt lat="44.74389" lon="-0.3352">
        <ele>88.08</ele>
        <time>2019-05-19T14:42:21Z</time>
      </trkpt>
      <trkpt lat="44.74429" lon="-0.3348">
        <ele>88.12</ele>
        <time>2019-05-19T14:42:31Z</time>
      </trkpt>
      <trkpt lat="44.74508" lon="-0.33427">
        <ele>88.2</ele>
        <time>2019-05-19T14:42:34Z</time>
      </trkpt>
      <trkpt lat="44.74541" lon="-0.33408">
        <ele>85.94</ele>
        <time>2019-05-19T14:42:41Z</time>
      </trkpt>
      <trkpt lat="44.74618" lon="-0.33359">
        <ele>86</ele>
        <time>2019-05-19T14:42:54Z</time>
      </trkpt>
      <trkpt lat="44.74682" lon="-0.33322">
        <ele>86.06</ele>
        <time>2019-05-19T14:43:05Z</time>
      </trkpt>
      <trkpt lat="44.7479" lon="-0.33243">
        <ele>86.15</ele>
        <time>2019-05-19T14:43:17Z</time>
      </trkpt>
      <trkpt lat="44.74901" lon="-0.33164">
        <ele>84.59</ele>
        <time>2019-05-19T14:43:27Z</time>
      </trkpt>
      <trkpt lat="44.74939" lon="-0.3315">
        <ele>84.62</ele>
        <time>2019-05-19T14:43:28Z</time>
      </trkpt>
      <trkpt lat="44.74945" lon="-0.33151">
        <ele>84.63</ele>
        <time>2019-05-19T14:43:43Z</time>
      </trkpt>
      <trkpt lat="44.7495" lon="-0.33152">
        <ele>84.63</ele>
        <time>2019-05-19T14:44:00Z</time>
      </trkpt>
      <trkpt lat="44.74956" lon="-0.33155">
        <ele>84.63</ele>
        <time>2019-05-19T14:44:01Z</time>
      </trkpt>
      <trkpt lat="44.74961" lon="-0.33159">
        <ele>83.66</ele>
        <time>2019-05-19T14:44:02Z</time>
      </trkpt>
      <trkpt lat="44.74966" lon="-0.33163">
        <ele>83.66</ele>
        <time>2019-05-19T14:44:03Z</time>
      </trkpt>
      <trkpt lat="44.74971" lon="-0.33169">
        <ele>82.77</ele>
        <time>2019-05-19T14:44:04Z</time>
      </trkpt>
      <trkpt lat="44.74975" lon="-0.33175">
        <ele>82.01</ele>
        <time>2019-05-19T14:44:19Z</time>
      </trkpt>
      <trkpt lat="44.74979" lon="-0.33181">
        <ele>82.01</ele>
        <time>2019-05-19T14:44:32Z</time>
      </trkpt>
      <trkpt lat="44.75024" lon="-0.33261">
        <ele>81.25</ele>
        <time>2019-05-19T14:44:47Z</time>
      </trkpt>
      <trkpt lat="44.75056" lon="-0.33319">
        <ele>80.47</ele>
        <time>2019-05-19T14:45:00Z</time>
      </trkpt>
      <trkpt lat="44.75057" lon="-0.33322">
        <ele>80.47</ele>
        <time>2019-05-19T14:45:27Z</time>
      </trkpt>
      <trkpt lat="44.75057" lon="-0.33325">
        <ele>80.47</ele>
        <time>2019-05-19T14:46:15Z</time>
      </trkpt>
      <trkpt lat="44.75056" lon="-0.33329">
        <ele>80.47</ele>
        <time>2019-05-19T14:46:53Z</time>
      </trkpt>
      <trkpt lat="44.75054" lon="-0.33332">
        <ele>80.47</ele>
        <time>2019-05-19T14:47:13Z</time>
      </trkpt>
      <trkpt lat="44.75052" lon="-0.33335">
        <ele>80.48</ele>
        <time>2019-05-19T14:47:30Z</time>
      </trkpt>
      <trkpt lat="44.7505" lon="-0.33338">
        <ele>80.48</ele>
        <time>2019-05-19T14:47:45Z</time>
      </trkpt>
      <trkpt lat="44.75009" lon="-0.33392">
        <ele>80.52</ele>
        <time>2019-05-19T14:48:02Z</time>
      </trkpt>
      <trkpt lat="44.75005" lon="-0.33413">
        <ele>80.52</ele>
        <time>2019-05-19T14:48:19Z</time>
      </trkpt>
      <trkpt lat="44.75006" lon="-0.33418">
        <ele>80.52</ele>
        <time>2019-05-19T14:48:33Z</time>
      </trkpt>
      <trkpt lat="44.75015" lon="-0.33468">
        <ele>80.52</ele>
        <time>2019-05-19T14:48:42Z</time>
      </trkpt>
      <trkpt lat="44.75017" lon="-0.33474">
        <ele>80.52</ele>
        <time>2019-05-19T14:48:43Z</time>
      </trkpt>
      <trkpt lat="44.75038" lon="-0.33596">
        <ele>80.57</ele>
        <time>2019-05-19T14:48:44Z</time>
      </trkpt>
      <trkpt lat="44.75055" lon="-0.33644">
        <ele>83.01</ele>
        <time>2019-05-19T14:48:45Z</time>
      </trkpt>
      <trkpt lat="44.75097" lon="-0.33739">
        <ele>83.01</ele>
        <time>2019-05-19T14:48:46Z</time>
      </trkpt>
      <trkpt lat="44.75123" lon="-0.33819">
        <ele>79.52</ele>
        <time>2019-05-19T14:48:47Z</time>
      </trkpt>
      <trkpt lat="44.75125" lon="-0.33826">
        <ele>79.53</ele>
        <time>2019-05-19T14:48:48Z</time>
      </trkpt>
      <trkpt lat="44.75132" lon="-0.33848">
        <ele>83.29</ele>
        <time>2019-05-19T14:48:49Z</time>
      </trkpt>
      <trkpt lat="44.75134" lon="-0.33855">
        <ele>83.29</ele>
        <time>2019-05-19T14:49:04Z</time>
      </trkpt>
      <trkpt lat="44.75153" lon="-0.33929">
        <ele>81.01</ele>
        <time>2019-05-19T14:49:21Z</time>
      </trkpt>
      <trkpt lat="44.75196" lon="-0.34075">
        <ele>81.09</ele>
        <time>2019-05-19T14:49:22Z</time>
      </trkpt>
      <trkpt lat="44.75214" lon="-0.3414">
        <ele>83.07</ele>
        <time>2019-05-19T14:49:23Z</time>
      </trkpt>
      <trkpt lat="44.7522" lon="-0.34165">
        <ele>79.45</ele>
        <time>2019-05-19T14:49:24Z</time>
      </trkpt>
      <trkpt lat="44.75221" lon="-0.34171">
        <ele>79.46</ele>
        <time>2019-05-19T14:49:25Z</time>
      </trkpt>
      <trkpt lat="44.75223" lon="-0.34178">
        <ele>82.83</ele>
        <time>2019-05-19T14:49:26Z</time>
      </trkpt>
      <trkpt lat="44.75224" lon="-0.34185">
        <ele>82.83</ele>
        <time>2019-05-19T14:49:33Z</time>
      </trkpt>
      <trkpt lat="44.75244" lon="-0.34281">
        <ele>80.59</ele>
        <time>2019-05-19T14:49:34Z</time>
      </trkpt>
      <trkpt lat="44.75281" lon="-0.34475">
        <ele>77.96</ele>
        <time>2019-05-19T14:49:37Z</time>
      </trkpt>
      <trkpt lat="44.75296" lon="-0.34618">
        <ele>77.27</ele>
        <time>2019-05-19T14:49:40Z</time>
      </trkpt>
      <trkpt lat="44.75308" lon="-0.34713">
        <ele>77.33</ele>
        <time>2019-05-19T14:49:45Z</time>
      </trkpt>
      <trkpt lat="44.75311" lon="-0.34713">
        <ele>77.35</ele>
        <time>2019-05-19T14:49:46Z</time>
      </trkpt>
      <trkpt lat="44.75315" lon="-0.34709">
        <ele>77.41</ele>
        <time>2019-05-19T14:49:48Z</time>
      </trkpt>
      <trkpt lat="44.75347" lon="-0.34683">
        <ele>76.63</ele>
        <time>2019-05-19T14:49:57Z</time>
      </trkpt>
      <trkpt lat="44.75373" lon="-0.34663">
        <ele>75.92</ele>
        <time>2019-05-19T14:50:06Z</time>
      </trkpt>
      <trkpt lat="44.75376" lon="-0.34661">
        <ele>75.93</ele>
        <time>2019-05-19T14:50:07Z</time>
      </trkpt>
      <trkpt lat="44.75384" lon="-0.34654">
        <ele>75.09</ele>
        <time>2019-05-19T14:50:08Z</time>
      </trkpt>
      <trkpt lat="44.75391" lon="-0.34649">
        <ele>74.02</ele>
        <time>2019-05-19T14:50:23Z</time>
      </trkpt>
      <trkpt lat="44.75404" lon="-0.34628">
        <ele>72.36</ele>
        <time>2019-05-19T14:50:42Z</time>
      </trkpt>
      <trkpt lat="44.75414" lon="-0.34624">
        <ele>70.67</ele>
        <time>2019-05-19T14:50:49Z</time>
      </trkpt>
      <trkpt lat="44.75418" lon="-0.34623">
        <ele>70.64</ele>
        <time>2019-05-19T14:51:06Z</time>
      </trkpt>
      <trkpt lat="44.75426" lon="-0.34619">
        <ele>68.88</ele>
        <time>2019-05-19T14:51:19Z</time>
      </trkpt>
      <trkpt lat="44.75432" lon="-0.34619">
        <ele>67.94</ele>
        <time>2019-05-19T14:51:41Z</time>
      </trkpt>
      <trkpt lat="44.75436" lon="-0.3462">
        <ele>68.06</ele>
        <time>2019-05-19T14:52:03Z</time>
      </trkpt>
      <trkpt lat="44.7544" lon="-0.34628">
        <ele>67.91</ele>
        <time>2019-05-19T14:52:10Z</time>
      </trkpt>
      <trkpt lat="44.75445" lon="-0.34629">
        <ele>68.01</ele>
        <time>2019-05-19T14:52:11Z</time>
      </trkpt>
      <trkpt lat="44.75456" lon="-0.34633">
        <ele>67.93</ele>
        <time>2019-05-19T14:52:12Z</time>
      </trkpt>
      <trkpt lat="44.75467" lon="-0.34634">
        <ele>67.89</ele>
        <time>2019-05-19T14:52:13Z</time>
      </trkpt>
      <trkpt lat="44.75482" lon="-0.34642">
        <ele>67.85</ele>
        <time>2019-05-19T14:52:14Z</time>
      </trkpt>
      <trkpt lat="44.75479" lon="-0.34646">
        <ele>68.01</ele>
        <time>2019-05-19T14:52:15Z</time>
      </trkpt>
      <trkpt lat="44.75455" lon="-0.34638">
        <ele>67.98</ele>
        <time>2019-05-19T14:52:16Z</time>
      </trkpt>
      <trkpt lat="44.75424" lon="-0.34646">
        <ele>68.06</ele>
        <time>2019-05-19T14:52:17Z</time>
      </trkpt>
      <trkpt lat="44.75413" lon="-0.3465">
        <ele>70.52</ele>
        <time>2019-05-19T14:52:18Z</time>
      </trkpt>
      <trkpt lat="44.75384" lon="-0.34667">
        <ele>73.57</ele>
        <time>2019-05-19T14:52:30Z</time>
      </trkpt>
      <trkpt lat="44.7538" lon="-0.3467">
        <ele>75.12</ele>
        <time>2019-05-19T14:52:42Z</time>
      </trkpt>
      <trkpt lat="44.75351" lon="-0.34694">
        <ele>75</ele>
        <time>2019-05-19T14:52:43Z</time>
      </trkpt>
      <trkpt lat="44.75312" lon="-0.34731">
        <ele>77.6</ele>
        <time>2019-05-19T14:52:44Z</time>
      </trkpt>
      <trkpt lat="44.75311" lon="-0.34734">
        <ele>77.6</ele>
        <time>2019-05-19T14:52:45Z</time>
      </trkpt>
      <trkpt lat="44.75311" lon="-0.34737">
        <ele>77.57</ele>
        <time>2019-05-19T14:52:46Z</time>
      </trkpt>
      <trkpt lat="44.7531" lon="-0.34741">
        <ele>77.62</ele>
        <time>2019-05-19T14:52:47Z</time>
      </trkpt>
      <trkpt lat="44.75316" lon="-0.3481">
        <ele>78.34</ele>
        <time>2019-05-19T14:52:48Z</time>
      </trkpt>
      <trkpt lat="44.75324" lon="-0.34909">
        <ele>78.37</ele>
        <time>2019-05-19T14:53:04Z</time>
      </trkpt>
      <trkpt lat="44.75334" lon="-0.35014">
        <ele>75.99</ele>
        <time>2019-05-19T14:53:08Z</time>
      </trkpt>
      <trkpt lat="44.75337" lon="-0.35052">
        <ele>76.03</ele>
        <time>2019-05-19T14:53:09Z</time>
      </trkpt>
      <trkpt lat="44.75339" lon="-0.35058">
        <ele>76.02</ele>
        <time>2019-05-19T14:53:17Z</time>
      </trkpt>
      <trkpt lat="44.75342" lon="-0.35062">
        <ele>76.03</ele>
        <time>2019-05-19T14:53:18Z</time>
      </trkpt>
      <trkpt lat="44.75346" lon="-0.35065">
        <ele>76.04</ele>
        <time>2019-05-19T14:53:37Z</time>
      </trkpt>
      <trkpt lat="44.7535" lon="-0.35067">
        <ele>76.04</ele>
        <time>2019-05-19T14:53:45Z</time>
      </trkpt>
      <trkpt lat="44.75354" lon="-0.35067">
        <ele>75.28</ele>
        <time>2019-05-19T14:54:01Z</time>
      </trkpt>
      <trkpt lat="44.75359" lon="-0.35068">
        <ele>75.28</ele>
        <time>2019-05-19T14:54:12Z</time>
      </trkpt>
      <trkpt lat="44.75424" lon="-0.35079">
        <ele>74.48</ele>
        <time>2019-05-19T14:54:13Z</time>
      </trkpt>
      <trkpt lat="44.75442" lon="-0.35082">
        <ele>71.2</ele>
        <time>2019-05-19T14:54:16Z</time>
      </trkpt>
      <trkpt lat="44.7549" lon="-0.35098">
        <ele>71.26</ele>
        <time>2019-05-19T14:54:17Z</time>
      </trkpt>
      <trkpt lat="44.75523" lon="-0.35117">
        <ele>68.05</ele>
        <time>2019-05-19T14:54:27Z</time>
      </trkpt>
      <trkpt lat="44.75545" lon="-0.35128">
        <ele>66.29</ele>
        <time>2019-05-19T14:54:48Z</time>
      </trkpt>
      <trkpt lat="44.7556" lon="-0.35136">
        <ele>64.84</ele>
        <time>2019-05-19T14:54:58Z</time>
      </trkpt>
      <trkpt lat="44.756" lon="-0.35152">
        <ele>61.38</ele>
        <time>2019-05-19T14:55:02Z</time>
      </trkpt>
      <trkpt lat="44.75629" lon="-0.35159">
        <ele>57.73</ele>
        <time>2019-05-19T14:55:03Z</time>
      </trkpt>
      <trkpt lat="44.75658" lon="-0.35164">
        <ele>53.62</ele>
        <time>2019-05-19T14:55:04Z</time>
      </trkpt>
      <trkpt lat="44.75677" lon="-0.35163">
        <ele>47.37</ele>
        <time>2019-05-19T14:55:05Z</time>
      </trkpt>
      <trkpt lat="44.75686" lon="-0.35164">
        <ele>53.15</ele>
        <time>2019-05-19T14:55:18Z</time>
      </trkpt>
      <trkpt lat="44.75713" lon="-0.35167">
        <ele>49</ele>
        <time>2019-05-19T14:55:43Z</time>
      </trkpt>
      <trkpt lat="44.75734" lon="-0.3517">
        <ele>45.71</ele>
        <time>2019-05-19T14:56:02Z</time>
      </trkpt>
      <trkpt lat="44.75744" lon="-0.35169">
        <ele>44.63</ele>
        <time>2019-05-19T14:56:20Z</time>
      </trkpt>
      <trkpt lat="44.75777" lon="-0.35166">
        <ele>40.31</ele>
        <time>2019-05-19T14:56:31Z</time>
      </trkpt>
      <trkpt lat="44.75789" lon="-0.35163">
        <ele>38.79</ele>
        <time>2019-05-19T14:57:06Z</time>
      </trkpt>
      <trkpt lat="44.75812" lon="-0.35155">
        <ele>35.46</ele>
        <time>2019-05-19T14:57:19Z</time>
      </trkpt>
      <trkpt lat="44.75844" lon="-0.35142">
        <ele>31.49</ele>
        <time>2019-05-19T14:57:30Z</time>
      </trkpt>
      <trkpt lat="44.75851" lon="-0.3514">
        <ele>31.7</ele>
        <time>2019-05-19T14:57:33Z</time>
      </trkpt>
      <trkpt lat="44.75858" lon="-0.35139">
        <ele>31.61</ele>
        <time>2019-05-19T14:57:39Z</time>
      </trkpt>
      <trkpt lat="44.75865" lon="-0.35138">
        <ele>34.92</ele>
        <time>2019-05-19T14:57:47Z</time>
      </trkpt>
      <trkpt lat="44.75867" lon="-0.35138">
        <ele>35.88</ele>
        <time>2019-05-19T14:57:58Z</time>
      </trkpt>
      <trkpt lat="44.75868" lon="-0.35139">
        <ele>35.89</ele>
        <time>2019-05-19T14:58:16Z</time>
      </trkpt>
      <trkpt lat="44.75867" lon="-0.3514">
        <ele>36.13</ele>
        <time>2019-05-19T14:58:26Z</time>
      </trkpt>
      <trkpt lat="44.75865" lon="-0.35141">
        <ele>36.21</ele>
        <time>2019-05-19T14:58:31Z</time>
      </trkpt>
      <trkpt lat="44.75863" lon="-0.3514">
        <ele>37.11</ele>
        <time>2019-05-19T14:58:36Z</time>
      </trkpt>
      <trkpt lat="44.75861" lon="-0.3514">
        <ele>36.85</ele>
        <time>2019-05-19T14:58:39Z</time>
      </trkpt>
      <trkpt lat="44.7586" lon="-0.35141">
        <ele>36.98</ele>
        <time>2019-05-19T14:58:44Z</time>
      </trkpt>
      <trkpt lat="44.75858" lon="-0.35142">
        <ele>37.04</ele>
        <time>2019-05-19T14:58:59Z</time>
      </trkpt>
      <trkpt lat="44.75857" lon="-0.35145">
        <ele>37.08</ele>
        <time>2019-05-19T14:59:28Z</time>
      </trkpt>
      <trkpt lat="44.75857" lon="-0.35147">
        <ele>37.08</ele>
        <time>2019-05-19T14:59:48Z</time>
      </trkpt>
      <trkpt lat="44.75847" lon="-0.35174">
        <ele>37.07</ele>
        <time>2019-05-19T14:59:59Z</time>
      </trkpt>
      <trkpt lat="44.75835" lon="-0.35204">
        <ele>32.8</ele>
        <time>2019-05-19T15:00:21Z</time>
      </trkpt>
      <trkpt lat="44.75835" lon="-0.35207">
        <ele>37.25</ele>
        <time>2019-05-19T15:00:34Z</time>
      </trkpt>
      <trkpt lat="44.7583" lon="-0.35217">
        <ele>37.24</ele>
        <time>2019-05-19T15:00:48Z</time>
      </trkpt>
      <trkpt lat="44.75829" lon="-0.35218">
        <ele>37.25</ele>
        <time>2019-05-19T15:00:53Z</time>
      </trkpt>
      <trkpt lat="44.75828" lon="-0.3522">
        <ele>37.25</ele>
        <time>2019-05-19T15:01:08Z</time>
      </trkpt>
      <trkpt lat="44.75827" lon="-0.35221">
        <ele>37.25</ele>
        <time>2019-05-19T15:01:11Z</time>
      </trkpt>
      <trkpt lat="44.75826" lon="-0.35225">
        <ele>37.24</ele>
        <time>2019-05-19T15:01:25Z</time>
      </trkpt>
      <trkpt lat="44.75824" lon="-0.35226">
        <ele>37.25</ele>
        <time>2019-05-19T15:01:43Z</time>
      </trkpt>
      <trkpt lat="44.75804" lon="-0.35238">
        <ele>39.19</ele>
        <time>2019-05-19T15:01:44Z</time>
      </trkpt>
      <trkpt lat="44.75794" lon="-0.35242">
        <ele>42.54</ele>
        <time>2019-05-19T15:01:45Z</time>
      </trkpt>
      <trkpt lat="44.75788" lon="-0.35245">
        <ele>43.47</ele>
        <time>2019-05-19T15:01:46Z</time>
      </trkpt>
      <trkpt lat="44.75776" lon="-0.35247">
        <ele>44.2</ele>
        <time>2019-05-19T15:02:03Z</time>
      </trkpt>
      <trkpt lat="44.75749" lon="-0.35262">
        <ele>44.75</ele>
        <time>2019-05-19T15:02:22Z</time>
      </trkpt>
      <trkpt lat="44.75737" lon="-0.35273">
        <ele>44.64</ele>
        <time>2019-05-19T15:02:39Z</time>
      </trkpt>
      <trkpt lat="44.75729" lon="-0.35272">
        <ele>44.59</ele>
        <time>2019-05-19T15:02:45Z</time>
      </trkpt>
      <trkpt lat="44.75717" lon="-0.35268">
        <ele>47.45</ele>
        <time>2019-05-19T15:02:46Z</time>
      </trkpt>
      <trkpt lat="44.75703" lon="-0.35266">
        <ele>48.48</ele>
        <time>2019-05-19T15:02:47Z</time>
      </trkpt>
      <trkpt lat="44.75698" lon="-0.35264">
        <ele>50.75</ele>
        <time>2019-05-19T15:02:48Z</time>
      </trkpt>
      <trkpt lat="44.75689" lon="-0.35256">
        <ele>51.52</ele>
        <time>2019-05-19T15:02:49Z</time>
      </trkpt>
      <trkpt lat="44.75688" lon="-0.35253">
        <ele>52.33</ele>
        <time>2019-05-19T15:02:50Z</time>
      </trkpt>
      <trkpt lat="44.75685" lon="-0.3525">
        <ele>52.28</ele>
        <time>2019-05-19T15:02:51Z</time>
      </trkpt>
      <trkpt lat="44.75677" lon="-0.35248">
        <ele>54.02</ele>
        <time>2019-05-19T15:03:05Z</time>
      </trkpt>
      <trkpt lat="44.75674" lon="-0.35246">
        <ele>53.96</ele>
        <time>2019-05-19T15:03:09Z</time>
      </trkpt>
      <trkpt lat="44.75663" lon="-0.35241">
        <ele>55.74</ele>
        <time>2019-05-19T15:03:18Z</time>
      </trkpt>
      <trkpt lat="44.7566" lon="-0.35237">
        <ele>56.56</ele>
        <time>2019-05-19T15:03:23Z</time>
      </trkpt>
      <trkpt lat="44.75638" lon="-0.35234">
        <ele>57.93</ele>
        <time>2019-05-19T15:03:26Z</time>
      </trkpt>
      <trkpt lat="44.75629" lon="-0.35225">
        <ele>59.62</ele>
        <time>2019-05-19T15:03:28Z</time>
      </trkpt>
      <trkpt lat="44.75611" lon="-0.3524">
        <ele>59.36</ele>
        <time>2019-05-19T15:03:33Z</time>
      </trkpt>
      <trkpt lat="44.75608" lon="-0.35255">
        <ele>56.45</ele>
        <time>2019-05-19T15:03:36Z</time>
      </trkpt>
      <trkpt lat="44.75608" lon="-0.3526">
        <ele>56.42</ele>
        <time>2019-05-19T15:03:39Z</time>
      </trkpt>
      <trkpt lat="44.75608" lon="-0.3527">
        <ele>55.14</ele>
        <time>2019-05-19T15:03:41Z</time>
      </trkpt>
      <trkpt lat="44.75614" lon="-0.35292">
        <ele>53.16</ele>
        <time>2019-05-19T15:03:42Z</time>
      </trkpt>
      <trkpt lat="44.75617" lon="-0.35299">
        <ele>51.59</ele>
        <time>2019-05-19T15:03:45Z</time>
      </trkpt>
      <trkpt lat="44.75634" lon="-0.35308">
        <ele>49.52</ele>
        <time>2019-05-19T15:03:47Z</time>
      </trkpt>
      <trkpt lat="44.75644" lon="-0.35306">
        <ele>47.71</ele>
        <time>2019-05-19T15:03:48Z</time>
      </trkpt>
      <trkpt lat="44.75647" lon="-0.35324">
        <ele>45.73</ele>
        <time>2019-05-19T15:03:51Z</time>
      </trkpt>
      <trkpt lat="44.75638" lon="-0.35353">
        <ele>43.65</ele>
        <time>2019-05-19T15:03:52Z</time>
      </trkpt>
      <trkpt lat="44.75633" lon="-0.35359">
        <ele>43.66</ele>
        <time>2019-05-19T15:03:54Z</time>
      </trkpt>
      <trkpt lat="44.75628" lon="-0.35364">
        <ele>43.75</ele>
        <time>2019-05-19T15:03:57Z</time>
      </trkpt>
      <trkpt lat="44.7561" lon="-0.35364">
        <ele>43.66</ele>
        <time>2019-05-19T15:03:58Z</time>
      </trkpt>
      <trkpt lat="44.756" lon="-0.35373">
        <ele>40.96</ele>
        <time>2019-05-19T15:03:59Z</time>
      </trkpt>
      <trkpt lat="44.75595" lon="-0.35375">
        <ele>39.54</ele>
        <time>2019-05-19T15:04:01Z</time>
      </trkpt>
      <trkpt lat="44.75589" lon="-0.35385">
        <ele>36.9</ele>
        <time>2019-05-19T15:04:02Z</time>
      </trkpt>
      <trkpt lat="44.75585" lon="-0.35394">
        <ele>36.87</ele>
        <time>2019-05-19T15:04:03Z</time>
      </trkpt>
      <trkpt lat="44.75561" lon="-0.35418">
        <ele>39.58</ele>
        <time>2019-05-19T15:04:04Z</time>
      </trkpt>
      <trkpt lat="44.75534" lon="-0.35426">
        <ele>41.4</ele>
        <time>2019-05-19T15:04:05Z</time>
      </trkpt>
      <trkpt lat="44.75507" lon="-0.35454">
        <ele>41.1</ele>
        <time>2019-05-19T15:04:06Z</time>
      </trkpt>
      <trkpt lat="44.75499" lon="-0.35459">
        <ele>42.75</ele>
        <time>2019-05-19T15:04:07Z</time>
      </trkpt>
      <trkpt lat="44.75478" lon="-0.3546">
        <ele>43.47</ele>
        <time>2019-05-19T15:04:08Z</time>
      </trkpt>
      <trkpt lat="44.75472" lon="-0.35472">
        <ele>47.2</ele>
        <time>2019-05-19T15:04:09Z</time>
      </trkpt>
      <trkpt lat="44.7547" lon="-0.35476">
        <ele>47.14</ele>
        <time>2019-05-19T15:04:10Z</time>
      </trkpt>
      <trkpt lat="44.75465" lon="-0.35487">
        <ele>48.95</ele>
        <time>2019-05-19T15:04:11Z</time>
      </trkpt>
      <trkpt lat="44.75456" lon="-0.35516">
        <ele>50.34</ele>
        <time>2019-05-19T15:04:23Z</time>
      </trkpt>
      <trkpt lat="44.75458" lon="-0.3553">
        <ele>50.92</ele>
        <time>2019-05-19T15:04:32Z</time>
      </trkpt>
      <trkpt lat="44.75464" lon="-0.35545">
        <ele>50.74</ele>
        <time>2019-05-19T15:04:33Z</time>
      </trkpt>
      <trkpt lat="44.75465" lon="-0.35556">
        <ele>47.89</ele>
        <time>2019-05-19T15:04:37Z</time>
      </trkpt>
      <trkpt lat="44.75464" lon="-0.35561">
        <ele>47.84</ele>
        <time>2019-05-19T15:04:38Z</time>
      </trkpt>
      <trkpt lat="44.75463" lon="-0.35568">
        <ele>46.98</ele>
        <time>2019-05-19T15:04:39Z</time>
      </trkpt>
      <trkpt lat="44.75469" lon="-0.35582">
        <ele>46.07</ele>
        <time>2019-05-19T15:04:40Z</time>
      </trkpt>
      <trkpt lat="44.75469" lon="-0.35605">
        <ele>42.26</ele>
        <time>2019-05-19T15:04:42Z</time>
      </trkpt>
      <trkpt lat="44.75471" lon="-0.35613">
        <ele>41.42</ele>
        <time>2019-05-19T15:04:43Z</time>
      </trkpt>
      <trkpt lat="44.75473" lon="-0.35616">
        <ele>41.43</ele>
        <time>2019-05-19T15:04:53Z</time>
      </trkpt>
      <trkpt lat="44.75493" lon="-0.35635">
        <ele>37.54</ele>
        <time>2019-05-19T15:05:00Z</time>
      </trkpt>
      <trkpt lat="44.75499" lon="-0.35639">
        <ele>36.4</ele>
        <time>2019-05-19T15:05:03Z</time>
      </trkpt>
      <trkpt lat="44.75519" lon="-0.35662">
        <ele>32.29</ele>
        <time>2019-05-19T15:05:11Z</time>
      </trkpt>
      <trkpt lat="44.75529" lon="-0.35678">
        <ele>27.73</ele>
        <time>2019-05-19T15:05:24Z</time>
      </trkpt>
      <trkpt lat="44.75531" lon="-0.35681">
        <ele>27.79</ele>
        <time>2019-05-19T15:05:30Z</time>
      </trkpt>
      <trkpt lat="44.75532" lon="-0.35689">
        <ele>27.08</ele>
        <time>2019-05-19T15:05:34Z</time>
      </trkpt>
      <trkpt lat="44.75533" lon="-0.35695">
        <ele>27.62</ele>
        <time>2019-05-19T15:05:41Z</time>
      </trkpt>
      <trkpt lat="44.75536" lon="-0.35705">
        <ele>27.52</ele>
        <time>2019-05-19T15:05:48Z</time>
      </trkpt>
      <trkpt lat="44.75529" lon="-0.35715">
        <ele>27.62</ele>
        <time>2019-05-19T15:05:51Z</time>
      </trkpt>
      <trkpt lat="44.7553" lon="-0.35721">
        <ele>26.89</ele>
        <time>2019-05-19T15:05:58Z</time>
      </trkpt>
      <trkpt lat="44.75534" lon="-0.35719">
        <ele>27.19</ele>
        <time>2019-05-19T15:06:00Z</time>
      </trkpt>
      <trkpt lat="44.75537" lon="-0.35719">
        <ele>27.63</ele>
        <time>2019-05-19T15:06:02Z</time>
      </trkpt>
      <trkpt lat="44.75529" lon="-0.35734">
        <ele>27.87</ele>
        <time>2019-05-19T15:06:09Z</time>
      </trkpt>
      <trkpt lat="44.75526" lon="-0.3574">
        <ele>27.92</ele>
        <time>2019-05-19T15:06:11Z</time>
      </trkpt>
      <trkpt lat="44.75526" lon="-0.35743">
        <ele>27.94</ele>
        <time>2019-05-19T15:06:19Z</time>
      </trkpt>
      <trkpt lat="44.75525" lon="-0.35746">
        <ele>27.95</ele>
        <time>2019-05-19T15:06:22Z</time>
      </trkpt>
      <trkpt lat="44.75525" lon="-0.35748">
        <ele>27.97</ele>
        <time>2019-05-19T15:06:34Z</time>
      </trkpt>
      <trkpt lat="44.75524" lon="-0.35751">
        <ele>27.98</ele>
        <time>2019-05-19T15:06:41Z</time>
      </trkpt>
      <trkpt lat="44.75523" lon="-0.35755">
        <ele>27.99</ele>
        <time>2019-05-19T15:06:53Z</time>
      </trkpt>
      <trkpt lat="44.75512" lon="-0.35796">
        <ele>28.12</ele>
        <time>2019-05-19T15:06:57Z</time>
      </trkpt>
      <trkpt lat="44.75505" lon="-0.35844">
        <ele>27.21</ele>
        <time>2019-05-19T15:06:58Z</time>
      </trkpt>
      <trkpt lat="44.75503" lon="-0.35851">
        <ele>27.23</ele>
        <time>2019-05-19T15:07:00Z</time>
      </trkpt>
      <trkpt lat="44.755" lon="-0.35859">
        <ele>27.23</ele>
        <time>2019-05-19T15:07:05Z</time>
      </trkpt>
      <trkpt lat="44.75498" lon="-0.35866">
        <ele>26.43</ele>
        <time>2019-05-19T15:07:07Z</time>
      </trkpt>
      <trkpt lat="44.75496" lon="-0.35873">
        <ele>26.4</ele>
        <time>2019-05-19T15:07:16Z</time>
      </trkpt>
      <trkpt lat="44.75493" lon="-0.35881">
        <ele>26.4</ele>
        <time>2019-05-19T15:07:20Z</time>
      </trkpt>
      <trkpt lat="44.75489" lon="-0.35894">
        <ele>25.41</ele>
        <time>2019-05-19T15:07:27Z</time>
      </trkpt>
      <trkpt lat="44.75479" lon="-0.35924">
        <ele>25.46</ele>
        <time>2019-05-19T15:07:38Z</time>
      </trkpt>
      <trkpt lat="44.75477" lon="-0.3593">
        <ele>25.48</ele>
        <time>2019-05-19T15:07:40Z</time>
      </trkpt>
      <trkpt lat="44.75476" lon="-0.35937">
        <ele>25.46</ele>
        <time>2019-05-19T15:07:43Z</time>
      </trkpt>
      <trkpt lat="44.75467" lon="-0.35963">
        <ele>24.69</ele>
        <time>2019-05-19T15:07:51Z</time>
      </trkpt>
      <trkpt lat="44.75464" lon="-0.35969">
        <ele>24.71</ele>
        <time>2019-05-19T15:07:57Z</time>
      </trkpt>
      <trkpt lat="44.75462" lon="-0.35973">
        <ele>24.73</ele>
        <time>2019-05-19T15:08:00Z</time>
      </trkpt>
      <trkpt lat="44.7546" lon="-0.35977">
        <ele>24.76</ele>
        <time>2019-05-19T15:08:03Z</time>
      </trkpt>
      <trkpt lat="44.75458" lon="-0.35982">
        <ele>24.77</ele>
        <time>2019-05-19T15:08:05Z</time>
      </trkpt>
      <trkpt lat="44.75455" lon="-0.35987">
        <ele>24.79</ele>
        <time>2019-05-19T15:08:14Z</time>
      </trkpt>
      <trkpt lat="44.75454" lon="-0.3599">
        <ele>24.81</ele>
        <time>2019-05-19T15:08:22Z</time>
      </trkpt>
      <trkpt lat="44.75453" lon="-0.35993">
        <ele>24.82</ele>
        <time>2019-05-19T15:08:32Z</time>
      </trkpt>
      <trkpt lat="44.75452" lon="-0.35997">
        <ele>24.82</ele>
        <time>2019-05-19T15:08:36Z</time>
      </trkpt>
      <trkpt lat="44.75452" lon="-0.35999">
        <ele>24.86</ele>
        <time>2019-05-19T15:08:45Z</time>
      </trkpt>
      <trkpt lat="44.75452" lon="-0.36002">
        <ele>24.88</ele>
        <time>2019-05-19T15:08:52Z</time>
      </trkpt>
      <trkpt lat="44.75452" lon="-0.36005">
        <ele>24.88</ele>
        <time>2019-05-19T15:08:54Z</time>
      </trkpt>
      <trkpt lat="44.75452" lon="-0.36009">
        <ele>24.9</ele>
        <time>2019-05-19T15:08:59Z</time>
      </trkpt>
      <trkpt lat="44.75452" lon="-0.36013">
        <ele>24.9</ele>
        <time>2019-05-19T15:09:12Z</time>
      </trkpt>
      <trkpt lat="44.7545" lon="-0.36017">
        <ele>24.89</ele>
        <time>2019-05-19T15:09:18Z</time>
      </trkpt>
      <trkpt lat="44.75449" lon="-0.3602">
        <ele>24.89</ele>
        <time>2019-05-19T15:09:23Z</time>
      </trkpt>
      <trkpt lat="44.75448" lon="-0.36023">
        <ele>24.9</ele>
        <time>2019-05-19T15:09:26Z</time>
      </trkpt>
      <trkpt lat="44.75447" lon="-0.36027">
        <ele>24.9</ele>
        <time>2019-05-19T15:09:27Z</time>
      </trkpt>
      <trkpt lat="44.75446" lon="-0.36031">
        <ele>24.91</ele>
        <time>2019-05-19T15:09:29Z</time>
      </trkpt>
      <trkpt lat="44.75432" lon="-0.36071">
        <ele>24.82</ele>
        <time>2019-05-19T15:09:33Z</time>
      </trkpt>
      <trkpt lat="44.75416" lon="-0.36109">
        <ele>24.79</ele>
        <time>2019-05-19T15:09:38Z</time>
      </trkpt>
      <trkpt lat="44.75395" lon="-0.36155">
        <ele>24.73</ele>
        <time>2019-05-19T15:09:40Z</time>
      </trkpt>
      <trkpt lat="44.75372" lon="-0.36192">
        <ele>23.95</ele>
        <time>2019-05-19T15:09:41Z</time>
      </trkpt>
      <trkpt lat="44.75349" lon="-0.36229">
        <ele>23.97</ele>
        <time>2019-05-19T15:09:47Z</time>
      </trkpt>
      <trkpt lat="44.7532" lon="-0.36258">
        <ele>23.24</ele>
        <time>2019-05-19T15:09:48Z</time>
      </trkpt>
      <trkpt lat="44.75278" lon="-0.36275">
        <ele>23.25</ele>
        <time>2019-05-19T15:09:52Z</time>
      </trkpt>
      <trkpt lat="44.75246" lon="-0.36284">
        <ele>23.24</ele>
        <time>2019-05-19T15:09:55Z</time>
      </trkpt>
      <trkpt lat="44.75241" lon="-0.36288">
        <ele>23.24</ele>
        <time>2019-05-19T15:09:56Z</time>
      </trkpt>
      <trkpt lat="44.7524" lon="-0.3629">
        <ele>23.24</ele>
        <time>2019-05-19T15:09:59Z</time>
      </trkpt>
      <trkpt lat="44.7524" lon="-0.36292">
        <ele>23.23</ele>
        <time>2019-05-19T15:10:02Z</time>
      </trkpt>
      <trkpt lat="44.7524" lon="-0.36295">
        <ele>23.24</ele>
        <time>2019-05-19T15:10:08Z</time>
      </trkpt>
      <trkpt lat="44.75241" lon="-0.36297">
        <ele>23.23</ele>
        <time>2019-05-19T15:10:41Z</time>
      </trkpt>
      <trkpt lat="44.75242" lon="-0.36298">
        <ele>23.23</ele>
        <time>2019-05-19T15:11:10Z</time>
      </trkpt>
      <trkpt lat="44.75256" lon="-0.36304">
        <ele>23.18</ele>
        <time>2019-05-19T15:11:44Z</time>
      </trkpt>
      <trkpt lat="44.75257" lon="-0.36308">
        <ele>23.18</ele>
        <time>2019-05-19T15:12:20Z</time>
      </trkpt>
      <trkpt lat="44.75256" lon="-0.36314">
        <ele>23.17</ele>
        <time>2019-05-19T15:12:38Z</time>
      </trkpt>
      <trkpt lat="44.75254" lon="-0.36317">
        <ele>23.16</ele>
        <time>2019-05-19T15:12:42Z</time>
      </trkpt>
      <trkpt lat="44.75251" lon="-0.36318">
        <ele>23.16</ele>
        <time>2019-05-19T15:12:43Z</time>
      </trkpt>
      <trkpt lat="44.75249" lon="-0.3632">
        <ele>23.15</ele>
        <time>2019-05-19T15:12:44Z</time>
      </trkpt>
      <trkpt lat="44.75245" lon="-0.36321">
        <ele>23.15</ele>
        <time>2019-05-19T15:12:45Z</time>
      </trkpt>
      <trkpt lat="44.75191" lon="-0.36364">
        <ele>23.17</ele>
        <time>2019-05-19T15:12:46Z</time>
      </trkpt>
      <trkpt lat="44.75182" lon="-0.36378">
        <ele>25.52</ele>
        <time>2019-05-19T15:12:47Z</time>
      </trkpt>
      <trkpt lat="44.7518" lon="-0.36383">
        <ele>25.55</ele>
        <time>2019-05-19T15:12:57Z</time>
      </trkpt>
      <trkpt lat="44.75175" lon="-0.36394">
        <ele>26.93</ele>
        <time>2019-05-19T15:13:05Z</time>
      </trkpt>
      <trkpt lat="44.75171" lon="-0.36405">
        <ele>24.57</ele>
        <time>2019-05-19T15:13:06Z</time>
      </trkpt>
      <trkpt lat="44.75169" lon="-0.36411">
        <ele>24.56</ele>
        <time>2019-05-19T15:13:07Z</time>
      </trkpt>
      <trkpt lat="44.7514" lon="-0.36517">
        <ele>23.91</ele>
        <time>2019-05-19T15:13:08Z</time>
      </trkpt>
      <trkpt lat="44.75103" lon="-0.36656">
        <ele>24.05</ele>
        <time>2019-05-19T15:13:09Z</time>
      </trkpt>
      <trkpt lat="44.75089" lon="-0.3671">
        <ele>20.93</ele>
        <time>2019-05-19T15:13:10Z</time>
      </trkpt>
      <trkpt lat="44.75087" lon="-0.36717">
        <ele>25.28</ele>
        <time>2019-05-19T15:13:12Z</time>
      </trkpt>
      <trkpt lat="44.75055" lon="-0.3682">
        <ele>25.29</ele>
        <time>2019-05-19T15:13:17Z</time>
      </trkpt>
      <trkpt lat="44.75027" lon="-0.36878">
        <ele>25.33</ele>
        <time>2019-05-19T15:13:18Z</time>
      </trkpt>
      <trkpt lat="44.75024" lon="-0.36882">
        <ele>25.33</ele>
        <time>2019-05-19T15:13:19Z</time>
      </trkpt>
      <trkpt lat="44.75021" lon="-0.36885">
        <ele>22.79</ele>
        <time>2019-05-19T15:13:23Z</time>
      </trkpt>
      <trkpt lat="44.75017" lon="-0.36888">
        <ele>22.79</ele>
        <time>2019-05-19T15:13:24Z</time>
      </trkpt>
      <trkpt lat="44.75015" lon="-0.36891">
        <ele>22.81</ele>
        <time>2019-05-19T15:13:25Z</time>
      </trkpt>
      <trkpt lat="44.75013" lon="-0.36894">
        <ele>22.81</ele>
        <time>2019-05-19T15:13:26Z</time>
      </trkpt>
      <trkpt lat="44.75006" lon="-0.36903">
        <ele>25.3</ele>
        <time>2019-05-19T15:13:27Z</time>
      </trkpt>
      <trkpt lat="44.74996" lon="-0.36916">
        <ele>27.95</ele>
        <time>2019-05-19T15:13:28Z</time>
      </trkpt>
      <trkpt lat="44.74981" lon="-0.3693">
        <ele>27.78</ele>
        <time>2019-05-19T15:13:29Z</time>
      </trkpt>
      <trkpt lat="44.74954" lon="-0.36947">
        <ele>27.83</ele>
        <time>2019-05-19T15:13:30Z</time>
      </trkpt>
      <trkpt lat="44.74927" lon="-0.36964">
        <ele>30.58</ele>
        <time>2019-05-19T15:13:31Z</time>
      </trkpt>
      <trkpt lat="44.74897" lon="-0.36981">
        <ele>30.5</ele>
        <time>2019-05-19T15:13:32Z</time>
      </trkpt>
      <trkpt lat="44.74887" lon="-0.36987">
        <ele>30.48</ele>
        <time>2019-05-19T15:13:33Z</time>
      </trkpt>
      <trkpt lat="44.74857" lon="-0.37001">
        <ele>34.06</ele>
        <time>2019-05-19T15:13:34Z</time>
      </trkpt>
      <trkpt lat="44.7483" lon="-0.37023">
        <ele>37.56</ele>
        <time>2019-05-19T15:13:35Z</time>
      </trkpt>
      <trkpt lat="44.74809" lon="-0.37041">
        <ele>40.14</ele>
        <time>2019-05-19T15:13:36Z</time>
      </trkpt>
      <trkpt lat="44.74779" lon="-0.37057">
        <ele>41.52</ele>
        <time>2019-05-19T15:13:37Z</time>
      </trkpt>
      <trkpt lat="44.74753" lon="-0.37073">
        <ele>42.23</ele>
        <time>2019-05-19T15:13:38Z</time>
      </trkpt>
      <trkpt lat="44.74733" lon="-0.37082">
        <ele>44.19</ele>
        <time>2019-05-19T15:13:39Z</time>
      </trkpt>
      <trkpt lat="44.74705" lon="-0.37095">
        <ele>44.12</ele>
        <time>2019-05-19T15:13:40Z</time>
      </trkpt>
      <trkpt lat="44.747" lon="-0.37095">
        <ele>44.11</ele>
        <time>2019-05-19T15:13:41Z</time>
      </trkpt>
      <trkpt lat="44.74695" lon="-0.37095">
        <ele>44.09</ele>
        <time>2019-05-19T15:13:51Z</time>
      </trkpt>
      <trkpt lat="44.74691" lon="-0.37095">
        <ele>41.77</ele>
        <time>2019-05-19T15:14:00Z</time>
      </trkpt>
      <trkpt lat="44.74686" lon="-0.37096">
        <ele>41.72</ele>
        <time>2019-05-19T15:14:10Z</time>
      </trkpt>
      <trkpt lat="44.74682" lon="-0.37096">
        <ele>41.71</ele>
        <time>2019-05-19T15:14:19Z</time>
      </trkpt>
      <trkpt lat="44.74677" lon="-0.37097">
        <ele>41.69</ele>
        <time>2019-05-19T15:14:29Z</time>
      </trkpt>
      <trkpt lat="44.74628" lon="-0.37101">
        <ele>41.72</ele>
        <time>2019-05-19T15:14:39Z</time>
      </trkpt>
      <trkpt lat="44.74604" lon="-0.37093">
        <ele>41.74</ele>
        <time>2019-05-19T15:14:50Z</time>
      </trkpt>
      <trkpt lat="44.74603" lon="-0.37094">
        <ele>41.73</ele>
        <time>2019-05-19T15:15:00Z</time>
      </trkpt>
      <trkpt lat="44.74604" lon="-0.37097">
        <ele>41.71</ele>
        <time>2019-05-19T15:15:02Z</time>
      </trkpt>
      <trkpt lat="44.74607" lon="-0.37102">
        <ele>41.69</ele>
        <time>2019-05-19T15:15:03Z</time>
      </trkpt>
      <trkpt lat="44.74609" lon="-0.37105">
        <ele>41.68</ele>
        <time>2019-05-19T15:15:04Z</time>
      </trkpt>
      <trkpt lat="44.74612" lon="-0.37109">
        <ele>41.68</ele>
        <time>2019-05-19T15:15:05Z</time>
      </trkpt>
      <trkpt lat="44.74614" lon="-0.37113">
        <ele>41.67</ele>
        <time>2019-05-19T15:15:06Z</time>
      </trkpt>
      <trkpt lat="44.74617" lon="-0.37119">
        <ele>41.67</ele>
        <time>2019-05-19T15:15:07Z</time>
      </trkpt>
      <trkpt lat="44.74628" lon="-0.37138">
        <ele>39.57</ele>
        <time>2019-05-19T15:15:18Z</time>
      </trkpt>
      <trkpt lat="44.74641" lon="-0.37161">
        <ele>36.28</ele>
        <time>2019-05-19T15:15:21Z</time>
      </trkpt>
      <trkpt lat="44.74655" lon="-0.37185">
        <ele>34.2</ele>
        <time>2019-05-19T15:15:23Z</time>
      </trkpt>
      <trkpt lat="44.74668" lon="-0.37209">
        <ele>32.49</ele>
        <time>2019-05-19T15:15:24Z</time>
      </trkpt>
      <trkpt lat="44.74671" lon="-0.37233">
        <ele>32.51</ele>
        <time>2019-05-19T15:15:25Z</time>
      </trkpt>
      <trkpt lat="44.74662" lon="-0.37248">
        <ele>32.8</ele>
        <time>2019-05-19T15:15:26Z</time>
      </trkpt>
      <trkpt lat="44.74662" lon="-0.37253">
        <ele>32.92</ele>
        <time>2019-05-19T15:15:27Z</time>
      </trkpt>
      <trkpt lat="44.74659" lon="-0.37276">
        <ele>31.53</ele>
        <time>2019-05-19T15:15:42Z</time>
      </trkpt>
      <trkpt lat="44.74656" lon="-0.37297">
        <ele>29.89</ele>
        <time>2019-05-19T15:15:45Z</time>
      </trkpt>
      <trkpt lat="44.74651" lon="-0.37304">
        <ele>29.91</ele>
        <time>2019-05-19T15:15:46Z</time>
      </trkpt>
      <trkpt lat="44.74655" lon="-0.37326">
        <ele>26.43</ele>
        <time>2019-05-19T15:15:48Z</time>
      </trkpt>
      <trkpt lat="44.74656" lon="-0.37329">
        <ele>25.29</ele>
        <time>2019-05-19T15:15:50Z</time>
      </trkpt>
      <trkpt lat="44.74674" lon="-0.37327">
        <ele>22.09</ele>
        <time>2019-05-19T15:15:51Z</time>
      </trkpt>
      <trkpt lat="44.74679" lon="-0.37328">
        <ele>22.13</ele>
        <time>2019-05-19T15:16:08Z</time>
      </trkpt>
      <trkpt lat="44.74675" lon="-0.37345">
        <ele>19.96</ele>
        <time>2019-05-19T15:16:29Z</time>
      </trkpt>
      <trkpt lat="44.74674" lon="-0.37348">
        <ele>18.98</ele>
        <time>2019-05-19T15:16:37Z</time>
      </trkpt>
      <trkpt lat="44.74672" lon="-0.37351">
        <ele>19</ele>
        <time>2019-05-19T15:16:38Z</time>
      </trkpt>
      <trkpt lat="44.74663" lon="-0.37361">
        <ele>17</ele>
        <time>2019-05-19T15:16:54Z</time>
      </trkpt>
      <trkpt lat="44.74663" lon="-0.37362">
        <ele>17.05</ele>
        <time>2019-05-19T15:17:05Z</time>
      </trkpt>
      <trkpt lat="44.74668" lon="-0.37358">
        <ele>15.7</ele>
        <time>2019-05-19T15:17:06Z</time>
      </trkpt>
      <trkpt lat="44.74671" lon="-0.37358">
        <ele>14.78</ele>
        <time>2019-05-19T15:17:07Z</time>
      </trkpt>
      <trkpt lat="44.74674" lon="-0.37362">
        <ele>14</ele>
        <time>2019-05-19T15:17:08Z</time>
      </trkpt>
      <trkpt lat="44.74673" lon="-0.37368">
        <ele>14.02</ele>
        <time>2019-05-19T15:17:09Z</time>
      </trkpt>
      <trkpt lat="44.74673" lon="-0.37371">
        <ele>13.99</ele>
        <time>2019-05-19T15:17:10Z</time>
      </trkpt>
      <trkpt lat="44.74672" lon="-0.37374">
        <ele>14.01</ele>
        <time>2019-05-19T15:17:14Z</time>
      </trkpt>
      <trkpt lat="44.7467" lon="-0.37377">
        <ele>13.99</ele>
        <time>2019-05-19T15:17:26Z</time>
      </trkpt>
      <trkpt lat="44.74661" lon="-0.37388">
        <ele>13.21</ele>
        <time>2019-05-19T15:17:45Z</time>
      </trkpt>
      <trkpt lat="44.7466" lon="-0.37392">
        <ele>13.2</ele>
        <time>2019-05-19T15:17:57Z</time>
      </trkpt>
      <trkpt lat="44.7466" lon="-0.37398">
        <ele>13.21</ele>
        <time>2019-05-19T15:18:07Z</time>
      </trkpt>
      <trkpt lat="44.74661" lon="-0.37402">
        <ele>13.21</ele>
        <time>2019-05-19T15:18:17Z</time>
      </trkpt>
      <trkpt lat="44.74662" lon="-0.37405">
        <ele>13.21</ele>
        <time>2019-05-19T15:18:21Z</time>
      </trkpt>
      <trkpt lat="44.74664" lon="-0.37408">
        <ele>13.19</ele>
        <time>2019-05-19T15:18:32Z</time>
      </trkpt>
      <trkpt lat="44.74665" lon="-0.3741">
        <ele>13.19</ele>
        <time>2019-05-19T15:18:44Z</time>
      </trkpt>
      <trkpt lat="44.74667" lon="-0.37412">
        <ele>13.2</ele>
        <time>2019-05-19T15:18:55Z</time>
      </trkpt>
      <trkpt lat="44.74673" lon="-0.37421">
        <ele>13.17</ele>
        <time>2019-05-19T15:19:08Z</time>
      </trkpt>
      <trkpt lat="44.74674" lon="-0.37423">
        <ele>13.19</ele>
        <time>2019-05-19T15:19:19Z</time>
      </trkpt>
      <trkpt lat="44.74676" lon="-0.37425">
        <ele>13.19</ele>
        <time>2019-05-19T15:19:28Z</time>
      </trkpt>
      <trkpt lat="44.74678" lon="-0.37426">
        <ele>13.19</ele>
        <time>2019-05-19T15:19:36Z</time>
      </trkpt>
      <trkpt lat="44.74679" lon="-0.37428">
        <ele>13.19</ele>
        <time>2019-05-19T15:19:37Z</time>
      </trkpt>
      <trkpt lat="44.7468" lon="-0.37429">
        <ele>11.71</ele>
        <time>2019-05-19T15:19:38Z</time>
      </trkpt>
      <trkpt lat="44.74681" lon="-0.3743">
        <ele>11.71</ele>
        <time>2019-05-19T15:19:39Z</time>
      </trkpt>
      <trkpt lat="44.74682" lon="-0.37432">
        <ele>11.72</ele>
        <time>2019-05-19T15:19:40Z</time>
      </trkpt>
      <trkpt lat="44.74683" lon="-0.37433">
        <ele>5.12</ele>
        <time>2019-05-19T15:19:41Z</time>
      </trkpt>
      <trkpt lat="44.74684" lon="-0.37434">
        <ele>11.62</ele>
        <time>2019-05-19T15:19:42Z</time>
      </trkpt>
      <trkpt lat="44.74685" lon="-0.37435">
        <ele>14.65</ele>
        <time>2019-05-19T15:19:55Z</time>
      </trkpt>
      <trkpt lat="44.74687" lon="-0.37437">
        <ele>14.65</ele>
        <time>2019-05-19T15:20:04Z</time>
      </trkpt>
      <trkpt lat="44.74688" lon="-0.37438">
        <ele>14.65</ele>
        <time>2019-05-19T15:20:05Z</time>
      </trkpt>
      <trkpt lat="44.74696" lon="-0.37447">
        <ele>12.3</ele>
        <time>2019-05-19T15:20:08Z</time>
      </trkpt>
      <trkpt lat="44.74696" lon="-0.37448">
        <ele>10.52</ele>
        <time>2019-05-19T15:20:10Z</time>
      </trkpt>
      <trkpt lat="44.74696" lon="-0.37449">
        <ele>13.15</ele>
        <time>2019-05-19T15:20:11Z</time>
      </trkpt>
      <trkpt lat="44.74697" lon="-0.37449">
        <ele>11.36</ele>
        <time>2019-05-19T15:20:12Z</time>
      </trkpt>
      <trkpt lat="44.74696" lon="-0.37451">
        <ele>13.19</ele>
        <time>2019-05-19T15:20:13Z</time>
      </trkpt>
      <trkpt lat="44.74696" lon="-0.37451">
        <ele>9.54</ele>
        <time>2019-05-19T15:20:14Z</time>
      </trkpt>
      <trkpt lat="44.74696" lon="-0.37451">
        <ele>12.54</ele>
        <time>2019-05-19T15:20:17Z</time>
      </trkpt>
      <trkpt lat="44.74696" lon="-0.37451">
        <ele>13.9</ele>
        <time>2019-05-19T15:20:20Z</time>
      </trkpt>
      <trkpt lat="44.74696" lon="-0.37451">
        <ele>10.24</ele>
        <time>2019-05-19T15:20:23Z</time>
      </trkpt>
      <trkpt lat="44.74696" lon="-0.37451">
        <ele>13.44</ele>
        <time>2019-05-19T15:20:26Z</time>
      </trkpt>
      <trkpt lat="44.74696" lon="-0.37451">
        <ele>9.06</ele>
        <time>2019-05-19T15:20:30Z</time>
      </trkpt>
      <trkpt lat="44.74695" lon="-0.37451">
        <ele>13.36</ele>
        <time>2019-05-19T15:20:40Z</time>
      </trkpt>
      <trkpt lat="44.74696" lon="-0.3745">
        <ele>13.06</ele>
        <time>2019-05-19T15:21:01Z</time>
      </trkpt>
      <trkpt lat="44.74703" lon="-0.37464">
        <ele>10.98</ele>
        <time>2019-05-19T15:21:33Z</time>
      </trkpt>
      <trkpt lat="44.74732" lon="-0.37499">
        <ele>13.25</ele>
        <time>2019-05-19T15:21:38Z</time>
      </trkpt>
      <trkpt lat="44.74776" lon="-0.37557">
        <ele>14.93</ele>
        <time>2019-05-19T15:21:42Z</time>
      </trkpt>
      <trkpt lat="44.74812" lon="-0.37585">
        <ele>17.69</ele>
        <time>2019-05-19T15:21:50Z</time>
      </trkpt>
      <trkpt lat="44.74849" lon="-0.37566">
        <ele>20.48</ele>
        <time>2019-05-19T15:21:52Z</time>
      </trkpt>
      <trkpt lat="44.74883" lon="-0.3752">
        <ele>24.03</ele>
        <time>2019-05-19T15:22:00Z</time>
      </trkpt>
      <trkpt lat="44.74914" lon="-0.37472">
        <ele>26.54</ele>
        <time>2019-05-19T15:22:04Z</time>
      </trkpt>
      <trkpt lat="44.7494" lon="-0.37433">
        <ele>30.04</ele>
        <time>2019-05-19T15:22:12Z</time>
      </trkpt>
      <trkpt lat="44.74966" lon="-0.37396">
        <ele>32.68</ele>
        <time>2019-05-19T15:22:13Z</time>
      </trkpt>
      <trkpt lat="44.74966" lon="-0.37398">
        <ele>32.7</ele>
        <time>2019-05-19T15:22:14Z</time>
      </trkpt>
      <trkpt lat="44.74966" lon="-0.37399">
        <ele>32.73</ele>
        <time>2019-05-19T15:22:18Z</time>
      </trkpt>
      <trkpt lat="44.74966" lon="-0.37401">
        <ele>32.69</ele>
        <time>2019-05-19T15:22:19Z</time>
      </trkpt>
      <trkpt lat="44.74978" lon="-0.37398">
        <ele>33.82</ele>
        <time>2019-05-19T15:22:22Z</time>
      </trkpt>
      <trkpt lat="44.74999" lon="-0.37368">
        <ele>37</ele>
        <time>2019-05-19T15:22:24Z</time>
      </trkpt>
      <trkpt lat="44.75014" lon="-0.37352">
        <ele>39.4</ele>
        <time>2019-05-19T15:22:28Z</time>
      </trkpt>
      <trkpt lat="44.75041" lon="-0.37321">
        <ele>40.18</ele>
        <time>2019-05-19T15:22:30Z</time>
      </trkpt>
      <trkpt lat="44.75072" lon="-0.37286">
        <ele>41.95</ele>
        <time>2019-05-19T15:22:31Z</time>
      </trkpt>
      <trkpt lat="44.75089" lon="-0.37306">
        <ele>45.52</ele>
        <time>2019-05-19T15:22:32Z</time>
      </trkpt>
      <trkpt lat="44.7511" lon="-0.37335">
        <ele>48.81</ele>
        <time>2019-05-19T15:22:33Z</time>
      </trkpt>
      <trkpt lat="44.75113" lon="-0.37337">
        <ele>48.82</ele>
        <time>2019-05-19T15:22:37Z</time>
      </trkpt>
      <trkpt lat="44.75126" lon="-0.37331">
        <ele>49.79</ele>
        <time>2019-05-19T15:22:38Z</time>
      </trkpt>
      <trkpt lat="44.75146" lon="-0.37357">
        <ele>52.44</ele>
        <time>2019-05-19T15:22:39Z</time>
      </trkpt>
      <trkpt lat="44.75165" lon="-0.37393">
        <ele>54.22</ele>
        <time>2019-05-19T15:22:40Z</time>
      </trkpt>
      <trkpt lat="44.75186" lon="-0.37424">
        <ele>55.09</ele>
        <time>2019-05-19T15:22:41Z</time>
      </trkpt>
      <trkpt lat="44.75191" lon="-0.37429">
        <ele>55.1</ele>
        <time>2019-05-19T15:22:42Z</time>
      </trkpt>
      <trkpt lat="44.7521" lon="-0.37449">
        <ele>55.14</ele>
        <time>2019-05-19T15:22:43Z</time>
      </trkpt>
      <trkpt lat="44.7522" lon="-0.37451">
        <ele>55.15</ele>
        <time>2019-05-19T15:22:44Z</time>
      </trkpt>
      <trkpt lat="44.75261" lon="-0.37457">
        <ele>58.82</ele>
        <time>2019-05-19T15:22:50Z</time>
      </trkpt>
      <trkpt lat="44.75289" lon="-0.37451">
        <ele>62.17</ele>
        <time>2019-05-19T15:22:51Z</time>
      </trkpt>
      <trkpt lat="44.75313" lon="-0.37424">
        <ele>63.98</ele>
        <time>2019-05-19T15:22:52Z</time>
      </trkpt>
      <trkpt lat="44.75315" lon="-0.37422">
        <ele>63.98</ele>
        <time>2019-05-19T15:22:53Z</time>
      </trkpt>
      <trkpt lat="44.75321" lon="-0.37427">
        <ele>63.94</ele>
        <time>2019-05-19T15:22:54Z</time>
      </trkpt>
      <trkpt lat="44.75325" lon="-0.37432">
        <ele>63.89</ele>
        <time>2019-05-19T15:22:55Z</time>
      </trkpt>
      <trkpt lat="44.75328" lon="-0.37434">
        <ele>63.87</ele>
        <time>2019-05-19T15:22:56Z</time>
      </trkpt>
      <trkpt lat="44.75333" lon="-0.37436">
        <ele>64</ele>
        <time>2019-05-19T15:22:57Z</time>
      </trkpt>
      <trkpt lat="44.75333" lon="-0.37438">
        <ele>64.19</ele>
        <time>2019-05-19T15:22:58Z</time>
      </trkpt>
      <trkpt lat="44.75332" lon="-0.37436">
        <ele>64.46</ele>
        <time>2019-05-19T15:22:59Z</time>
      </trkpt>
      <trkpt lat="44.75343" lon="-0.37454">
        <ele>64.54</ele>
        <time>2019-05-19T15:23:00Z</time>
      </trkpt>
      <trkpt lat="44.7537" lon="-0.37506">
        <ele>64.61</ele>
        <time>2019-05-19T15:23:01Z</time>
      </trkpt>
      <trkpt lat="44.75379" lon="-0.37564">
        <ele>64.66</ele>
        <time>2019-05-19T15:23:02Z</time>
      </trkpt>
      <trkpt lat="44.75392" lon="-0.37633">
        <ele>64.66</ele>
        <time>2019-05-19T15:23:09Z</time>
      </trkpt>
      <trkpt lat="44.75395" lon="-0.37652">
        <ele>64.66</ele>
        <time>2019-05-19T15:23:14Z</time>
      </trkpt>
      <trkpt lat="44.75396" lon="-0.37665">
        <ele>64.66</ele>
        <time>2019-05-19T15:23:18Z</time>
      </trkpt>
      <trkpt lat="44.75396" lon="-0.37671">
        <ele>64.66</ele>
        <time>2019-05-19T15:23:40Z</time>
      </trkpt>
      <trkpt lat="44.75397" lon="-0.37677">
        <ele>64.66</ele>
        <time>2019-05-19T15:23:48Z</time>
      </trkpt>
      <trkpt lat="44.75398" lon="-0.37683">
        <ele>64.66</ele>
        <time>2019-05-19T15:23:51Z</time>
      </trkpt>
      <trkpt lat="44.75399" lon="-0.37688">
        <ele>64.66</ele>
        <time>2019-05-19T15:23:53Z</time>
      </trkpt>
      <trkpt lat="44.75402" lon="-0.3775">
        <ele>66.29</ele>
        <time>2019-05-19T15:23:56Z</time>
      </trkpt>
      <trkpt lat="44.75401" lon="-0.37831">
        <ele>68.16</ele>
        <time>2019-05-19T15:23:57Z</time>
      </trkpt>
      <trkpt lat="44.75405" lon="-0.37875">
        <ele>68.15</ele>
        <time>2019-05-19T15:23:58Z</time>
      </trkpt>
      <trkpt lat="44.75422" lon="-0.37938">
        <ele>68.16</ele>
        <time>2019-05-19T15:24:05Z</time>
      </trkpt>
      <trkpt lat="44.75427" lon="-0.37948">
        <ele>69.02</ele>
        <time>2019-05-19T15:24:06Z</time>
      </trkpt>
      <trkpt lat="44.75481" lon="-0.38033">
        <ele>69.85</ele>
        <time>2019-05-19T15:24:54Z</time>
      </trkpt>
      <trkpt lat="44.75499" lon="-0.38069">
        <ele>67.49</ele>
        <time>2019-05-19T15:25:24Z</time>
      </trkpt>
      <trkpt lat="44.7551" lon="-0.38086">
        <ele>67.51</ele>
        <time>2019-05-19T15:25:34Z</time>
      </trkpt>
      <trkpt lat="44.75514" lon="-0.38086">
        <ele>67.52</ele>
        <time>2019-05-19T15:25:50Z</time>
      </trkpt>
      <trkpt lat="44.75518" lon="-0.38083">
        <ele>67.51</ele>
        <time>2019-05-19T15:26:03Z</time>
      </trkpt>
      <trkpt lat="44.75522" lon="-0.38079">
        <ele>67.51</ele>
        <time>2019-05-19T15:26:16Z</time>
      </trkpt>
      <trkpt lat="44.75525" lon="-0.38074">
        <ele>67.53</ele>
        <time>2019-05-19T15:26:31Z</time>
      </trkpt>
      <trkpt lat="44.75539" lon="-0.38058">
        <ele>67.53</ele>
        <time>2019-05-19T15:26:45Z</time>
      </trkpt>
      <trkpt lat="44.75542" lon="-0.38055">
        <ele>67.54</ele>
        <time>2019-05-19T15:26:57Z</time>
      </trkpt>
      <trkpt lat="44.75546" lon="-0.38055">
        <ele>67.54</ele>
        <time>2019-05-19T15:27:12Z</time>
      </trkpt>
      <trkpt lat="44.7555" lon="-0.38056">
        <ele>66.74</ele>
        <time>2019-05-19T15:27:14Z</time>
      </trkpt>
      <trkpt lat="44.75554" lon="-0.38059">
        <ele>65.98</ele>
        <time>2019-05-19T15:27:15Z</time>
      </trkpt>
      <trkpt lat="44.75557" lon="-0.38063">
        <ele>65.08</ele>
        <time>2019-05-19T15:27:16Z</time>
      </trkpt>
      <trkpt lat="44.75559" lon="-0.38069">
        <ele>65.08</ele>
        <time>2019-05-19T15:27:25Z</time>
      </trkpt>
      <trkpt lat="44.75561" lon="-0.38076">
        <ele>63.88</ele>
        <time>2019-05-19T15:27:44Z</time>
      </trkpt>
      <trkpt lat="44.75566" lon="-0.3809">
        <ele>63.82</ele>
        <time>2019-05-19T15:27:55Z</time>
      </trkpt>
      <trkpt lat="44.75569" lon="-0.38104">
        <ele>62.94</ele>
        <time>2019-05-19T15:28:12Z</time>
      </trkpt>
      <trkpt lat="44.75573" lon="-0.38117">
        <ele>62.28</ele>
        <time>2019-05-19T15:28:31Z</time>
      </trkpt>
      <trkpt lat="44.75586" lon="-0.38153">
        <ele>61.32</ele>
        <time>2019-05-19T15:28:43Z</time>
      </trkpt>
      <trkpt lat="44.75589" lon="-0.38158">
        <ele>60.2</ele>
        <time>2019-05-19T15:29:00Z</time>
      </trkpt>
      <trkpt lat="44.75593" lon="-0.38164">
        <ele>60.2</ele>
        <time>2019-05-19T15:29:02Z</time>
      </trkpt>
      <trkpt lat="44.75595" lon="-0.3817">
        <ele>58.95</ele>
        <time>2019-05-19T15:29:11Z</time>
      </trkpt>
      <trkpt lat="44.75597" lon="-0.38177">
        <ele>58.95</ele>
        <time>2019-05-19T15:29:26Z</time>
      </trkpt>
      <trkpt lat="44.756" lon="-0.38183">
        <ele>57.87</ele>
        <time>2019-05-19T15:29:43Z</time>
      </trkpt>
      <trkpt lat="44.75604" lon="-0.38189">
        <ele>57.87</ele>
        <time>2019-05-19T15:29:56Z</time>
      </trkpt>
      <trkpt lat="44.75615" lon="-0.38205">
        <ele>55.75</ele>
        <time>2019-05-19T15:29:58Z</time>
      </trkpt>
      <trkpt lat="44.75618" lon="-0.38207">
        <ele>55.75</ele>
        <time>2019-05-19T15:30:08Z</time>
      </trkpt>
      <trkpt lat="44.75621" lon="-0.38209">
        <ele>55.75</ele>
        <time>2019-05-19T15:30:11Z</time>
      </trkpt>
      <trkpt lat="44.75623" lon="-0.38211">
        <ele>55.76</ele>
        <time>2019-05-19T15:30:25Z</time>
      </trkpt>
      <trkpt lat="44.75625" lon="-0.38214">
        <ele>55.76</ele>
        <time>2019-05-19T15:30:38Z</time>
      </trkpt>
      <trkpt lat="44.75628" lon="-0.38216">
        <ele>55.76</ele>
        <time>2019-05-19T15:30:52Z</time>
      </trkpt>
      <trkpt lat="44.75631" lon="-0.38219">
        <ele>54.96</ele>
        <time>2019-05-19T15:30:53Z</time>
      </trkpt>
      <trkpt lat="44.75641" lon="-0.38228">
        <ele>54.95</ele>
        <time>2019-05-19T15:30:58Z</time>
      </trkpt>
      <trkpt lat="44.75651" lon="-0.3823">
        <ele>54.9</ele>
        <time>2019-05-19T15:31:16Z</time>
      </trkpt>
      <trkpt lat="44.75655" lon="-0.38232">
        <ele>54.88</ele>
        <time>2019-05-19T15:31:48Z</time>
      </trkpt>
      <trkpt lat="44.75659" lon="-0.38231">
        <ele>54.08</ele>
        <time>2019-05-19T15:32:28Z</time>
      </trkpt>
      <trkpt lat="44.75661" lon="-0.3823">
        <ele>54.08</ele>
        <time>2019-05-19T15:33:04Z</time>
      </trkpt>
      <trkpt lat="44.75706" lon="-0.38204">
        <ele>53.01</ele>
        <time>2019-05-19T15:33:50Z</time>
      </trkpt>
      <trkpt lat="44.75751" lon="-0.38203">
        <ele>52.91</ele>
        <time>2019-05-19T15:34:04Z</time>
      </trkpt>
      <trkpt lat="44.7578" lon="-0.38223">
        <ele>52.86</ele>
        <time>2019-05-19T15:34:20Z</time>
      </trkpt>
      <trkpt lat="44.75783" lon="-0.38224">
        <ele>52.85</ele>
        <time>2019-05-19T15:34:33Z</time>
      </trkpt>
      <trkpt lat="44.75785" lon="-0.38226">
        <ele>52.85</ele>
        <time>2019-05-19T15:34:46Z</time>
      </trkpt>
      <trkpt lat="44.75787" lon="-0.38228">
        <ele>52.84</ele>
        <time>2019-05-19T15:34:49Z</time>
      </trkpt>
      <trkpt lat="44.7579" lon="-0.3823">
        <ele>52.84</ele>
        <time>2019-05-19T15:34:51Z</time>
      </trkpt>
      <trkpt lat="44.75793" lon="-0.38232">
        <ele>52.83</ele>
        <time>2019-05-19T15:34:52Z</time>
      </trkpt>
      <trkpt lat="44.75796" lon="-0.38233">
        <ele>52.83</ele>
        <time>2019-05-19T15:34:53Z</time>
      </trkpt>
      <trkpt lat="44.75812" lon="-0.38245">
        <ele>55.1</ele>
        <time>2019-05-19T15:34:54Z</time>
      </trkpt>
      <trkpt lat="44.7585" lon="-0.38268">
        <ele>56.91</ele>
        <time>2019-05-19T15:34:55Z</time>
      </trkpt>
      <trkpt lat="44.75884" lon="-0.38293">
        <ele>57.7</ele>
        <time>2019-05-19T15:35:06Z</time>
      </trkpt>
      <trkpt lat="44.75917" lon="-0.3832">
        <ele>59.59</ele>
        <time>2019-05-19T15:35:19Z</time>
      </trkpt>
      <trkpt lat="44.75931" lon="-0.38365">
        <ele>60.6</ele>
        <time>2019-05-19T15:35:26Z</time>
      </trkpt>
      <trkpt lat="44.75934" lon="-0.38417">
        <ele>61.41</ele>
        <time>2019-05-19T15:35:37Z</time>
      </trkpt>
      <trkpt lat="44.75933" lon="-0.38464">
        <ele>62.28</ele>
        <time>2019-05-19T15:35:39Z</time>
      </trkpt>
      <trkpt lat="44.75933" lon="-0.38466">
        <ele>62.26</ele>
        <time>2019-05-19T15:35:57Z</time>
      </trkpt>
      <trkpt lat="44.75933" lon="-0.38469">
        <ele>62.18</ele>
        <time>2019-05-19T15:36:03Z</time>
      </trkpt>
      <trkpt lat="44.75934" lon="-0.38472">
        <ele>62.26</ele>
        <time>2019-05-19T15:36:07Z</time>
      </trkpt>
      <trkpt lat="44.75934" lon="-0.38474">
        <ele>63.04</ele>
        <time>2019-05-19T15:36:08Z</time>
      </trkpt>
      <trkpt lat="44.75934" lon="-0.38476">
        <ele>63.03</ele>
        <time>2019-05-19T15:36:09Z</time>
      </trkpt>
      <trkpt lat="44.75934" lon="-0.38479">
        <ele>63.01</ele>
        <time>2019-05-19T15:36:10Z</time>
      </trkpt>
      <trkpt lat="44.75936" lon="-0.38487">
        <ele>62.99</ele>
        <time>2019-05-19T15:36:11Z</time>
      </trkpt>
      <trkpt lat="44.75936" lon="-0.38493">
        <ele>63</ele>
        <time>2019-05-19T15:36:15Z</time>
      </trkpt>
      <trkpt lat="44.75935" lon="-0.38496">
        <ele>63.03</ele>
        <time>2019-05-19T15:36:16Z</time>
      </trkpt>
      <trkpt lat="44.75935" lon="-0.38498">
        <ele>63.02</ele>
        <time>2019-05-19T15:36:17Z</time>
      </trkpt>
      <trkpt lat="44.75935" lon="-0.38501">
        <ele>63.02</ele>
        <time>2019-05-19T15:36:18Z</time>
      </trkpt>
      <trkpt lat="44.75935" lon="-0.38504">
        <ele>63.02</ele>
        <time>2019-05-19T15:36:19Z</time>
      </trkpt>
      <trkpt lat="44.75935" lon="-0.38508">
        <ele>63.03</ele>
        <time>2019-05-19T15:36:20Z</time>
      </trkpt>
      <trkpt lat="44.75936" lon="-0.38551">
        <ele>63.07</ele>
        <time>2019-05-19T15:36:21Z</time>
      </trkpt>
      <trkpt lat="44.75937" lon="-0.38566">
        <ele>62.99</ele>
        <time>2019-05-19T15:36:22Z</time>
      </trkpt>
      <trkpt lat="44.75938" lon="-0.38573">
        <ele>62.99</ele>
        <time>2019-05-19T15:36:24Z</time>
      </trkpt>
      <trkpt lat="44.7594" lon="-0.38587">
        <ele>58.8</ele>
        <time>2019-05-19T15:36:26Z</time>
      </trkpt>
      <trkpt lat="44.75941" lon="-0.38595">
        <ele>58.65</ele>
        <time>2019-05-19T15:36:28Z</time>
      </trkpt>
      <trkpt lat="44.75941" lon="-0.38602">
        <ele>57.53</ele>
        <time>2019-05-19T15:36:34Z</time>
      </trkpt>
      <trkpt lat="44.7594" lon="-0.38609">
        <ele>56.64</ele>
        <time>2019-05-19T15:36:35Z</time>
      </trkpt>
      <trkpt lat="44.7594" lon="-0.38616">
        <ele>56.63</ele>
        <time>2019-05-19T15:36:36Z</time>
      </trkpt>
      <trkpt lat="44.7594" lon="-0.38623">
        <ele>55.06</ele>
        <time>2019-05-19T15:36:37Z</time>
      </trkpt>
      <trkpt lat="44.7594" lon="-0.38636">
        <ele>53.15</ele>
        <time>2019-05-19T15:36:38Z</time>
      </trkpt>
      <trkpt lat="44.75941" lon="-0.38665">
        <ele>49.21</ele>
        <time>2019-05-19T15:36:39Z</time>
      </trkpt>
      <trkpt lat="44.75941" lon="-0.38688">
        <ele>45.78</ele>
        <time>2019-05-19T15:36:40Z</time>
      </trkpt>
      <trkpt lat="44.7594" lon="-0.38712">
        <ele>43.05</ele>
        <time>2019-05-19T15:36:43Z</time>
      </trkpt>
      <trkpt lat="44.75943" lon="-0.38732">
        <ele>40.01</ele>
        <time>2019-05-19T15:36:44Z</time>
      </trkpt>
      <trkpt lat="44.75945" lon="-0.38755">
        <ele>36.79</ele>
        <time>2019-05-19T15:36:45Z</time>
      </trkpt>
      <trkpt lat="44.75945" lon="-0.38761">
        <ele>36.87</ele>
        <time>2019-05-19T15:36:46Z</time>
      </trkpt>
      <trkpt lat="44.75949" lon="-0.38791">
        <ele>35.18</ele>
        <time>2019-05-19T15:36:47Z</time>
      </trkpt>
      <trkpt lat="44.75949" lon="-0.38802">
        <ele>34.14</ele>
        <time>2019-05-19T15:36:48Z</time>
      </trkpt>
      <trkpt lat="44.75943" lon="-0.38815">
        <ele>34.3</ele>
        <time>2019-05-19T15:36:49Z</time>
      </trkpt>
      <trkpt lat="44.75938" lon="-0.38832">
        <ele>34.57</ele>
        <time>2019-05-19T15:36:53Z</time>
      </trkpt>
      <trkpt lat="44.75926" lon="-0.38853">
        <ele>33.74</ele>
        <time>2019-05-19T15:36:59Z</time>
      </trkpt>
      <trkpt lat="44.75922" lon="-0.3886">
        <ele>33.72</ele>
        <time>2019-05-19T15:37:01Z</time>
      </trkpt>
      <trkpt lat="44.75919" lon="-0.38873">
        <ele>33.76</ele>
        <time>2019-05-19T15:37:03Z</time>
      </trkpt>
      <trkpt lat="44.75918" lon="-0.38885">
        <ele>33.7</ele>
        <time>2019-05-19T15:37:04Z</time>
      </trkpt>
      <trkpt lat="44.75918" lon="-0.38891">
        <ele>33.69</ele>
        <time>2019-05-19T15:37:17Z</time>
      </trkpt>
      <trkpt lat="44.75918" lon="-0.38896">
        <ele>33.68</ele>
        <time>2019-05-19T15:37:28Z</time>
      </trkpt>
      <trkpt lat="44.75924" lon="-0.389">
        <ele>36.2</ele>
        <time>2019-05-19T15:37:37Z</time>
      </trkpt>
      <trkpt lat="44.75928" lon="-0.3891">
        <ele>36.25</ele>
        <time>2019-05-19T15:37:38Z</time>
      </trkpt>
      <trkpt lat="44.7593" lon="-0.38915">
        <ele>37.03</ele>
        <time>2019-05-19T15:37:39Z</time>
      </trkpt>
      <trkpt lat="44.75933" lon="-0.38921">
        <ele>37.02</ele>
        <time>2019-05-19T15:37:40Z</time>
      </trkpt>
      <trkpt lat="44.75942" lon="-0.38934">
        <ele>37.95</ele>
        <time>2019-05-19T15:37:41Z</time>
      </trkpt>
      <trkpt lat="44.75946" lon="-0.38939">
        <ele>38.89</ele>
        <time>2019-05-19T15:37:42Z</time>
      </trkpt>
      <trkpt lat="44.75949" lon="-0.38948">
        <ele>38.82</ele>
        <time>2019-05-19T15:37:43Z</time>
      </trkpt>
      <trkpt lat="44.75952" lon="-0.38958">
        <ele>38.74</ele>
        <time>2019-05-19T15:37:49Z</time>
      </trkpt>
      <trkpt lat="44.75954" lon="-0.38962">
        <ele>38.67</ele>
        <time>2019-05-19T15:38:01Z</time>
      </trkpt>
      <trkpt lat="44.75954" lon="-0.38986">
        <ele>38.33</ele>
        <time>2019-05-19T15:38:12Z</time>
      </trkpt>
      <trkpt lat="44.75962" lon="-0.39008">
        <ele>38.2</ele>
        <time>2019-05-19T15:38:23Z</time>
      </trkpt>
      <trkpt lat="44.75966" lon="-0.3902">
        <ele>38.12</ele>
        <time>2019-05-19T15:38:35Z</time>
      </trkpt>
      <trkpt lat="44.75966" lon="-0.39038">
        <ele>38.81</ele>
        <time>2019-05-19T15:38:48Z</time>
      </trkpt>
      <trkpt lat="44.75963" lon="-0.39043">
        <ele>38.76</ele>
        <time>2019-05-19T15:39:01Z</time>
      </trkpt>
      <trkpt lat="44.75944" lon="-0.39052">
        <ele>41.92</ele>
        <time>2019-05-19T15:39:02Z</time>
      </trkpt>
      <trkpt lat="44.75939" lon="-0.39048">
        <ele>41.82</ele>
        <time>2019-05-19T15:39:03Z</time>
      </trkpt>
      <trkpt lat="44.7591" lon="-0.3904">
        <ele>42.25</ele>
        <time>2019-05-19T15:39:04Z</time>
      </trkpt>
      <trkpt lat="44.75901" lon="-0.39041">
        <ele>43.86</ele>
        <time>2019-05-19T15:39:05Z</time>
      </trkpt>
      <trkpt lat="44.75897" lon="-0.3904">
        <ele>43.78</ele>
        <time>2019-05-19T15:39:06Z</time>
      </trkpt>
      <trkpt lat="44.75894" lon="-0.39021">
        <ele>43.19</ele>
        <time>2019-05-19T15:39:07Z</time>
      </trkpt>
      <trkpt lat="44.75895" lon="-0.39016">
        <ele>43.06</ele>
        <time>2019-05-19T15:39:11Z</time>
      </trkpt>
      <trkpt lat="44.75893" lon="-0.39005">
        <ele>40.14</ele>
        <time>2019-05-19T15:39:27Z</time>
      </trkpt>
      <trkpt lat="44.75892" lon="-0.38999">
        <ele>39.08</ele>
        <time>2019-05-19T15:39:31Z</time>
      </trkpt>
      <trkpt lat="44.75892" lon="-0.38984">
        <ele>37.13</ele>
        <time>2019-05-19T15:39:32Z</time>
      </trkpt>
      <trkpt lat="44.75892" lon="-0.38976">
        <ele>36.01</ele>
        <time>2019-05-19T15:39:33Z</time>
      </trkpt>
      <trkpt lat="44.75886" lon="-0.38968">
        <ele>34.98</ele>
        <time>2019-05-19T15:39:34Z</time>
      </trkpt>
      <trkpt lat="44.75875" lon="-0.38943">
        <ele>33.17</ele>
        <time>2019-05-19T15:39:35Z</time>
      </trkpt>
      <trkpt lat="44.75872" lon="-0.3894">
        <ele>32.22</ele>
        <time>2019-05-19T15:39:45Z</time>
      </trkpt>
      <trkpt lat="44.75858" lon="-0.38933">
        <ele>32.07</ele>
        <time>2019-05-19T15:39:48Z</time>
      </trkpt>
      <trkpt lat="44.75849" lon="-0.38927">
        <ele>34.46</ele>
        <time>2019-05-19T15:39:49Z</time>
      </trkpt>
      <trkpt lat="44.75838" lon="-0.38906">
        <ele>34.21</ele>
        <time>2019-05-19T15:39:51Z</time>
      </trkpt>
      <trkpt lat="44.7583" lon="-0.38903">
        <ele>33.88</ele>
        <time>2019-05-19T15:39:52Z</time>
      </trkpt>
      <trkpt lat="44.75824" lon="-0.38904">
        <ele>33.74</ele>
        <time>2019-05-19T15:39:53Z</time>
      </trkpt>
      <trkpt lat="44.75817" lon="-0.38903">
        <ele>33.65</ele>
        <time>2019-05-19T15:39:54Z</time>
      </trkpt>
      <trkpt lat="44.75809" lon="-0.38897">
        <ele>33.58</ele>
        <time>2019-05-19T15:39:55Z</time>
      </trkpt>
      <trkpt lat="44.758" lon="-0.38899">
        <ele>33.52</ele>
        <time>2019-05-19T15:39:56Z</time>
      </trkpt>
      <trkpt lat="44.75797" lon="-0.38902">
        <ele>33.46</ele>
        <time>2019-05-19T15:39:58Z</time>
      </trkpt>
      <trkpt lat="44.75798" lon="-0.38903">
        <ele>34.86</ele>
        <time>2019-05-19T15:40:02Z</time>
      </trkpt>
      <trkpt lat="44.75802" lon="-0.3891">
        <ele>36.93</ele>
        <time>2019-05-19T15:40:05Z</time>
      </trkpt>
      <trkpt lat="44.7579" lon="-0.38916">
        <ele>38.26</ele>
        <time>2019-05-19T15:40:09Z</time>
      </trkpt>
      <trkpt lat="44.75787" lon="-0.38927">
        <ele>39.95</ele>
        <time>2019-05-19T15:40:13Z</time>
      </trkpt>
      <trkpt lat="44.75781" lon="-0.38928">
        <ele>40.7</ele>
        <time>2019-05-19T15:40:16Z</time>
      </trkpt>
      <trkpt lat="44.75776" lon="-0.38927">
        <ele>40.63</ele>
        <time>2019-05-19T15:40:17Z</time>
      </trkpt>
      <trkpt lat="44.75772" lon="-0.38928">
        <ele>40.57</ele>
        <time>2019-05-19T15:40:24Z</time>
      </trkpt>
      <trkpt lat="44.75766" lon="-0.38932">
        <ele>41.6</ele>
        <time>2019-05-19T15:40:26Z</time>
      </trkpt>
      <trkpt lat="44.75755" lon="-0.38934">
        <ele>41.53</ele>
        <time>2019-05-19T15:40:30Z</time>
      </trkpt>
      <trkpt lat="44.7574" lon="-0.3894">
        <ele>41.44</ele>
        <time>2019-05-19T15:40:47Z</time>
      </trkpt>
      <trkpt lat="44.75736" lon="-0.38939">
        <ele>38.89</ele>
        <time>2019-05-19T15:40:59Z</time>
      </trkpt>
      <trkpt lat="44.75721" lon="-0.38934">
        <ele>36.69</ele>
        <time>2019-05-19T15:41:03Z</time>
      </trkpt>
      <trkpt lat="44.75696" lon="-0.38926">
        <ele>33.12</ele>
        <time>2019-05-19T15:41:10Z</time>
      </trkpt>
      <trkpt lat="44.75692" lon="-0.38923">
        <ele>33.13</ele>
        <time>2019-05-19T15:41:20Z</time>
      </trkpt>
      <trkpt lat="44.75675" lon="-0.38912">
        <ele>32.31</ele>
        <time>2019-05-19T15:41:22Z</time>
      </trkpt>
      <trkpt lat="44.75672" lon="-0.38908">
        <ele>32.39</ele>
        <time>2019-05-19T15:41:24Z</time>
      </trkpt>
      <trkpt lat="44.75667" lon="-0.38904">
        <ele>31.6</ele>
        <time>2019-05-19T15:41:31Z</time>
      </trkpt>
      <trkpt lat="44.75662" lon="-0.38902">
        <ele>31.6</ele>
        <time>2019-05-19T15:41:35Z</time>
      </trkpt>
      <trkpt lat="44.75657" lon="-0.38903">
        <ele>29.59</ele>
        <time>2019-05-19T15:41:37Z</time>
      </trkpt>
      <trkpt lat="44.7565" lon="-0.38893">
        <ele>28.46</ele>
        <time>2019-05-19T15:41:40Z</time>
      </trkpt>
      <trkpt lat="44.75636" lon="-0.38888">
        <ele>24.96</ele>
        <time>2019-05-19T15:41:48Z</time>
      </trkpt>
      <trkpt lat="44.75615" lon="-0.38874">
        <ele>21.79</ele>
        <time>2019-05-19T15:41:51Z</time>
      </trkpt>
      <trkpt lat="44.75604" lon="-0.38872">
        <ele>22.14</ele>
        <time>2019-05-19T15:41:55Z</time>
      </trkpt>
      <trkpt lat="44.75604" lon="-0.38873">
        <ele>20.31</ele>
        <time>2019-05-19T15:41:59Z</time>
      </trkpt>
      <trkpt lat="44.75602" lon="-0.38872">
        <ele>22.86</ele>
        <time>2019-05-19T15:42:01Z</time>
      </trkpt>
      <trkpt lat="44.75598" lon="-0.38869">
        <ele>23.18</ele>
        <time>2019-05-19T15:42:13Z</time>
      </trkpt>
      <trkpt lat="44.75596" lon="-0.38872">
        <ele>23.45</ele>
        <time>2019-05-19T15:42:22Z</time>
      </trkpt>
      <trkpt lat="44.75596" lon="-0.38871">
        <ele>21.33</ele>
        <time>2019-05-19T15:42:26Z</time>
      </trkpt>
      <trkpt lat="44.75595" lon="-0.3887">
        <ele>24.1</ele>
        <time>2019-05-19T15:42:34Z</time>
      </trkpt>
      <trkpt lat="44.75595" lon="-0.3887">
        <ele>21.06</ele>
        <time>2019-05-19T15:42:36Z</time>
      </trkpt>
      <trkpt lat="44.75595" lon="-0.38869">
        <ele>21.06</ele>
        <time>2019-05-19T15:42:47Z</time>
      </trkpt>
      <trkpt lat="44.75594" lon="-0.38869">
        <ele>23.97</ele>
        <time>2019-05-19T15:42:51Z</time>
      </trkpt>
      <trkpt lat="44.75594" lon="-0.38868">
        <ele>21.38</ele>
        <time>2019-05-19T15:43:03Z</time>
      </trkpt>
      <trkpt lat="44.75596" lon="-0.38869">
        <ele>21.61</ele>
        <time>2019-05-19T15:43:09Z</time>
      </trkpt>
      <trkpt lat="44.75591" lon="-0.3887">
        <ele>21.73</ele>
        <time>2019-05-19T15:43:12Z</time>
      </trkpt>
      <trkpt lat="44.7558" lon="-0.38878">
        <ele>21.84</ele>
        <time>2019-05-19T15:43:22Z</time>
      </trkpt>
      <trkpt lat="44.75566" lon="-0.38893">
        <ele>21.94</ele>
        <time>2019-05-19T15:43:24Z</time>
      </trkpt>
      <trkpt lat="44.75558" lon="-0.38902">
        <ele>21.95</ele>
        <time>2019-05-19T15:43:28Z</time>
      </trkpt>
      <trkpt lat="44.75555" lon="-0.38907">
        <ele>21.96</ele>
        <time>2019-05-19T15:43:30Z</time>
      </trkpt>
      <trkpt lat="44.75552" lon="-0.38914">
        <ele>21.98</ele>
        <time>2019-05-19T15:43:34Z</time>
      </trkpt>
      <trkpt lat="44.7555" lon="-0.38921">
        <ele>21.99</ele>
        <time>2019-05-19T15:43:37Z</time>
      </trkpt>
      <trkpt lat="44.75548" lon="-0.38941">
        <ele>22.02</ele>
        <time>2019-05-19T15:43:45Z</time>
      </trkpt>
      <trkpt lat="44.75541" lon="-0.38956">
        <ele>22.05</ele>
        <time>2019-05-19T15:43:55Z</time>
      </trkpt>
      <trkpt lat="44.75514" lon="-0.38982">
        <ele>20.4</ele>
        <time>2019-05-19T15:43:57Z</time>
      </trkpt>
      <trkpt lat="44.75483" lon="-0.39007">
        <ele>20.31</ele>
        <time>2019-05-19T15:44:04Z</time>
      </trkpt>
      <trkpt lat="44.75477" lon="-0.39011">
        <ele>20.3</ele>
        <time>2019-05-19T15:44:08Z</time>
      </trkpt>
      <trkpt lat="44.75454" lon="-0.39042">
        <ele>20.22</ele>
        <time>2019-05-19T15:44:17Z</time>
      </trkpt>
      <trkpt lat="44.75445" lon="-0.39056">
        <ele>20.12</ele>
        <time>2019-05-19T15:44:22Z</time>
      </trkpt>
      <trkpt lat="44.75414" lon="-0.39116">
        <ele>19.91</ele>
        <time>2019-05-19T15:44:26Z</time>
      </trkpt>
      <trkpt lat="44.75392" lon="-0.39142">
        <ele>13.49</ele>
        <time>2019-05-19T15:44:29Z</time>
      </trkpt>
      <trkpt lat="44.75388" lon="-0.39144">
        <ele>19.07</ele>
        <time>2019-05-19T15:44:33Z</time>
      </trkpt>
      <trkpt lat="44.75385" lon="-0.39146">
        <ele>19.06</ele>
        <time>2019-05-19T15:44:37Z</time>
      </trkpt>
      <trkpt lat="44.75365" lon="-0.39165">
        <ele>18.95</ele>
        <time>2019-05-19T15:44:40Z</time>
      </trkpt>
      <trkpt lat="44.75353" lon="-0.39176">
        <ele>18.88</ele>
        <time>2019-05-19T15:44:42Z</time>
      </trkpt>
      <trkpt lat="44.75325" lon="-0.39213">
        <ele>18.78</ele>
        <time>2019-05-19T15:44:49Z</time>
      </trkpt>
      <trkpt lat="44.75304" lon="-0.39252">
        <ele>14.13</ele>
        <time>2019-05-19T15:45:00Z</time>
      </trkpt>
      <trkpt lat="44.75303" lon="-0.39255">
        <ele>21.18</ele>
        <time>2019-05-19T15:45:11Z</time>
      </trkpt>
      <trkpt lat="44.75301" lon="-0.3926">
        <ele>21.17</ele>
        <time>2019-05-19T15:45:15Z</time>
      </trkpt>
      <trkpt lat="44.75298" lon="-0.39266">
        <ele>21.13</ele>
        <time>2019-05-19T15:45:19Z</time>
      </trkpt>
      <trkpt lat="44.7529" lon="-0.39273">
        <ele>21.03</ele>
        <time>2019-05-19T15:45:23Z</time>
      </trkpt>
      <trkpt lat="44.75281" lon="-0.39275">
        <ele>20.84</ele>
        <time>2019-05-19T15:45:26Z</time>
      </trkpt>
      <trkpt lat="44.75278" lon="-0.39275">
        <ele>20.81</ele>
        <time>2019-05-19T15:45:33Z</time>
      </trkpt>
      <trkpt lat="44.75275" lon="-0.39274">
        <ele>20.79</ele>
        <time>2019-05-19T15:45:43Z</time>
      </trkpt>
      <trkpt lat="44.75273" lon="-0.39274">
        <ele>20.75</ele>
        <time>2019-05-19T15:45:45Z</time>
      </trkpt>
      <trkpt lat="44.75271" lon="-0.39274">
        <ele>20.74</ele>
        <time>2019-05-19T15:45:50Z</time>
      </trkpt>
      <trkpt lat="44.75268" lon="-0.39272">
        <ele>18.32</ele>
        <time>2019-05-19T15:45:59Z</time>
      </trkpt>
      <trkpt lat="44.75263" lon="-0.39269">
        <ele>14.81</ele>
        <time>2019-05-19T15:46:01Z</time>
      </trkpt>
      <trkpt lat="44.75261" lon="-0.39269">
        <ele>17.9</ele>
        <time>2019-05-19T15:46:08Z</time>
      </trkpt>
      <trkpt lat="44.75258" lon="-0.39268">
        <ele>17.88</ele>
        <time>2019-05-19T15:46:10Z</time>
      </trkpt>
      <trkpt lat="44.75252" lon="-0.39268">
        <ele>17.9</ele>
        <time>2019-05-19T15:46:13Z</time>
      </trkpt>
      <trkpt lat="44.7525" lon="-0.39267">
        <ele>13.52</ele>
        <time>2019-05-19T15:46:15Z</time>
      </trkpt>
      <trkpt lat="44.7525" lon="-0.39267">
        <ele>17.72</ele>
        <time>2019-05-19T15:46:18Z</time>
      </trkpt>
      <trkpt lat="44.7524" lon="-0.39282">
        <ele>13.93</ele>
        <time>2019-05-19T15:46:22Z</time>
      </trkpt>
      <trkpt lat="44.75239" lon="-0.39283">
        <ele>17.43</ele>
        <time>2019-05-19T15:46:28Z</time>
      </trkpt>
      <trkpt lat="44.75237" lon="-0.39283">
        <ele>17.43</ele>
        <time>2019-05-19T15:46:38Z</time>
      </trkpt>
      <trkpt lat="44.75234" lon="-0.39281">
        <ele>17.42</ele>
        <time>2019-05-19T15:46:51Z</time>
      </trkpt>
      <trkpt lat="44.75232" lon="-0.3928">
        <ele>14.96</ele>
        <time>2019-05-19T15:46:56Z</time>
      </trkpt>
      <trkpt lat="44.75229" lon="-0.39279">
        <ele>14.93</ele>
        <time>2019-05-19T15:47:01Z</time>
      </trkpt>
      <trkpt lat="44.75221" lon="-0.39277">
        <ele>13.96</ele>
        <time>2019-05-19T15:47:36Z</time>
      </trkpt>
      <trkpt lat="44.752" lon="-0.39271">
        <ele>13.19</ele>
        <time>2019-05-19T15:48:13Z</time>
      </trkpt>
      <trkpt lat="44.75179" lon="-0.39258">
        <ele>12.37</ele>
        <time>2019-05-19T15:48:28Z</time>
      </trkpt>
      <trkpt lat="44.75165" lon="-0.39246">
        <ele>12.37</ele>
        <time>2019-05-19T15:48:33Z</time>
      </trkpt>
      <trkpt lat="44.75163" lon="-0.39245">
        <ele>12.37</ele>
        <time>2019-05-19T15:48:34Z</time>
      </trkpt>
      <trkpt lat="44.7516" lon="-0.39244">
        <ele>12.37</ele>
        <time>2019-05-19T15:48:35Z</time>
      </trkpt>
      <trkpt lat="44.75157" lon="-0.39243">
        <ele>12.36</ele>
        <time>2019-05-19T15:48:37Z</time>
      </trkpt>
      <trkpt lat="44.75154" lon="-0.39242">
        <ele>12.35</ele>
        <time>2019-05-19T15:48:40Z</time>
      </trkpt>
      <trkpt lat="44.7515" lon="-0.3924">
        <ele>11.57</ele>
        <time>2019-05-19T15:49:16Z</time>
      </trkpt>
      <trkpt lat="44.75148" lon="-0.39239">
        <ele>11.56</ele>
        <time>2019-05-19T15:49:29Z</time>
      </trkpt>
      <trkpt lat="44.75145" lon="-0.39238">
        <ele>11.56</ele>
        <time>2019-05-19T15:49:40Z</time>
      </trkpt>
      <trkpt lat="44.75143" lon="-0.39237">
        <ele>11.56</ele>
        <time>2019-05-19T15:49:50Z</time>
      </trkpt>
      <trkpt lat="44.75141" lon="-0.39237">
        <ele>11.56</ele>
        <time>2019-05-19T15:49:54Z</time>
      </trkpt>
      <trkpt lat="44.75127" lon="-0.39232">
        <ele>11.46</ele>
        <time>2019-05-19T15:49:56Z</time>
      </trkpt>
      <trkpt lat="44.7512" lon="-0.39228">
        <ele>11.36</ele>
        <time>2019-05-19T15:49:59Z</time>
      </trkpt>
      <trkpt lat="44.75118" lon="-0.39224">
        <ele>11.32</ele>
        <time>2019-05-19T15:50:02Z</time>
      </trkpt>
      <trkpt lat="44.7511" lon="-0.39217">
        <ele>11.26</ele>
        <time>2019-05-19T15:50:08Z</time>
      </trkpt>
      <trkpt lat="44.75092" lon="-0.39194">
        <ele>11.05</ele>
        <time>2019-05-19T15:50:12Z</time>
      </trkpt>
      <trkpt lat="44.75083" lon="-0.39176">
        <ele>10.92</ele>
        <time>2019-05-19T15:50:23Z</time>
      </trkpt>
      <trkpt lat="44.75074" lon="-0.39161">
        <ele>10.82</ele>
        <time>2019-05-19T15:50:33Z</time>
      </trkpt>
      <trkpt lat="44.75063" lon="-0.39157">
        <ele>10.69</ele>
        <time>2019-05-19T15:50:35Z</time>
      </trkpt>
      <trkpt lat="44.75052" lon="-0.39153">
        <ele>10.52</ele>
        <time>2019-05-19T15:50:45Z</time>
      </trkpt>
      <trkpt lat="44.75046" lon="-0.39142">
        <ele>9.52</ele>
        <time>2019-05-19T15:50:49Z</time>
      </trkpt>
      <trkpt lat="44.75034" lon="-0.39138">
        <ele>9.4</ele>
        <time>2019-05-19T15:51:00Z</time>
      </trkpt>
      <trkpt lat="44.75029" lon="-0.39137">
        <ele>9.36</ele>
        <time>2019-05-19T15:51:07Z</time>
      </trkpt>
      <trkpt lat="44.75017" lon="-0.39138">
        <ele>9.2</ele>
        <time>2019-05-19T15:51:08Z</time>
      </trkpt>
      <trkpt lat="44.75014" lon="-0.39133">
        <ele>9.14</ele>
        <time>2019-05-19T15:51:09Z</time>
      </trkpt>
      <trkpt lat="44.7501" lon="-0.3913">
        <ele>9.08</ele>
        <time>2019-05-19T15:51:16Z</time>
      </trkpt>
      <trkpt lat="44.75001" lon="-0.39129">
        <ele>8.98</ele>
        <time>2019-05-19T15:51:20Z</time>
      </trkpt>
      <trkpt lat="44.74992" lon="-0.39124">
        <ele>8.87</ele>
        <time>2019-05-19T15:51:30Z</time>
      </trkpt>
      <trkpt lat="44.74985" lon="-0.39122">
        <ele>8.8</ele>
        <time>2019-05-19T15:51:40Z</time>
      </trkpt>
      <trkpt lat="44.74976" lon="-0.39121">
        <ele>8.68</ele>
        <time>2019-05-19T15:51:41Z</time>
      </trkpt>
      <trkpt lat="44.74961" lon="-0.39116">
        <ele>8.55</ele>
        <time>2019-05-19T15:51:42Z</time>
      </trkpt>
      <trkpt lat="44.74954" lon="-0.39116">
        <ele>8.48</ele>
        <time>2019-05-19T15:51:44Z</time>
      </trkpt>
      <trkpt lat="44.74942" lon="-0.39126">
        <ele>8.21</ele>
        <time>2019-05-19T15:51:48Z</time>
      </trkpt>
      <trkpt lat="44.74931" lon="-0.39132">
        <ele>5.98</ele>
        <time>2019-05-19T15:51:53Z</time>
      </trkpt>
      <trkpt lat="44.74925" lon="-0.39137">
        <ele>5.84</ele>
        <time>2019-05-19T15:51:54Z</time>
      </trkpt>
      <trkpt lat="44.74926" lon="-0.39143">
        <ele>5.71</ele>
        <time>2019-05-19T15:51:55Z</time>
      </trkpt>
      <trkpt lat="44.74926" lon="-0.39146">
        <ele>5.75</ele>
        <time>2019-05-19T15:51:56Z</time>
      </trkpt>
      <trkpt lat="44.7492" lon="-0.39166">
        <ele>5.8</ele>
        <time>2019-05-19T15:51:57Z</time>
      </trkpt>
      <trkpt lat="44.74912" lon="-0.39177">
        <ele>8.56</ele>
        <time>2019-05-19T15:51:59Z</time>
      </trkpt>
      <trkpt lat="44.74909" lon="-0.39186">
        <ele>9.38</ele>
        <time>2019-05-19T15:52:02Z</time>
      </trkpt>
      <trkpt lat="44.74888" lon="-0.39202">
        <ele>10.23</ele>
        <time>2019-05-19T15:52:03Z</time>
      </trkpt>
      <trkpt lat="44.74889" lon="-0.39209">
        <ele>10.94</ele>
        <time>2019-05-19T15:52:04Z</time>
      </trkpt>
      <trkpt lat="44.74889" lon="-0.39225">
        <ele>12.47</ele>
        <time>2019-05-19T15:52:09Z</time>
      </trkpt>
      <trkpt lat="44.74877" lon="-0.39248">
        <ele>14.12</ele>
        <time>2019-05-19T15:52:15Z</time>
      </trkpt>
      <trkpt lat="44.74865" lon="-0.39248">
        <ele>13.87</ele>
        <time>2019-05-19T15:52:16Z</time>
      </trkpt>
      <trkpt lat="44.74847" lon="-0.39251">
        <ele>15.01</ele>
        <time>2019-05-19T15:52:43Z</time>
      </trkpt>
      <trkpt lat="44.74856" lon="-0.39262">
        <ele>17.79</ele>
        <time>2019-05-19T15:52:44Z</time>
      </trkpt>
      <trkpt lat="44.74861" lon="-0.39268">
        <ele>18.41</ele>
        <time>2019-05-19T15:52:45Z</time>
      </trkpt>
      <trkpt lat="44.74868" lon="-0.39278">
        <ele>18.27</ele>
        <time>2019-05-19T15:52:47Z</time>
      </trkpt>
      <trkpt lat="44.74873" lon="-0.39292">
        <ele>19.02</ele>
        <time>2019-05-19T15:52:48Z</time>
      </trkpt>
      <trkpt lat="44.74874" lon="-0.39301">
        <ele>19.03</ele>
        <time>2019-05-19T15:52:49Z</time>
      </trkpt>
      <trkpt lat="44.74869" lon="-0.39309">
        <ele>19.78</ele>
        <time>2019-05-19T15:52:52Z</time>
      </trkpt>
      <trkpt lat="44.7487" lon="-0.39305">
        <ele>19.77</ele>
        <time>2019-05-19T15:53:00Z</time>
      </trkpt>
      <trkpt lat="44.74874" lon="-0.39298">
        <ele>20.06</ele>
        <time>2019-05-19T15:53:10Z</time>
      </trkpt>
      <trkpt lat="44.74876" lon="-0.39296">
        <ele>20.52</ele>
        <time>2019-05-19T15:53:16Z</time>
      </trkpt>
      <trkpt lat="44.74878" lon="-0.39293">
        <ele>20.96</ele>
        <time>2019-05-19T15:53:17Z</time>
      </trkpt>
      <trkpt lat="44.74886" lon="-0.39313">
        <ele>21.94</ele>
        <time>2019-05-19T15:53:18Z</time>
      </trkpt>
      <trkpt lat="44.74898" lon="-0.39344">
        <ele>22.85</ele>
        <time>2019-05-19T15:53:19Z</time>
      </trkpt>
      <trkpt lat="44.74903" lon="-0.39359">
        <ele>23.67</ele>
        <time>2019-05-19T15:53:20Z</time>
      </trkpt>
      <trkpt lat="44.74911" lon="-0.39385">
        <ele>25.42</ele>
        <time>2019-05-19T15:53:21Z</time>
      </trkpt>
      <trkpt lat="44.74914" lon="-0.39398">
        <ele>26.29</ele>
        <time>2019-05-19T15:53:22Z</time>
      </trkpt>
      <trkpt lat="44.74914" lon="-0.39424">
        <ele>27.19</ele>
        <time>2019-05-19T15:53:23Z</time>
      </trkpt>
      <trkpt lat="44.74914" lon="-0.39435">
        <ele>27.99</ele>
        <time>2019-05-19T15:53:24Z</time>
      </trkpt>
      <trkpt lat="44.74916" lon="-0.39447">
        <ele>28.81</ele>
        <time>2019-05-19T15:53:25Z</time>
      </trkpt>
      <trkpt lat="44.74919" lon="-0.39459">
        <ele>29.63</ele>
        <time>2019-05-19T15:53:34Z</time>
      </trkpt>
      <trkpt lat="44.74919" lon="-0.39471">
        <ele>29.62</ele>
        <time>2019-05-19T15:53:40Z</time>
      </trkpt>
      <trkpt lat="44.74918" lon="-0.39488">
        <ele>30.41</ele>
        <time>2019-05-19T15:53:42Z</time>
      </trkpt>
      <trkpt lat="44.74916" lon="-0.39504">
        <ele>32.21</ele>
        <time>2019-05-19T15:53:46Z</time>
      </trkpt>
      <trkpt lat="44.74915" lon="-0.39512">
        <ele>32.2</ele>
        <time>2019-05-19T15:53:55Z</time>
      </trkpt>
      <trkpt lat="44.74915" lon="-0.39528">
        <ele>32.18</ele>
        <time>2019-05-19T15:54:02Z</time>
      </trkpt>
      <trkpt lat="44.74914" lon="-0.39565">
        <ele>33.97</ele>
        <time>2019-05-19T15:54:07Z</time>
      </trkpt>
      <trkpt lat="44.74908" lon="-0.396">
        <ele>35.6</ele>
        <time>2019-05-19T15:54:12Z</time>
      </trkpt>
      <trkpt lat="44.74905" lon="-0.39613">
        <ele>31.58</ele>
        <time>2019-05-19T15:54:20Z</time>
      </trkpt>
      <trkpt lat="44.74905" lon="-0.39615">
        <ele>36.58</ele>
        <time>2019-05-19T15:54:25Z</time>
      </trkpt>
      <trkpt lat="44.74903" lon="-0.39617">
        <ele>37.38</ele>
        <time>2019-05-19T15:54:30Z</time>
      </trkpt>
      <trkpt lat="44.74902" lon="-0.39619">
        <ele>37.37</ele>
        <time>2019-05-19T15:54:32Z</time>
      </trkpt>
      <trkpt lat="44.74897" lon="-0.39632">
        <ele>38.58</ele>
        <time>2019-05-19T15:54:39Z</time>
      </trkpt>
      <trkpt lat="44.74894" lon="-0.39639">
        <ele>33.64</ele>
        <time>2019-05-19T15:54:42Z</time>
      </trkpt>
      <trkpt lat="44.74894" lon="-0.39641">
        <ele>38.73</ele>
        <time>2019-05-19T15:54:45Z</time>
      </trkpt>
      <trkpt lat="44.74891" lon="-0.39646">
        <ele>39.48</ele>
        <time>2019-05-19T15:54:49Z</time>
      </trkpt>
      <trkpt lat="44.74886" lon="-0.39658">
        <ele>39.46</ele>
        <time>2019-05-19T15:54:53Z</time>
      </trkpt>
      <trkpt lat="44.7488" lon="-0.3967">
        <ele>39.44</ele>
        <time>2019-05-19T15:54:56Z</time>
      </trkpt>
      <trkpt lat="44.74879" lon="-0.39672">
        <ele>39.45</ele>
        <time>2019-05-19T15:55:00Z</time>
      </trkpt>
      <trkpt lat="44.74873" lon="-0.3968">
        <ele>41.04</ele>
        <time>2019-05-19T15:55:05Z</time>
      </trkpt>
      <trkpt lat="44.74872" lon="-0.39681">
        <ele>35.63</ele>
        <time>2019-05-19T15:55:08Z</time>
      </trkpt>
      <trkpt lat="44.74871" lon="-0.39682">
        <ele>43.5</ele>
        <time>2019-05-19T15:55:19Z</time>
      </trkpt>
      <trkpt lat="44.7487" lon="-0.39684">
        <ele>43.48</ele>
        <time>2019-05-19T15:55:40Z</time>
      </trkpt>
      <trkpt lat="44.74866" lon="-0.39687">
        <ele>40.44</ele>
        <time>2019-05-19T15:55:58Z</time>
      </trkpt>
      <trkpt lat="44.74865" lon="-0.39689">
        <ele>40.46</ele>
        <time>2019-05-19T15:56:21Z</time>
      </trkpt>
      <trkpt lat="44.74862" lon="-0.3969">
        <ele>40.44</ele>
        <time>2019-05-19T15:56:47Z</time>
      </trkpt>
      <trkpt lat="44.74861" lon="-0.39691">
        <ele>40.46</ele>
        <time>2019-05-19T15:57:03Z</time>
      </trkpt>
      <trkpt lat="44.74859" lon="-0.39693">
        <ele>40.44</ele>
        <time>2019-05-19T15:57:10Z</time>
      </trkpt>
      <trkpt lat="44.74857" lon="-0.39694">
        <ele>40.43</ele>
        <time>2019-05-19T15:57:14Z</time>
      </trkpt>
      <trkpt lat="44.74855" lon="-0.39695">
        <ele>40.42</ele>
        <time>2019-05-19T15:57:31Z</time>
      </trkpt>
      <trkpt lat="44.74852" lon="-0.39697">
        <ele>40.42</ele>
        <time>2019-05-19T15:57:37Z</time>
      </trkpt>
      <trkpt lat="44.7485" lon="-0.39699">
        <ele>40.41</ele>
        <time>2019-05-19T15:57:45Z</time>
      </trkpt>
      <trkpt lat="44.74847" lon="-0.397">
        <ele>40.41</ele>
        <time>2019-05-19T15:57:59Z</time>
      </trkpt>
      <trkpt lat="44.74845" lon="-0.39701">
        <ele>40.38</ele>
        <time>2019-05-19T15:58:08Z</time>
      </trkpt>
      <trkpt lat="44.74842" lon="-0.39703">
        <ele>40.39</ele>
        <time>2019-05-19T15:58:19Z</time>
      </trkpt>
      <trkpt lat="44.74839" lon="-0.39703">
        <ele>40.36</ele>
        <time>2019-05-19T15:58:36Z</time>
      </trkpt>
      <trkpt lat="44.74837" lon="-0.39704">
        <ele>40.35</ele>
        <time>2019-05-19T15:58:42Z</time>
      </trkpt>
      <trkpt lat="44.74834" lon="-0.39705">
        <ele>42.74</ele>
        <time>2019-05-19T15:58:48Z</time>
      </trkpt>
      <trkpt lat="44.74832" lon="-0.39705">
        <ele>42.75</ele>
        <time>2019-05-19T15:58:58Z</time>
      </trkpt>
      <trkpt lat="44.74829" lon="-0.39707">
        <ele>42.72</ele>
        <time>2019-05-19T15:59:02Z</time>
      </trkpt>
      <trkpt lat="44.74827" lon="-0.39708">
        <ele>42.73</ele>
        <time>2019-05-19T15:59:27Z</time>
      </trkpt>
      <trkpt lat="44.74824" lon="-0.39708">
        <ele>42.74</ele>
        <time>2019-05-19T15:59:59Z</time>
      </trkpt>
      <trkpt lat="44.74821" lon="-0.39709">
        <ele>42.74</ele>
        <time>2019-05-19T16:00:35Z</time>
      </trkpt>
      <trkpt lat="44.74819" lon="-0.3971">
        <ele>43.5</ele>
        <time>2019-05-19T16:01:13Z</time>
      </trkpt>
      <trkpt lat="44.74817" lon="-0.3971">
        <ele>43.53</ele>
        <time>2019-05-19T16:01:45Z</time>
      </trkpt>
      <trkpt lat="44.74814" lon="-0.39709">
        <ele>43.49</ele>
        <time>2019-05-19T16:01:59Z</time>
      </trkpt>
      <trkpt lat="44.74811" lon="-0.3971">
        <ele>43.49</ele>
        <time>2019-05-19T16:02:14Z</time>
      </trkpt>
      <trkpt lat="44.74809" lon="-0.3971">
        <ele>43.48</ele>
        <time>2019-05-19T16:02:21Z</time>
      </trkpt>
      <trkpt lat="44.74806" lon="-0.39711">
        <ele>43.45</ele>
        <time>2019-05-19T16:02:32Z</time>
      </trkpt>
      <trkpt lat="44.74803" lon="-0.39712">
        <ele>43.46</ele>
        <time>2019-05-19T16:02:38Z</time>
      </trkpt>
      <trkpt lat="44.74801" lon="-0.39714">
        <ele>44.23</ele>
        <time>2019-05-19T16:02:48Z</time>
      </trkpt>
      <trkpt lat="44.74798" lon="-0.39715">
        <ele>44.22</ele>
        <time>2019-05-19T16:02:52Z</time>
      </trkpt>
      <trkpt lat="44.7476" lon="-0.3971">
        <ele>44.11</ele>
        <time>2019-05-19T16:02:57Z</time>
      </trkpt>
      <trkpt lat="44.74724" lon="-0.39702">
        <ele>45.15</ele>
        <time>2019-05-19T16:03:02Z</time>
      </trkpt>
      <trkpt lat="44.74681" lon="-0.39701">
        <ele>45.11</ele>
        <time>2019-05-19T16:03:06Z</time>
      </trkpt>
    </trkseg>
  </trk>
  <trk>
    <name><![CDATA[Créon_2]]></name>
    <trkseg>
      <trkpt lat="44.71194" lon="-0.33086">
        <ele>91.5</ele>
      </trkpt>
      <trkpt lat="44.71194" lon="-0.33086">
        <ele>91.5</ele>
      </trkpt>
      <trkpt lat="44.71161" lon="-0.33117">
        <ele>92.4</ele>
      </trkpt>
      <trkpt lat="44.7118" lon="-0.33117">
        <ele>90.9</ele>
      </trkpt>
      <trkpt lat="44.71199" lon="-0.33125">
        <ele>90.6</ele>
      </trkpt>
      <trkpt lat="44.712" lon="-0.33125">
        <ele>90.5</ele>
      </trkpt>
      <trkpt lat="44.71239" lon="-0.33149">
        <ele>89.4</ele>
      </trkpt>
      <trkpt lat="44.7126" lon="-0.33157">
        <ele>89.7</ele>
      </trkpt>
      <trkpt lat="44.71365" lon="-0.33149">
        <ele>94.2</ele>
      </trkpt>
      <trkpt lat="44.71378" lon="-0.33158">
        <ele>94.4</ele>
      </trkpt>
      <trkpt lat="44.71416" lon="-0.33163">
        <ele>94.9</ele>
      </trkpt>
      <trkpt lat="44.71462" lon="-0.33187">
        <ele>94</ele>
      </trkpt>
      <trkpt lat="44.71489" lon="-0.33237">
        <ele>94.6</ele>
      </trkpt>
      <trkpt lat="44.71525" lon="-0.33288">
        <ele>95.5</ele>
      </trkpt>
      <trkpt lat="44.71542" lon="-0.33341">
        <ele>98</ele>
      </trkpt>
      <trkpt lat="44.71564" lon="-0.33414">
        <ele>99</ele>
      </trkpt>
      <trkpt lat="44.71661" lon="-0.33794">
        <ele>97.8</ele>
      </trkpt>
      <trkpt lat="44.71677" lon="-0.3383">
        <ele>97.6</ele>
      </trkpt>
      <trkpt lat="44.71711" lon="-0.33851">
        <ele>91.7</ele>
      </trkpt>
      <trkpt lat="44.71743" lon="-0.33861">
        <ele>91.7</ele>
      </trkpt>
      <trkpt lat="44.71773" lon="-0.33881">
        <ele>89.5</ele>
      </trkpt>
      <trkpt lat="44.7184" lon="-0.3396">
        <ele>83.3</ele>
      </trkpt>
      <trkpt lat="44.71876" lon="-0.33964">
        <ele>82.6</ele>
      </trkpt>
      <trkpt lat="44.71917" lon="-0.33937">
        <ele>78.5</ele>
      </trkpt>
      <trkpt lat="44.71964" lon="-0.33947">
        <ele>75.6</ele>
      </trkpt>
      <trkpt lat="44.72028" lon="-0.33989">
        <ele>66.5</ele>
      </trkpt>
      <trkpt lat="44.72053" lon="-0.34024">
        <ele>63.9</ele>
      </trkpt>
      <trkpt lat="44.72065" lon="-0.34032">
        <ele>63.2</ele>
      </trkpt>
      <trkpt lat="44.72117" lon="-0.34032">
        <ele>54.7</ele>
      </trkpt>
      <trkpt lat="44.72145" lon="-0.34026">
        <ele>53.1</ele>
      </trkpt>
      <trkpt lat="44.72182" lon="-0.34008">
        <ele>48.4</ele>
      </trkpt>
      <trkpt lat="44.72188" lon="-0.33969">
        <ele>47.4</ele>
      </trkpt>
      <trkpt lat="44.72191" lon="-0.33947">
        <ele>46.9</ele>
      </trkpt>
      <trkpt lat="44.72201" lon="-0.33938">
        <ele>46.7</ele>
      </trkpt>
      <trkpt lat="44.72213" lon="-0.33935">
        <ele>46.5</ele>
      </trkpt>
      <trkpt lat="44.72214" lon="-0.33935">
        <ele>46.4</ele>
      </trkpt>
      <trkpt lat="44.72224" lon="-0.33937">
        <ele>46.3</ele>
      </trkpt>
      <trkpt lat="44.72257" lon="-0.33988">
        <ele>47.8</ele>
      </trkpt>
      <trkpt lat="44.72281" lon="-0.34019">
        <ele>47.4</ele>
      </trkpt>
      <trkpt lat="44.72316" lon="-0.34071">
        <ele>46.4</ele>
      </trkpt>
      <trkpt lat="44.7233" lon="-0.34089">
        <ele>44.1</ele>
      </trkpt>
      <trkpt lat="44.72343" lon="-0.34101">
        <ele>45.2</ele>
      </trkpt>
      <trkpt lat="44.72353" lon="-0.34106">
        <ele>45.4</ele>
      </trkpt>
      <trkpt lat="44.72392" lon="-0.34114">
        <ele>47</ele>
      </trkpt>
      <trkpt lat="44.72405" lon="-0.34121">
        <ele>47.2</ele>
      </trkpt>
      <trkpt lat="44.72438" lon="-0.34167">
        <ele>51.7</ele>
      </trkpt>
      <trkpt lat="44.72439" lon="-0.34177">
        <ele>52</ele>
      </trkpt>
      <trkpt lat="44.72441" lon="-0.34179">
        <ele>52.3</ele>
      </trkpt>
      <trkpt lat="44.72443" lon="-0.34182">
        <ele>52.6</ele>
      </trkpt>
      <trkpt lat="44.72488" lon="-0.34141">
        <ele>55.2</ele>
      </trkpt>
      <trkpt lat="44.72536" lon="-0.34103">
        <ele>60.2</ele>
      </trkpt>
      <trkpt lat="44.72601" lon="-0.34063">
        <ele>63.7</ele>
      </trkpt>
      <trkpt lat="44.72722" lon="-0.33993">
        <ele>70.8</ele>
      </trkpt>
      <trkpt lat="44.72835" lon="-0.33969">
        <ele>78.6</ele>
      </trkpt>
      <trkpt lat="44.72984" lon="-0.33986">
        <ele>85.1</ele>
      </trkpt>
      <trkpt lat="44.73053" lon="-0.33941">
        <ele>86.7</ele>
      </trkpt>
    </trkseg>
  </trk>
</gpx>